GFSMW_sfc_temp_000.txt.gz
Temp
94 94 93 94 94 92 90 89 88 87 88 86 88 89 90 91 90 94 89 89 90 89 88 89 87 87 86 87 85 85 84 86 88 84 88 87 88 88 91 92 90 88 90
93 92 92 94 94 91 90 88 88 87 87 90 89 91 89 94 92 94 90 90 90 88 88 87 87 86 90 84 83 82 84 87 87 82 83 82 83 87 90 90 88 86 90
92 91 91 92 93 91 90 89 88 87 87 88 89 88 87 88 90 89 88 89 88 88 87 87 88 86 85 88 84 83 81 83 85 81 81 80 81 83 87 85 88 85 87
93 93 92 92 93 92 92 90 89 88 88 88 89 86 88 89 93 92 94 92 89 89 88 87 86 84 88 85 84 86 82 81 83 86 85 81 79 79 81 86 86 89 87
95 93 93 93 94 94 93 92 89 88 88 88 87 89 86 92 93 93 88 86 88 88 89 87 85 84 86 83 83 82 80 85 83 84 85 82 85 82 79 77 83 87 87
96 94 95 94 93 95 94 92 89 87 88 88 87 86 87 87 91 89 89 89 91 89 87 86 85 85 85 83 84 82 81 81 81 84 82 83 82 83 81 79 79 79 84
96 94 93 93 92 92 92 92 89 86 88 88 87 87 86 87 86 87 88 89 90 90 86 84 83 86 84 84 83 81 82 81 81 80 84 85 84 85 82 80 79 79 83
99 96 94 94 92 92 92 91 90 87 88 88 87 87 87 90 90 89 91 90 90 90 89 85 85 85 85 84 83 84 84 83 82 80 80 84 85 85 84 81 78 76 80
98 97 96 95 94 93 92 91 89 88 89 89 87 86 87 87 90 90 89 90 88 91 87 85 85 85 85 83 82 84 82 82 82 82 81 82 86 87 86 84 81 78 73
98 100 98 97 96 96 95 93 92 89 90 90 89 89 88 87 88 89 86 87 88 86 85 85 85 84 83 83 81 83 83 81 83 84 82 81 85 85 85 85 84 83 78
98 99 100 100 98 98 97 95 93 90 90 91 90 89 89 90 88 88 84 85 84 84 83 83 83 83 82 82 80 80 82 81 80 81 80 79 80 83 85 86 84 82 81
100 99 101 101 99 97 98 97 96 94 93 93 90 89 90 89 88 85 84 82 80 82 80 81 79 81 83 82 80 80 83 81 80 80 80 80 84 81 80 83 79 80 79
98 98 100 98 98 98 97 98 97 98 97 94 92 90 89 88 87 80 76 79 80 76 76 76 76 77 79 81 81 81 81 81 81 81 81 81 81 79 81 80 81 82 81
94 95 96 96 96 96 95 96 97 99 99 97 94 90 88 88 84 81 73 75 77 77 72 74 74 78 81 81 81 82 81 81 81 81 80 80 80 79 79 79 78 78 78
92 92 94 93 92 93 93 93 96 96 97 95 94 91 88 84 81 78 75 75 75 75 72 74 74 77 79 79 80 81 81 79 79 81 81 82 79 74 74 80 79 77 77
93 92 93 93 91 92 91 92 92 94 94 92 91 91 83 81 75 76 76 78 77 77 75 75 75 76 79 72 69 76 81 80 79 79 79 78 74 73 67 67 66 69 72
94 92 92 93 93 93 92 91 90 92 90 88 89 87 81 78 75 76 77 77 77 76 79 78 77 75 77 67 67 68 80 80 78 78 76 75 74 70 77 69 65 65 64
96 93 96 94 92 95 95 93 91 88 87 85 85 84 79 77 76 76 77 77 78 76 78 77 76 77 79 65 63 66 78 77 78 77 75 71 69 69 74 76 75 76 75
97 95 96 93 90 93 92 90 89 87 86 84 83 80 79 76 75 75 75 78 78 78 79 78 77 76 78 60 60 65 80 78 76 70 71 68 68 65 63 71 72 73 74
95 93 93 92 91 91 92 89 88 86 84 84 83 79 78 77 75 76 76 76 77 77 78 77 78 74 76 60 58 64 82 74 70 67 67 62 65 59 58 69 71 70 72
90 91 91 90 89 90 91 88 88 86 87 86 82 78 79 78 77 76 75 76 76 74 76 76 77 74 70 75 56 56 74 74 70 68 70 74 59 56 54 54 71 67 65
90 92 89 87 89 90 90 87 86 87 86 84 78 76 77 78 80 74 73 72 73 74 74 72 74 76 79 61 57 54 57 65 75 72 77 67 54 54 53 57 56 55 56
91 93 89 86 87 87 88 85 83 83 82 76 74 75 75 76 77 73 71 72 74 77 71 72 75 79 80 72 54 53 53 57 72 80 59 54 52 51 52 54 56 54 70
87 90 88 86 82 82 84 83 80 81 80 75 74 72 74 74 74 74 75 75 74 75 72 75 74 76 72 77 72 66 65 57 66 58 69 63 57 52 57 62 61 69 71
85 87 86 84 81 81 81 81 80 79 77 74 73 74 74 73 75 71 66 78 69 68 80 80 76 69 73 79 67 67 77 78 65 67 74 72 73 72 71 71 70 70 70
82 82 82 81 80 80 79 80 78 77 76 73 76 76 77 78 76 74 70 46 48 46 45 45 59 71 53 47 46 45 44 47 48 67 73 72 72 71 71 70 69 70 65

GFSMW_sfc_temp_003.txt.gz
Temp
98 99 97 98 97 95 92 91 89 89 89 88 86 87 88 91 94 95 91 90 90 90 88 89 87 88 87 83 86 86 85 87 88 84 87 87 88 88 90 91 90 89 91
98 96 96 97 96 93 92 90 89 88 88 89 87 91 88 92 96 96 94 92 87 89 88 87 90 89 88 86 85 83 83 87 87 82 83 81 82 84 85 89 89 87 90
97 95 95 95 96 93 92 91 89 89 89 89 89 89 90 91 91 93 92 91 91 91 89 88 87 87 87 89 85 84 81 82 85 82 81 79 73 79 82 85 87 86 86
99 98 96 95 96 95 94 92 90 89 90 88 89 86 87 88 93 94 96 93 90 90 90 88 89 87 87 85 85 86 82 81 83 87 85 82 80 78 77 79 85 86 87
100 98 97 96 97 97 95 94 91 89 90 88 88 90 87 93 96 96 92 91 89 91 92 90 88 85 87 85 83 83 80 84 83 85 85 82 84 81 80 77 80 86 86
101 99 100 98 96 98 96 95 90 88 89 89 87 87 86 88 93 92 91 92 92 91 89 90 87 85 86 85 84 83 82 81 81 83 83 83 82 82 81 79 79 79 83
101 100 97 97 96 95 95 95 91 88 89 89 89 88 87 87 89 90 90 91 92 92 87 88 85 86 84 85 84 82 83 82 82 81 83 79 76 81 83 80 79 74 79
103 101 99 98 96 96 95 95 92 89 90 90 89 89 89 91 92 90 93 92 92 92 90 87 87 85 86 85 84 84 84 84 83 81 80 83 83 81 84 75 74 68 74
103 101 100 99 97 96 95 94 92 90 91 91 90 89 89 89 91 91 90 93 91 92 89 88 85 85 85 85 83 83 83 82 82 82 81 82 85 87 87 85 76 71 69
103 103 102 100 99 99 97 96 95 91 91 92 92 91 90 89 90 91 90 90 90 88 88 86 85 85 85 84 82 83 83 81 83 84 83 82 84 85 85 85 84 83 78
103 103 103 103 101 100 99 97 96 93 92 93 92 92 91 91 90 90 90 89 89 86 86 84 84 84 84 83 81 81 83 81 81 81 81 81 81 83 85 86 85 82 81
105 105 105 104 102 101 100 99 97 96 94 94 93 92 91 91 90 89 90 87 86 86 84 83 82 83 83 78 81 81 83 81 80 81 80 80 84 79 79 83 78 79 80
105 105 105 105 103 102 100 102 100 100 99 95 94 93 91 91 89 88 88 85 85 83 84 83 81 81 82 82 82 82 81 81 82 82 81 81 81 79 81 79 80 80 78
101 103 104 104 104 102 98 99 101 102 101 98 96 92 91 90 90 88 86 84 83 82 82 82 81 81 82 82 82 82 81 81 82 82 82 82 79 77 76 77 76 78 75
102 100 101 101 99 99 97 98 101 100 101 97 96 93 91 90 89 86 84 82 82 81 81 81 81 82 83 85 82 82 81 81 80 81 82 81 79 73 71 76 70 73 74
103 100 99 100 99 99 98 98 98 100 99 95 95 93 89 87 86 83 81 79 82 82 82 79 80 79 84 73 71 78 80 80 80 76 79 75 76 76 67 67 66 65 65
103 103 99 99 99 99 98 98 96 98 96 94 94 93 88 84 80 81 79 78 79 81 81 78 79 79 80 67 67 69 80 76 79 77 76 79 82 74 78 69 64 64 64
103 104 104 100 99 101 101 99 97 93 93 91 91 90 86 81 78 77 77 78 80 80 81 79 81 80 81 65 64 67 74 75 79 80 79 78 77 76 69 73 69 69 75
106 106 104 102 98 99 98 96 94 92 91 89 89 89 84 80 77 76 78 79 79 81 78 78 76 78 78 62 61 67 75 73 77 79 80 76 73 67 63 66 66 70 72
106 105 102 101 97 97 97 94 92 90 89 89 88 88 83 79 78 77 77 78 80 80 81 79 76 75 78 59 59 65 72 72 80 78 76 64 68 60 60 70 71 70 73
101 100 99 95 94 97 96 90 90 88 90 90 88 85 82 78 79 78 78 77 77 75 73 73 79 78 77 74 57 57 75 79 78 78 72 76 58 58 56 55 70 69 65
96 97 93 92 94 95 92 89 88 90 90 88 86 82 79 79 79 77 77 76 74 75 76 75 77 80 78 64 57 56 57 67 76 76 79 71 56 57 56 58 58 58 58
92 94 92 90 92 92 91 88 88 88 87 85 80 78 78 77 78 79 77 75 77 79 77 78 78 79 80 74 56 55 54 56 66 67 57 56 54 54 54 54 57 56 67
90 92 90 88 87 90 90 88 87 87 84 77 75 76 75 76 76 80 77 74 76 77 80 79 76 76 76 68 69 71 68 58 65 59 68 64 61 55 58 63 61 67 69
89 88 86 85 84 85 84 86 85 85 78 74 74 75 77 76 76 76 72 75 76 66 80 81 75 74 78 79 69 64 72 77 68 72 76 72 72 73 70 69 68 68 71
85 84 84 84 83 83 83 83 83 83 79 76 77 78 79 78 73 72 70 48 49 47 47 46 61 71 53 47 47 46 48 50 53 70 72 74 74 73 73 70 70 72 69

GFSMW_sfc_temp_006.txt.gz
Temp
96 97 96 97 95 92 89 87 86 86 87 84 83 83 83 83 85 86 84 85 87 86 85 84 83 82 82 77 79 81 78 78 79 77 76 77 81 81 80 81 79 81 82
96 95 95 96 95 91 88 86 85 85 85 86 84 85 84 86 85 87 85 86 85 85 82 82 80 80 79 79 79 79 76 77 78 74 73 68 74 77 81 79 79 79 80
96 93 94 94 95 90 88 86 85 85 84 85 85 83 82 81 82 86 85 86 86 85 81 82 83 81 83 79 79 78 78 74 77 79 74 69 67 71 78 78 77 77 75
97 96 94 93 94 91 90 87 85 85 85 84 83 82 83 82 85 85 86 86 87 86 86 84 83 82 80 79 78 80 77 77 73 76 78 77 74 68 67 75 76 76 77
99 97 95 94 95 94 91 89 86 84 85 84 84 83 83 85 86 87 86 83 83 84 84 83 83 81 80 79 79 77 76 77 75 74 76 75 74 73 70 67 70 74 75
100 99 98 96 94 95 93 90 85 84 85 84 83 83 81 83 84 85 84 84 84 85 85 85 82 81 80 78 79 79 78 77 76 75 75 74 73 71 72 69 70 71 74
100 98 96 94 92 92 91 89 86 83 85 85 83 83 84 82 83 85 85 84 84 84 82 82 81 80 80 79 79 77 78 77 76 75 75 75 74 74 72 71 68 68 71
103 100 97 95 92 92 91 90 86 84 85 85 83 83 83 85 85 86 87 86 84 85 82 82 82 82 79 79 78 78 77 77 76 76 75 75 76 75 74 72 69 66 68
101 101 99 97 93 92 91 89 86 85 85 86 84 84 83 84 85 85 85 86 84 87 83 83 82 81 80 79 78 76 76 78 77 76 75 74 75 76 76 75 73 68 64
101 102 101 98 96 95 93 92 90 86 86 87 86 86 85 85 85 85 84 84 85 85 82 82 81 81 78 79 77 77 78 75 76 76 75 74 75 76 76 75 74 72 69
101 103 102 101 98 97 94 93 91 88 87 87 87 86 86 86 85 86 85 84 85 83 82 81 80 79 79 79 76 76 76 75 75 75 75 75 77 75 74 75 74 73 72
102 103 103 101 98 96 95 94 93 92 89 88 87 86 86 86 85 84 86 85 84 83 81 81 80 80 79 78 76 76 77 76 74 75 74 75 78 73 73 73 72 72 72
100 102 104 99 98 96 94 95 94 94 93 89 89 87 86 85 85 84 85 84 84 82 82 81 79 78 78 77 76 76 76 76 76 75 74 74 74 73 72 72 71 70 70
96 100 100 99 98 95 92 92 94 96 94 91 90 87 86 86 86 85 84 85 84 82 82 80 79 78 78 77 77 77 76 76 77 77 76 76 74 74 73 72 71 70 68
96 98 99 95 93 92 91 92 94 93 95 90 90 88 87 87 86 85 84 84 83 83 82 80 79 78 79 81 77 77 76 75 76 75 77 76 76 73 71 69 69 70 67
98 97 96 97 95 93 91 92 92 92 93 89 89 88 87 85 85 84 83 83 82 81 80 78 77 75 80 74 72 76 77 75 75 72 75 76 72 71 67 66 67 69 67
98 98 97 96 97 97 93 92 91 93 91 88 89 87 86 85 84 84 83 82 80 80 78 77 76 74 76 67 68 71 77 75 74 72 73 74 76 71 74 68 66 65 65
98 98 102 98 96 102 101 96 94 90 89 88 87 87 86 84 84 83 82 81 79 78 78 76 74 75 76 66 65 69 72 73 74 73 73 70 72 73 73 71 69 67 68
100 99 103 102 95 98 97 94 93 91 90 89 87 88 87 84 83 81 79 79 77 76 76 75 75 74 75 63 62 65 69 71 71 73 73 72 73 69 62 68 67 67 68
103 100 101 101 96 95 98 93 92 91 89 89 88 88 85 82 79 78 77 76 78 77 79 77 75 71 75 61 59 64 74 72 71 71 72 64 69 63 60 66 67 66 67
100 102 99 95 93 94 96 90 90 88 90 90 89 86 83 80 78 76 76 76 77 77 75 73 73 74 74 69 58 59 73 73 72 72 70 73 59 58 57 58 65 63 60
98 100 95 92 92 93 90 87 86 88 88 86 86 83 80 79 78 75 75 75 75 73 73 73 73 74 74 64 57 56 59 68 72 69 70 63 55 56 58 56 57 57 58
96 97 92 89 91 89 87 84 84 85 84 83 82 80 78 77 76 76 73 73 75 76 74 74 71 71 72 69 59 55 55 56 63 70 59 55 53 57 55 56 58 57 62
89 90 88 85 84 85 86 85 85 84 83 80 78 77 76 76 77 76 76 77 76 76 74 73 70 72 71 72 66 65 60 57 61 59 60 62 62 60 60 61 58 61 63
82 84 84 83 83 84 83 85 84 82 78 77 76 74 74 74 74 68 67 76 63 63 75 73 72 74 71 72 68 68 72 71 66 66 68 65 66 66 64 64 65 64 63
78 78 82 81 80 82 82 82 81 79 77 76 75 75 72 73 71 69 65 47 48 46 47 49 63 60 51 49 48 48 48 51 56 67 68 66 68 66 64 62 62 63 63

GFSMW_sfc_temp_009.txt.gz
Temp
88 88 89 90 86 84 83 82 80 79 80 79 77 75 74 76 77 79 79 78 78 78 77 75 75 76 75 73 77 72 69 70 71 69 71 73 76 78 73 73 73 75 76
87 87 88 89 87 84 83 81 81 78 81 80 79 76 76 77 77 78 78 79 79 78 77 75 74 75 75 73 72 71 67 68 70 67 64 63 70 74 76 72 73 71 73
86 86 87 87 88 83 81 81 81 80 79 79 79 76 75 75 75 76 77 81 80 79 77 76 75 74 73 72 71 71 68 66 69 71 67 62 60 68 72 72 71 71 70
88 88 87 87 87 84 84 82 81 81 80 79 79 75 73 72 76 77 81 80 79 78 77 77 76 75 73 71 70 72 68 68 66 69 71 68 67 62 61 68 72 70 72
89 87 87 88 89 87 84 82 81 81 81 80 79 77 74 78 78 76 76 77 76 78 79 77 76 74 72 71 71 70 69 69 67 66 67 67 65 65 63 60 64 70 70
91 89 90 89 88 87 85 83 80 80 81 80 78 77 76 77 77 73 74 78 79 77 77 78 76 74 72 71 71 70 70 69 68 67 66 66 65 63 63 61 61 64 68
91 90 87 87 87 85 84 82 80 79 80 80 79 78 79 78 75 74 77 77 77 74 75 77 76 74 72 72 71 70 70 69 68 67 67 67 66 66 65 63 60 61 64
93 91 88 88 87 87 84 83 80 80 81 80 80 80 78 82 79 77 77 79 79 79 77 78 77 74 75 72 71 69 69 70 69 69 68 67 67 67 66 67 65 59 60
91 92 90 89 87 87 84 83 81 81 81 81 80 80 80 81 79 76 77 77 80 79 78 77 76 75 73 72 70 69 69 69 69 68 68 68 68 68 68 70 67 63 57
91 93 91 89 88 88 86 85 83 81 82 82 81 81 81 82 80 76 78 78 77 78 78 76 77 74 74 72 70 69 69 68 68 69 68 68 67 68 69 71 67 67 67
93 93 92 91 89 89 87 85 83 82 82 82 82 81 81 81 81 78 79 78 78 76 78 78 75 75 74 73 70 69 69 69 68 69 68 68 68 67 70 67 67 69 67
92 95 94 92 88 88 88 86 84 83 83 83 83 82 82 81 81 81 79 78 79 78 78 77 77 75 75 73 72 70 72 68 68 68 67 67 72 67 67 69 68 66 64
90 93 94 91 89 88 88 87 86 84 85 84 83 82 82 81 81 81 80 79 81 78 77 78 76 75 74 73 73 72 69 69 69 69 69 69 68 66 66 68 68 67 66
85 89 91 90 90 89 88 88 87 87 85 84 83 82 82 82 82 82 81 79 79 77 77 77 76 75 75 74 73 71 68 68 69 69 72 71 69 68 67 68 67 66 65
83 84 90 89 89 88 88 88 88 88 87 85 83 83 83 83 83 82 81 81 78 77 77 74 74 73 74 76 71 72 68 68 69 70 72 72 72 71 69 66 67 67 65
85 84 85 89 88 87 86 88 88 89 89 85 84 84 83 82 81 81 80 79 79 76 76 75 74 71 76 71 70 72 71 69 68 70 71 72 72 71 68 67 68 68 64
86 86 84 82 90 88 89 87 87 89 88 86 84 84 83 81 81 80 79 77 78 76 75 74 74 71 70 67 68 70 71 70 70 71 69 71 71 68 68 66 65 65 65
84 84 90 84 83 90 90 90 88 87 86 85 83 84 83 82 81 80 79 78 78 76 74 74 72 70 69 65 65 68 70 69 70 70 69 67 69 69 66 66 64 65 64
89 83 83 87 87 89 90 89 87 85 85 83 83 83 83 81 81 80 78 77 76 74 75 72 70 68 69 62 61 64 66 68 68 69 68 67 68 66 62 64 64 63 62
83 85 87 82 84 86 91 88 86 86 84 86 84 84 84 82 79 79 76 74 73 72 72 71 69 67 70 61 61 63 68 67 66 65 69 65 66 62 60 62 61 60 61
81 82 85 85 84 83 90 87 87 86 87 87 82 81 81 79 76 74 72 72 72 72 72 71 70 71 71 65 59 59 69 68 65 63 63 65 61 57 57 59 61 59 55
82 81 81 81 81 81 87 85 86 85 81 83 79 78 75 75 73 72 72 72 71 70 69 69 70 69 69 61 57 58 60 64 64 63 63 57 55 55 58 55 55 56 57
78 80 78 76 76 79 83 79 77 80 81 78 76 74 73 72 71 70 70 70 69 69 70 70 66 66 67 65 57 56 56 56 60 62 60 54 54 55 54 56 56 58 53
75 77 78 75 75 77 78 78 79 80 78 74 73 73 72 71 71 70 71 70 68 68 66 66 66 66 65 63 59 56 56 58 58 58 56 56 55 55 56 55 54 52 53
73 76 76 76 74 77 77 78 79 78 74 72 71 71 72 71 62 55 57 63 54 61 67 67 66 64 64 65 60 59 60 59 58 56 54 54 54 54 53 54 55 55 57
66 74 75 75 74 74 74 74 74 73 71 70 70 70 70 64 61 60 56 47 47 46 47 51 60 55 51 53 51 50 51 51 53 58 57 55 56 56 56 55 56 58 60

GFSMW_sfc_temp_012.txt.gz
Temp
85 85 85 87 85 82 81 80 80 79 78 75 74 72 73 73 74 75 76 76 76 76 75 73 73 73 71 71 72 70 68 67 68 67 67 68 72 70 70 70 70 72 73
84 83 85 84 84 80 80 80 80 79 79 78 79 75 73 73 75 76 75 76 76 76 75 73 73 73 72 72 71 69 65 66 66 65 62 62 69 73 70 68 71 70 71
82 83 84 84 84 80 80 80 78 79 79 79 77 73 73 73 73 73 73 75 77 77 75 74 73 72 72 70 70 68 67 65 66 67 65 60 59 65 70 67 68 69 67
84 84 84 84 83 82 82 81 79 78 79 78 78 77 76 74 77 73 75 76 80 77 76 75 74 72 71 70 70 70 66 66 65 66 69 65 65 61 61 67 66 67 70
85 84 84 86 87 85 82 82 80 78 78 78 79 77 75 77 73 73 74 74 75 77 76 75 74 72 70 70 69 67 66 66 65 65 65 64 63 62 61 59 63 66 66
86 86 87 87 86 87 84 82 79 79 78 78 78 77 77 75 74 71 71 73 75 75 76 76 74 72 70 69 68 68 67 66 67 65 64 64 64 62 61 58 59 62 66
86 86 85 85 85 84 83 81 79 78 79 78 78 78 77 76 74 71 73 75 75 72 75 75 73 71 70 69 68 67 67 66 66 66 65 64 64 64 62 61 59 60 62
88 87 86 85 86 84 82 80 78 78 79 78 78 78 78 79 77 73 73 76 78 79 77 76 74 71 71 70 68 67 67 67 66 66 65 65 65 64 64 63 61 58 58
88 89 87 87 86 84 82 80 78 80 79 79 79 78 78 79 78 73 76 77 78 79 76 76 74 73 72 71 68 67 67 67 66 65 65 65 65 65 65 65 65 62 56
90 91 90 88 87 87 84 82 80 80 80 80 80 79 79 79 78 75 75 76 77 77 76 75 75 74 72 71 68 66 67 66 66 66 65 64 65 65 65 65 64 64 64
89 91 91 89 88 87 84 82 80 80 80 80 80 80 79 80 79 76 76 76 77 77 76 75 75 74 72 71 69 67 67 66 66 66 66 66 65 65 64 64 64 63 63
89 89 91 89 87 85 84 82 81 81 81 81 80 80 79 79 79 78 78 76 77 77 77 76 75 74 74 72 70 68 70 66 66 66 65 65 69 67 64 67 64 64 62
83 84 88 87 86 85 84 83 82 82 82 82 80 80 79 78 78 79 80 77 77 76 76 76 75 75 73 73 72 70 68 68 67 67 66 66 68 66 64 64 63 63 65
85 87 87 87 86 85 85 83 83 83 83 82 81 79 79 79 79 80 79 79 78 75 75 76 76 75 74 72 72 70 69 68 68 67 67 67 68 67 66 65 65 65 63
82 85 87 87 84 84 85 84 84 83 83 82 81 80 80 80 79 79 79 79 78 77 76 75 75 75 73 73 71 71 69 69 66 66 67 67 70 70 69 66 64 63 64
81 84 88 87 85 85 84 85 84 83 83 81 81 81 80 80 79 79 78 78 75 75 74 74 73 71 73 70 68 71 69 68 68 66 66 68 71 70 69 67 66 67 65
80 82 87 88 88 87 86 84 84 84 83 82 81 81 80 79 78 79 78 76 77 73 73 72 72 71 72 66 66 67 71 67 68 66 66 68 70 67 68 65 64 64 65
79 85 86 88 89 90 87 87 86 84 82 82 81 81 80 79 79 78 77 76 77 74 74 72 73 71 71 64 64 66 69 68 67 67 67 68 67 66 65 64 64 64 63
81 80 82 82 82 88 87 86 85 84 83 82 81 81 80 79 78 77 77 76 76 75 74 73 71 71 70 61 61 64 68 69 66 66 67 68 67 63 61 65 62 62 62
80 81 82 77 83 87 89 86 84 84 83 83 83 82 81 80 78 78 77 76 75 75 73 71 71 68 69 59 60 63 67 66 65 66 67 63 64 60 59 63 62 61 61
80 79 75 79 80 84 86 84 84 83 85 86 85 82 82 80 78 76 76 75 74 73 72 69 67 68 68 66 59 58 69 67 66 66 64 66 60 57 55 57 60 60 58
79 80 75 74 80 81 85 84 83 86 86 85 82 80 80 78 76 75 74 73 72 71 70 68 67 67 67 62 57 57 61 62 67 65 63 61 54 52 55 57 57 54 57
72 73 74 73 71 73 85 84 85 85 81 80 79 78 77 76 75 73 72 70 70 69 67 67 65 64 65 63 57 56 56 59 65 64 59 53 50 52 54 55 55 55 52
65 67 69 70 72 73 76 83 81 82 81 77 75 75 73 72 72 71 71 69 68 67 67 66 65 65 65 62 59 57 56 56 59 58 56 55 56 55 55 54 53 52 51
63 63 62 62 62 73 74 76 79 78 76 73 73 72 70 70 65 58 64 67 64 67 67 66 66 65 64 63 58 57 59 59 56 54 54 53 52 52 52 52 52 51 51
62 61 60 60 62 61 67 75 75 75 72 71 70 69 65 62 61 59 55 48 47 48 52 55 63 56 56 50 48 47 47 48 50 55 53 52 52 52 52 52 52 53 55

GFSMW_sfc_temp_015.txt.gz
Temp
79 81 82 83 82 81 79 78 78 78 77 75 73 71 73 71 72 73 75 75 75 75 73 72 72 71 71 70 70 69 67 65 65 65 65 67 69 68 67 68 69 71 71
77 80 81 82 82 80 79 78 79 78 78 78 78 76 72 72 73 74 74 74 75 74 74 72 72 71 71 70 69 68 64 64 65 63 61 60 66 70 67 66 69 68 69
76 78 80 81 82 80 78 78 78 79 78 79 77 71 71 71 71 71 72 74 75 75 74 73 72 71 71 69 68 68 66 64 65 65 63 59 58 61 68 66 66 66 66
81 80 81 80 81 80 80 79 79 79 78 78 77 77 75 74 74 72 72 74 75 76 75 74 72 71 70 69 69 69 65 64 64 65 66 63 63 60 58 63 64 64 67
82 81 81 83 83 82 80 80 79 79 79 77 78 77 76 76 71 71 72 72 73 75 76 74 72 71 69 69 69 66 65 65 64 64 63 62 61 61 60 58 62 64 64
82 83 84 84 82 83 81 79 77 77 78 77 78 77 76 73 70 69 72 71 71 73 74 74 73 71 69 69 68 67 65 65 65 64 63 63 62 60 60 57 58 60 64
83 83 82 83 83 81 80 79 77 76 78 77 77 77 77 75 73 72 72 70 71 71 72 73 72 71 69 69 68 65 65 65 65 64 64 63 63 62 60 60 57 59 60
84 84 84 83 84 83 80 79 77 76 77 76 77 77 78 77 77 74 75 74 74 74 75 75 74 71 70 69 67 65 65 65 65 64 63 63 63 62 62 62 60 57 56
85 85 85 85 84 83 81 79 78 78 78 77 77 77 77 77 76 72 75 75 75 76 74 75 74 72 71 69 67 65 65 65 64 64 64 63 63 63 63 62 62 62 56
84 86 86 86 86 86 84 81 80 79 80 79 79 78 77 77 77 74 74 75 75 75 74 74 74 72 70 69 67 65 65 65 64 64 63 62 62 63 63 62 62 61 61
84 86 87 87 87 86 84 81 80 80 80 80 80 79 78 78 77 75 75 75 75 75 75 75 74 72 71 70 68 67 65 65 65 65 64 63 63 63 63 62 61 60 61
85 87 88 88 86 85 84 81 81 80 81 81 80 79 79 78 77 76 76 76 75 74 75 74 74 72 72 71 69 68 69 66 64 64 64 64 67 63 63 63 63 62 60
83 85 88 84 85 84 83 81 81 81 82 81 80 79 78 77 77 77 78 75 76 74 75 74 73 72 71 71 71 70 69 68 67 65 64 64 64 62 62 62 62 61 62
81 81 79 82 83 84 83 81 81 82 82 81 80 78 78 77 78 79 78 78 76 74 74 74 74 73 72 71 70 69 68 69 67 67 67 65 65 63 63 63 62 62 61
78 82 82 83 82 82 83 81 81 81 82 80 79 79 79 79 78 78 78 78 75 75 75 74 74 74 73 72 70 69 68 67 67 66 66 65 67 68 67 64 63 62 61
78 80 88 88 84 84 82 82 81 81 82 80 79 80 79 78 77 77 76 76 75 75 73 73 73 71 73 69 68 70 68 67 67 65 65 66 69 68 67 67 66 65 62
77 80 80 83 84 84 84 82 81 82 80 80 80 79 79 77 77 77 76 75 74 74 71 72 72 71 71 67 66 67 68 67 67 68 66 66 68 67 67 65 64 64 63
76 76 81 84 85 85 85 85 83 81 79 79 79 79 78 78 77 76 76 75 75 74 71 72 72 71 71 63 63 66 68 68 68 68 67 65 65 65 67 65 64 63 63
76 77 81 83 84 85 85 84 82 81 79 78 79 79 79 78 77 76 76 77 76 73 72 72 71 71 71 61 61 64 68 67 67 68 65 65 65 63 61 64 62 62 63
73 75 75 76 77 82 85 83 81 80 78 80 80 80 80 78 77 77 77 77 76 74 73 73 72 70 71 59 59 63 68 67 65 63 64 63 66 59 58 64 62 60 62
74 73 73 72 78 78 80 80 80 80 82 82 82 81 80 79 79 76 76 75 75 75 74 73 73 72 69 60 57 60 67 66 63 63 63 65 58 55 54 57 62 61 59
67 69 69 67 66 71 74 80 80 83 83 83 81 79 80 79 77 75 75 75 75 75 74 72 68 69 66 60 57 57 61 63 65 63 64 64 56 52 51 54 55 54 56
63 65 64 63 64 69 67 72 80 82 83 82 81 80 79 78 76 74 74 75 75 74 72 69 67 66 66 65 56 55 56 60 65 65 61 53 50 50 53 55 54 54 53
63 63 65 63 62 62 66 67 70 75 76 80 80 79 78 77 76 75 76 74 73 72 69 68 66 65 65 63 58 56 58 58 62 57 55 55 54 54 55 53 53 52 51
60 60 60 60 61 62 63 65 64 66 73 73 71 71 73 74 71 62 69 72 69 68 68 67 67 65 64 64 58 56 58 60 57 56 54 54 53 52 52 51 51 51 50
60 60 60 60 60 61 65 64 65 67 68 71 72 72 72 64 62 60 58 50 54 55 54 55 62 62 56 49 49 48 48 48 50 55 54 53 53 53 51 51 51 51 53

GFSMW_sfc_temp_018.txt.gz
Temp
77 78 79 80 79 77 76 75 75 75 75 73 72 72 73 73 74 74 75 75 75 76 75 74 74 74 73 73 73 72 72 70 70 70 71 71 72 71 71 74 75 76 76
75 76 78 79 79 77 76 75 75 75 75 76 75 74 74 73 74 75 75 76 76 76 76 74 73 74 73 72 72 71 69 69 69 68 66 66 71 73 72 72 73 73 75
74 75 76 78 79 77 76 76 75 76 76 76 75 72 72 72 72 73 74 75 76 76 75 74 74 73 73 73 72 70 70 68 69 69 68 63 64 67 70 71 71 71 72
77 77 77 77 78 78 78 77 76 76 76 76 75 74 75 73 76 74 74 75 76 76 76 75 74 74 73 72 72 71 69 69 69 68 69 68 68 66 65 69 71 71 72
78 77 78 79 80 80 79 78 76 76 76 76 76 75 74 76 73 72 73 74 74 76 76 75 74 74 73 73 71 69 68 69 69 69 68 67 67 66 66 65 68 69 71
80 80 80 80 80 81 80 78 76 75 76 75 76 75 74 73 72 71 72 73 74 75 75 75 75 74 73 72 71 70 69 68 68 69 69 69 68 67 66 65 65 67 70
80 80 79 79 80 79 78 78 76 74 76 75 75 75 75 74 73 73 74 72 72 73 74 74 74 73 72 72 71 69 69 69 68 68 69 69 69 68 67 67 65 66 67
81 81 81 80 80 80 78 77 76 74 76 75 75 76 76 76 76 75 75 75 75 76 75 75 75 74 73 72 71 70 69 69 69 68 68 69 68 68 68 67 66 65 65
81 81 83 83 81 80 79 77 76 75 76 76 76 75 76 76 76 76 75 76 75 76 75 75 74 74 73 72 70 70 69 69 69 68 68 69 69 69 68 68 68 67 64
82 83 83 83 83 83 81 80 78 76 77 77 77 77 76 76 77 76 74 74 75 76 75 75 75 74 73 72 70 69 69 68 68 69 67 67 68 68 68 69 68 67 68
81 83 84 85 85 85 83 80 79 78 77 77 77 77 77 77 77 76 75 75 75 75 75 75 74 73 72 71 70 69 69 69 68 68 67 67 67 68 68 68 68 67 67
79 82 84 85 84 83 84 82 80 80 79 78 77 77 77 77 76 75 76 75 74 75 75 75 74 74 73 72 71 70 71 69 68 68 67 68 69 67 67 68 67 67 66
74 77 81 82 83 83 82 83 81 81 81 80 78 77 77 77 76 76 77 75 75 74 75 75 74 73 73 72 72 71 71 70 70 69 68 68 68 67 68 66 66 67 67
72 72 76 81 82 82 81 80 81 82 81 81 79 77 77 77 77 77 76 75 75 74 74 74 74 74 74 73 72 71 70 71 70 69 69 68 68 67 67 67 66 66 65
72 71 74 77 77 79 80 80 80 80 81 79 79 78 78 78 77 76 76 76 75 75 75 74 74 74 74 74 71 71 70 70 69 68 69 68 69 68 68 67 66 66 65
74 73 74 75 75 78 78 80 79 79 80 78 78 78 77 76 76 76 76 75 74 75 74 74 74 73 75 70 67 71 70 70 69 68 67 69 68 68 66 66 67 67 66
73 73 74 76 79 80 80 80 80 80 78 77 77 77 77 76 76 76 75 74 74 74 73 74 74 73 74 66 66 68 71 70 69 69 68 67 69 67 69 65 65 65 65
72 73 77 78 77 81 83 81 79 77 76 76 76 77 76 76 76 75 75 75 75 74 73 74 73 73 73 64 63 66 72 70 69 69 69 69 69 68 69 69 68 67 67
72 74 75 75 76 77 81 79 78 77 76 76 76 76 77 76 76 75 75 76 75 74 73 73 72 72 72 62 61 65 71 69 68 69 69 69 69 63 62 68 67 67 66
71 72 73 73 73 74 76 77 77 76 75 77 77 78 77 77 76 76 76 76 76 74 75 73 73 71 73 59 59 65 70 67 67 68 68 63 67 59 59 68 67 64 64
68 67 67 67 69 73 75 73 74 75 78 79 79 78 78 77 77 76 77 76 75 75 74 73 73 73 72 66 57 60 69 69 67 66 65 67 59 56 55 59 66 65 65
67 69 67 67 68 69 72 72 72 75 78 77 77 77 77 79 79 76 75 75 76 75 73 73 73 73 72 61 56 58 63 64 68 66 66 65 55 53 53 56 57 54 60
63 65 65 64 65 68 69 68 68 71 75 75 74 76 77 78 77 75 75 75 76 75 72 71 72 70 66 63 56 56 59 60 65 67 64 55 50 50 53 54 54 55 63
62 64 63 62 62 64 66 66 69 71 72 71 72 74 75 76 77 77 77 77 74 74 73 72 70 68 66 64 63 63 61 59 61 58 58 56 56 56 58 57 57 61 62
60 61 60 60 61 64 65 67 67 67 69 71 70 71 74 73 75 74 74 75 76 74 73 72 69 67 65 64 58 59 62 64 59 58 59 59 59 59 59 59 58 59 59
62 63 63 64 63 64 64 64 64 64 65 68 69 69 71 72 73 65 60 51 57 53 53 55 63 64 56 52 53 51 49 49 51 61 61 60 60 60 59 58 58 58 58

GFSMW_sfc_temp_021.txt.gz
Temp
84 85 84 86 85 84 82 81 80 80 81 81 81 81 81 83 84 86 84 84 84 84 83 86 83 83 84 83 82 83 80 83 83 83 83 83 84 84 86 88 88 87 88
83 83 84 85 84 83 82 81 80 80 80 82 82 84 83 85 86 86 85 85 85 84 84 84 84 83 84 81 81 80 82 83 83 82 82 79 81 85 86 86 86 84 88
82 82 82 84 84 83 81 81 81 81 81 82 82 82 83 83 83 84 85 85 85 84 84 84 84 83 83 84 81 81 80 82 81 79 82 77 77 81 84 81 86 83 87
84 84 83 83 84 84 84 83 82 81 82 82 82 80 81 81 84 85 86 86 85 85 85 84 84 83 85 83 82 82 81 80 80 80 81 80 80 79 77 82 83 84 85
85 84 84 84 86 86 84 83 82 81 82 81 82 81 81 84 86 86 83 83 84 85 86 84 83 83 84 83 81 79 78 81 82 82 80 79 81 79 79 78 79 82 84
86 86 86 86 86 87 86 85 81 80 81 81 81 80 81 82 83 82 83 85 86 86 84 84 83 83 84 82 82 80 79 79 80 82 81 82 81 79 79 78 77 79 82
86 86 85 85 85 85 84 84 81 79 81 81 81 81 81 81 81 82 83 84 85 86 85 83 83 84 82 83 83 79 79 79 79 78 82 82 82 83 82 80 79 79 81
88 87 88 86 85 85 84 84 82 80 81 81 80 81 81 84 84 84 86 85 86 86 86 84 84 84 83 83 82 82 82 80 80 78 79 82 82 82 82 81 79 76 78
88 88 89 89 86 86 84 83 82 81 82 82 81 81 81 81 83 83 83 86 85 88 85 85 84 84 83 82 81 83 79 79 79 79 78 80 82 81 82 81 82 79 76
90 90 90 90 89 88 88 86 84 82 82 83 83 83 82 82 83 83 82 84 85 84 85 84 84 84 83 82 80 82 80 78 80 81 77 77 81 81 81 81 81 80 80
90 91 91 91 91 90 89 88 85 83 83 83 83 82 83 83 83 83 83 83 84 83 83 83 83 83 83 82 80 81 81 78 78 78 77 77 78 81 81 81 81 80 79
90 91 93 92 91 90 89 89 87 86 85 84 82 82 83 83 83 82 83 83 82 83 84 84 83 83 83 82 80 80 81 78 78 78 77 77 79 76 77 80 77 79 78
86 88 92 91 90 90 89 90 88 89 89 85 84 83 83 83 82 82 83 83 83 82 84 84 83 83 83 81 81 81 81 79 80 79 77 76 75 74 79 78 78 79 77
87 87 87 88 89 89 87 87 89 90 89 87 85 82 82 83 83 83 82 83 83 82 83 83 83 83 83 82 82 81 81 80 80 80 79 78 76 76 74 76 75 76 76
87 86 85 84 84 86 86 86 88 88 89 85 84 83 83 83 83 82 82 83 82 82 83 82 83 83 84 85 82 81 81 80 79 79 79 78 77 72 74 78 75 75 75
86 88 88 86 84 85 85 86 86 87 86 84 83 83 82 82 81 81 81 81 81 82 82 82 82 82 85 75 70 78 81 80 79 78 77 78 71 71 67 68 70 75 74
89 89 88 88 86 86 86 85 85 87 84 81 83 83 82 81 81 81 81 80 80 81 80 81 82 81 82 68 67 69 83 81 80 79 78 77 79 73 76 66 66 67 67
88 88 91 90 87 90 92 89 88 83 82 82 82 83 81 81 81 80 80 80 81 80 81 81 81 81 82 66 65 68 79 81 81 79 79 77 77 76 75 76 75 75 75
89 88 90 90 86 87 88 87 86 84 83 82 81 82 82 81 81 80 79 81 81 81 81 82 80 80 81 64 63 67 79 80 79 79 79 78 77 69 64 71 75 75 76
88 86 87 87 86 85 89 86 85 84 82 83 83 83 83 82 81 81 80 81 81 81 83 82 81 76 81 63 60 66 83 79 77 76 77 65 73 59 60 71 75 74 76
83 84 84 84 83 84 86 83 85 83 85 86 85 83 83 81 82 81 81 81 81 81 80 80 81 81 79 79 59 59 80 81 74 75 73 74 59 56 56 61 77 75 76
79 81 80 80 81 82 84 82 81 84 84 84 84 82 82 84 84 81 81 81 80 78 78 78 79 80 81 66 57 57 66 70 77 75 71 71 56 54 55 60 61 57 66
76 79 79 76 77 80 82 79 79 82 83 82 82 82 82 83 83 81 80 81 79 78 77 75 75 73 74 75 56 57 60 62 72 70 66 59 54 54 55 56 55 58 76
75 77 77 76 74 76 77 77 77 79 81 81 81 82 81 81 83 84 84 83 81 77 80 76 74 73 72 69 63 63 64 59 63 62 61 59 59 61 66 60 61 75 76
72 74 74 74 72 74 74 75 75 76 78 79 80 81 83 81 83 83 85 84 84 82 82 81 77 73 67 65 60 62 64 63 59 60 61 61 63 66 69 69 71 71 71
69 70 71 71 70 72 71 72 72 73 74 75 79 81 83 84 84 84 77 54 53 56 57 57 68 68 59 51 51 52 52 51 53 62 61 61 63 66 68 68 69 69 67

GFSMW_sfc_temp_024.txt.gz
Temp
92 93 92 93 93 92 89 87 86 86 87 87 87 88 89 90 91 93 91 90 90 90 89 92 90 90 89 87 86 87 85 89 90 88 89 89 90 91 93 95 94 92 94
92 91 92 93 93 91 89 87 86 85 86 89 88 91 90 92 93 93 91 91 91 90 90 87 87 89 88 85 85 83 90 90 90 88 89 83 86 90 94 94 93 91 94
91 91 91 91 92 90 88 87 85 85 85 88 89 88 90 90 90 91 92 91 91 91 89 89 89 87 89 84 86 86 85 89 88 86 87 83 83 86 89 87 92 89 92
94 93 92 91 92 91 91 88 87 86 86 86 88 85 87 87 91 91 93 93 91 91 91 90 89 87 91 89 86 89 87 85 86 87 88 85 84 84 81 88 88 89 90
95 94 93 93 94 93 92 90 87 86 87 86 87 87 86 91 93 93 90 88 90 90 92 90 89 88 87 89 87 86 84 88 88 88 87 84 87 85 84 79 84 87 90
96 96 96 95 94 95 93 91 87 85 86 86 85 86 86 87 91 90 91 92 92 92 90 91 89 89 89 88 88 86 85 85 86 89 88 88 86 86 85 84 83 85 87
96 96 94 94 93 92 92 91 88 84 86 86 86 85 86 86 87 88 89 90 92 93 91 88 88 89 88 89 88 85 86 85 85 83 89 90 89 90 89 87 87 85 88
98 97 96 94 93 92 92 91 89 85 86 86 85 86 86 89 90 90 92 92 94 94 92 90 89 89 89 89 88 88 88 87 85 83 84 90 90 90 89 87 86 82 84
98 97 98 97 94 93 92 91 89 87 87 87 87 86 86 87 89 89 90 93 92 95 92 91 88 89 89 88 87 89 86 87 85 85 83 86 91 90 91 90 89 85 81
98 99 99 99 98 97 95 92 91 88 89 89 88 88 88 87 88 90 88 90 92 91 92 89 89 89 89 88 86 88 87 85 87 88 84 83 90 89 90 89 89 88 85
101 101 101 101 101 100 97 95 92 90 90 90 89 89 89 89 88 89 89 89 90 90 89 89 88 89 88 88 86 87 89 84 84 85 85 82 85 89 89 89 89 87 87
103 103 104 103 101 99 99 98 95 93 92 92 89 89 89 89 89 88 89 89 88 90 89 89 88 88 89 88 86 85 88 85 84 84 83 83 85 81 84 87 84 85 85
98 100 103 102 101 100 97 98 98 98 97 93 91 90 89 89 89 88 88 89 88 88 90 89 88 88 88 88 87 87 87 87 85 85 84 83 83 80 85 83 86 86 84
96 98 99 100 101 100 97 96 98 100 98 97 93 90 89 89 90 89 88 89 88 88 88 89 89 89 89 89 89 87 87 87 87 86 86 85 83 81 80 82 81 83 83
95 96 96 97 96 97 96 95 96 98 98 95 94 91 90 90 89 88 88 88 88 88 88 88 89 89 90 92 89 88 87 87 87 87 87 86 82 76 78 84 81 81 80
95 98 99 96 96 96 94 95 95 96 95 94 92 92 89 88 87 87 87 87 87 87 87 87 88 88 92 80 74 83 89 87 86 85 86 86 76 75 70 71 72 79 79
95 96 99 100 99 101 97 95 94 95 93 91 91 90 88 87 86 87 86 85 85 87 86 87 87 87 88 73 71 73 89 88 87 86 86 86 88 77 81 69 68 69 69
96 97 102 103 103 104 107 100 98 92 91 89 89 89 86 87 87 86 85 85 86 85 85 86 86 87 88 70 67 71 85 88 88 87 86 85 85 82 80 80 77 77 79
98 100 103 102 101 100 101 99 96 92 90 89 87 88 88 86 86 85 85 86 86 86 86 86 85 85 86 67 64 69 85 86 87 87 87 86 84 74 67 80 78 77 76
99 98 100 100 99 96 99 96 95 93 89 90 89 89 88 87 86 86 85 86 86 86 88 87 87 81 86 68 62 69 88 85 88 86 85 69 81 65 62 77 80 76 77
95 96 95 94 95 96 96 93 94 92 92 92 91 89 89 87 87 86 86 85 85 87 85 86 87 87 84 85 59 61 85 91 88 90 87 86 64 56 58 64 76 75 79
93 92 90 91 93 92 92 90 89 93 92 91 90 89 88 89 90 86 86 85 85 83 84 84 86 89 87 71 59 59 67 76 91 89 91 83 58 55 55 60 62 59 64
89 92 92 89 88 89 90 88 88 90 89 88 87 87 87 87 88 86 84 85 84 86 85 87 86 89 92 89 63 57 60 64 83 93 81 63 55 53 56 58 58 59 73
85 88 87 84 82 85 88 87 86 87 87 86 86 87 86 85 87 90 89 88 89 86 87 88 88 89 89 90 87 71 67 64 69 62 64 61 59 60 62 59 61 71 74
82 83 83 82 80 81 81 82 83 85 86 86 87 87 89 87 87 87 91 91 91 89 90 89 91 87 87 82 70 65 66 68 64 61 62 62 64 63 64 65 65 68 68
75 75 75 76 78 79 79 80 80 81 82 84 87 90 92 93 92 91 89 55 59 53 51 51 72 90 72 55 52 52 53 52 52 63 64 64 65 65 65 65 65 67 69

GFSMW_sfc_temp_027.txt.gz
Temp
97 98 97 98 97 95 93 91 90 89 90 90 89 90 91 92 93 96 94 93 92 91 90 90 89 91 88 89 87 89 87 90 91 89 90 89 91 93 94 96 95 93 95
96 96 96 97 96 94 93 90 89 88 88 91 90 92 92 94 94 95 93 93 92 91 89 87 91 91 87 87 87 86 81 90 91 86 88 79 86 91 94 93 93 92 95
96 94 94 95 96 93 92 90 88 88 88 90 91 91 92 93 92 93 93 92 92 92 91 89 90 91 90 84 87 87 86 79 89 88 86 82 73 84 88 88 92 90 92
98 96 95 94 96 95 94 91 89 88 88 88 89 86 88 88 92 92 94 94 92 92 93 90 90 88 91 81 86 89 88 86 86 88 90 87 84 76 76 86 90 90 90
100 98 96 96 97 97 95 93 89 87 88 87 87 89 87 92 94 95 91 90 90 91 93 92 89 88 89 89 86 87 86 89 88 89 88 86 88 87 81 78 79 88 91
101 100 99 98 97 98 96 94 88 86 87 87 86 87 86 88 92 91 93 93 94 92 91 93 90 89 90 90 88 87 87 85 88 90 90 88 86 86 85 84 83 85 85
102 100 98 97 96 96 95 94 89 86 87 88 87 86 88 87 89 91 92 91 94 95 91 90 88 90 89 90 90 87 88 86 86 85 89 91 91 91 90 88 87 86 89
104 102 99 98 97 96 95 94 90 86 87 88 86 86 88 91 91 91 94 94 95 96 95 90 91 90 90 89 90 90 89 88 87 85 84 90 91 92 90 88 86 83 85
103 101 101 100 98 97 95 93 91 88 88 89 88 87 87 88 91 90 90 95 92 97 96 93 90 91 90 90 89 90 88 89 87 86 85 86 92 93 92 91 90 85 81
103 103 103 101 101 100 99 96 94 90 89 90 89 89 89 88 89 91 90 90 93 93 95 92 92 90 90 90 88 90 89 87 89 89 86 85 90 92 91 91 90 89 86
104 104 103 104 103 102 100 98 96 93 91 90 90 89 90 90 89 90 91 90 92 92 91 91 90 90 89 89 88 88 90 87 86 87 87 84 85 90 92 91 90 89 88
105 105 105 105 104 102 101 100 98 96 94 92 90 90 90 90 90 89 90 90 90 91 91 91 90 90 90 89 88 87 90 89 86 86 86 85 86 83 85 90 85 86 88
104 106 106 105 105 104 102 102 101 99 99 94 93 92 91 91 90 89 90 90 89 90 92 90 89 89 89 89 89 88 88 89 88 87 86 85 84 82 85 84 87 87 86
101 104 106 106 106 104 102 102 103 103 101 99 96 92 91 91 92 91 89 90 90 89 89 90 90 89 90 90 90 88 88 88 89 88 88 86 85 83 82 84 82 84 85
99 100 101 102 103 103 102 100 102 103 103 99 98 94 92 92 91 90 90 90 90 89 89 89 90 90 91 93 89 89 88 87 87 88 88 88 85 78 80 84 82 81 82
98 100 101 100 100 101 101 101 99 100 101 98 97 95 92 90 90 89 89 89 88 88 88 88 88 89 93 81 75 84 89 88 87 86 88 88 79 76 72 72 73 80 80
98 99 100 103 102 102 101 100 99 99 97 95 96 93 92 90 89 90 89 87 87 88 87 88 88 88 89 74 72 73 90 89 88 87 87 88 91 80 83 71 71 69 71
98 100 104 104 105 108 110 104 103 96 95 94 93 93 91 90 89 88 87 87 88 87 87 87 88 87 89 73 68 72 87 88 88 88 87 87 87 84 83 82 79 80 80
100 102 105 106 105 106 107 106 102 99 95 93 92 92 92 90 89 87 86 88 87 87 87 88 87 86 87 69 66 69 87 87 86 89 88 88 87 77 70 82 80 79 79
101 101 104 105 105 104 106 104 102 100 94 93 93 92 92 90 89 88 87 88 88 88 90 88 88 82 87 70 64 68 90 86 88 86 87 72 84 67 65 80 80 78 77
93 97 98 97 98 100 102 98 100 99 99 97 95 92 91 89 89 88 88 87 87 88 86 87 88 88 86 85 62 61 86 90 89 90 89 91 67 61 61 68 80 77 78
93 96 95 96 96 97 98 95 93 98 98 96 93 91 90 91 92 87 87 87 86 85 85 85 87 91 88 72 65 59 66 78 89 89 92 90 62 57 58 64 68 61 69
91 95 95 95 95 94 93 91 93 95 95 93 91 91 90 90 90 88 86 88 86 87 87 88 88 89 93 91 64 58 60 65 81 91 85 75 57 57 58 61 59 60 79
88 91 91 91 88 89 92 92 91 92 91 90 89 90 89 88 89 91 91 90 90 89 88 90 90 91 93 94 95 80 70 62 70 76 83 69 67 66 73 63 63 74 75
85 87 87 86 84 84 84 86 86 88 89 88 89 88 90 88 89 89 92 93 92 89 93 92 93 93 93 94 82 84 89 82 73 72 71 68 66 66 65 66 66 69 71
76 77 80 82 82 82 80 82 84 85 87 87 90 92 95 93 91 92 90 69 65 58 54 50 65 87 67 56 53 51 55 55 55 69 67 66 66 65 64 65 65 68 67

GFSMW_sfc_temp_030.txt.gz
Temp
94 95 95 97 95 92 88 87 86 85 85 85 84 84 84 86 87 89 89 86 87 87 86 83 76 82 79 82 84 83 83 81 83 79 79 79 83 85 84 83 84 84 83
94 93 94 95 95 90 88 85 85 85 85 85 84 85 85 88 87 88 88 87 87 85 85 84 82 83 81 82 83 82 78 80 81 77 75 72 76 81 85 82 83 83 83
93 92 92 94 94 89 87 85 85 85 84 85 86 85 86 86 85 86 87 87 87 86 84 84 84 83 81 80 82 82 81 77 80 82 77 71 70 75 79 81 81 82 79
95 94 93 92 93 91 90 86 85 85 85 85 85 83 83 83 85 85 86 86 86 87 87 85 84 84 81 80 80 84 82 80 77 79 82 80 77 71 71 77 78 81 83
97 94 94 93 95 93 91 88 85 84 84 84 84 84 82 86 87 87 85 84 84 86 88 85 85 84 84 81 80 83 82 82 80 78 78 79 78 79 74 71 74 78 79
98 96 95 94 94 95 92 89 84 83 84 83 83 83 82 83 85 84 85 86 86 86 86 87 84 84 83 82 81 82 83 81 81 81 80 77 76 76 75 73 74 74 77
99 96 93 93 92 92 90 89 84 81 83 83 83 82 83 82 83 83 85 85 86 87 84 85 83 83 83 83 83 82 82 82 81 81 79 80 80 81 79 76 74 74 76
102 99 95 94 92 92 90 88 85 82 83 84 82 82 83 85 85 86 88 87 88 87 86 85 85 85 84 84 84 83 83 82 81 81 79 78 80 82 80 78 75 72 74
102 99 98 96 93 92 90 88 85 83 84 84 83 82 82 84 84 84 86 88 86 91 88 85 85 84 85 84 83 84 82 83 81 80 80 79 79 81 81 80 78 75 70
101 101 99 97 95 95 93 91 88 84 84 85 85 85 83 84 85 85 84 85 87 86 89 85 85 85 85 85 83 83 83 81 83 82 79 78 78 79 81 80 79 78 75
101 102 101 100 97 97 95 93 90 87 86 85 85 85 85 84 84 85 85 86 86 87 86 86 85 84 84 84 83 82 83 82 81 82 80 78 78 79 79 80 79 77 77
101 103 102 101 99 96 96 94 93 91 88 87 85 85 85 85 85 84 85 86 86 86 86 86 85 85 84 84 83 82 84 82 81 81 81 79 81 77 78 79 77 77 78
101 102 103 101 99 98 96 96 94 94 93 88 88 87 86 85 85 84 85 86 85 86 87 87 85 84 85 83 84 83 83 83 83 82 80 80 79 77 78 77 78 77 78
98 100 101 99 100 98 95 95 96 97 95 93 90 86 86 86 86 86 85 85 86 84 86 86 85 86 85 85 85 84 83 83 84 83 82 81 80 78 77 77 75 77 76
99 99 100 95 95 95 94 95 97 95 97 92 90 88 87 87 86 85 85 85 85 86 85 85 86 85 86 88 84 84 83 83 82 83 84 83 81 77 77 79 77 75 75
97 99 100 100 99 97 95 95 95 97 96 91 91 89 87 86 86 85 85 85 85 85 85 84 85 85 88 79 75 82 84 83 82 81 83 83 78 76 73 72 74 76 74
96 97 99 99 98 99 97 95 94 96 94 91 91 90 87 86 85 86 85 84 84 85 84 84 85 84 85 74 72 74 86 84 83 82 82 84 87 78 79 71 72 70 71
96 97 100 98 97 103 104 99 98 92 91 90 89 90 88 86 86 85 85 84 85 84 84 84 84 84 85 72 68 71 83 84 84 83 83 82 83 82 80 78 76 76 75
96 97 101 100 96 98 98 96 95 92 91 90 88 89 89 87 86 85 84 85 85 84 85 85 84 83 84 68 66 68 82 83 83 84 84 83 82 77 69 78 75 75 76
92 92 94 96 100 101 102 99 95 93 89 90 89 90 88 87 86 86 84 85 85 85 86 85 85 80 84 70 63 67 84 82 84 83 83 72 81 70 64 78 77 74 75
91 93 92 90 93 93 94 91 95 92 93 92 92 89 88 87 86 86 85 85 85 85 84 84 85 85 83 83 62 60 82 84 84 84 84 85 66 64 60 68 79 77 77
90 93 92 91 94 95 92 88 89 93 94 92 89 88 88 89 90 85 85 85 84 82 82 82 83 86 85 70 66 59 62 76 83 83 86 85 65 60 58 63 71 62 68
90 91 90 90 93 93 91 88 88 92 93 92 88 88 88 87 86 85 84 84 83 83 82 83 83 84 86 87 64 59 59 61 74 85 80 61 58 58 59 60 64 61 74
85 86 86 88 86 87 88 89 90 92 92 91 88 88 87 85 86 88 87 86 85 84 83 84 84 85 86 87 88 79 68 62 67 72 77 75 72 64 68 66 64 73 74
79 81 83 86 83 83 83 85 85 86 88 89 88 87 88 85 86 86 87 86 86 84 87 86 86 85 85 72 57 61 75 78 73 75 80 78 76 77 70 72 70 72 74
78 78 80 83 79 79 79 82 84 85 85 86 87 88 89 88 87 86 85 69 63 56 49 50 63 74 55 48 46 47 50 51 54 70 76 74 74 71 72 71 69 70 71

GFSMW_sfc_temp_033.txt.gz
Temp
87 88 89 90 88 85 83 82 80 79 80 78 77 76 76 76 77 79 80 79 79 80 78 76 74 76 74 75 77 75 74 73 74 71 71 72 76 79 77 79 75 78 78
85 87 88 89 87 84 83 82 79 79 80 81 80 76 76 77 79 79 78 80 80 79 79 77 75 76 74 75 75 75 72 72 73 71 72 68 71 73 76 74 76 74 76
85 85 87 87 86 82 82 81 81 79 80 80 80 76 76 76 76 77 76 79 80 80 78 78 76 76 75 74 75 75 73 70 72 74 70 64 64 67 75 73 75 74 72
87 86 87 86 86 83 84 82 82 80 81 80 80 80 80 78 75 77 77 79 80 80 79 78 77 77 74 75 74 77 74 72 70 71 76 72 72 64 65 70 72 74 75
86 86 87 88 88 85 83 82 81 80 81 81 82 79 77 75 76 76 77 76 77 79 81 79 78 77 75 75 74 75 74 74 72 70 70 70 71 71 67 64 70 71 72
88 84 88 89 88 86 84 82 81 80 81 81 79 79 77 76 74 74 76 75 79 79 79 80 79 77 76 75 75 75 75 74 74 72 71 71 70 69 68 66 66 68 71
84 83 86 86 87 84 84 82 80 79 80 80 81 76 77 77 75 75 75 75 77 79 78 78 78 77 76 76 76 75 75 74 73 73 72 71 72 73 71 69 67 67 69
82 87 87 87 87 86 84 82 80 80 80 80 80 81 77 79 81 76 78 76 80 80 81 80 80 78 78 77 76 76 75 75 74 74 72 71 72 72 73 72 69 65 66
90 88 88 88 88 86 85 83 80 80 80 80 80 80 80 77 81 81 77 80 78 82 81 82 79 79 79 78 76 78 75 75 74 73 73 71 72 72 73 74 72 69 63
88 90 89 89 88 89 87 85 82 80 80 81 81 80 81 81 80 80 80 78 81 79 81 81 81 80 80 79 78 76 76 75 75 75 73 72 71 72 72 73 73 71 68
91 90 89 90 89 90 87 85 83 81 80 80 81 81 80 81 81 80 79 78 78 79 77 80 80 80 80 79 78 76 75 75 74 75 74 73 72 71 71 72 72 71 70
92 91 90 90 89 89 88 86 84 82 81 82 81 81 81 80 81 80 79 82 77 80 79 80 80 80 80 80 78 77 80 76 75 75 74 74 76 71 70 71 71 72 70
91 92 91 90 89 89 89 87 87 84 83 82 81 81 81 81 79 81 82 77 81 80 82 78 80 80 80 79 80 79 79 77 76 77 76 76 74 73 75 70 70 70 72
90 92 92 91 90 90 89 88 88 88 85 84 82 81 81 81 82 81 81 82 81 81 81 81 80 81 81 81 81 80 79 79 79 76 78 78 75 76 76 74 72 70 70
87 91 91 91 90 89 89 89 89 89 89 85 84 82 83 83 83 82 82 81 82 82 82 81 82 81 82 83 81 81 80 79 79 79 78 79 79 75 76 77 75 72 69
82 86 90 91 91 91 89 90 89 89 90 87 84 85 83 83 82 82 82 81 81 82 82 81 82 81 83 76 73 79 81 80 79 78 79 80 75 75 71 71 73 76 76
83 83 84 83 83 89 91 89 90 91 90 88 87 85 84 82 82 82 82 81 81 82 81 82 81 82 82 71 70 72 83 81 81 80 80 80 83 75 78 70 70 71 71
81 81 82 84 83 83 91 92 91 88 88 87 86 86 84 82 82 82 82 82 83 82 82 81 82 81 82 70 68 69 81 82 82 81 81 81 80 81 78 77 74 75 75
77 78 79 79 80 82 83 88 86 87 85 87 85 85 84 83 82 82 82 83 83 83 83 82 82 81 82 66 65 67 78 81 82 82 82 81 81 75 67 77 75 74 76
79 80 81 80 80 80 81 81 84 88 86 85 83 84 86 84 83 83 83 84 84 83 84 83 83 78 82 68 62 66 80 80 81 82 83 71 77 69 64 76 77 74 75
78 80 79 78 78 80 79 78 79 78 84 83 80 80 82 83 83 83 84 84 83 83 82 82 83 83 81 80 61 60 78 80 81 81 82 83 66 62 60 63 80 77 78
79 80 76 76 78 81 80 76 77 80 83 82 80 79 78 83 81 79 81 82 82 81 80 80 80 82 82 67 62 59 61 73 80 81 84 83 65 60 60 60 67 64 66
74 77 77 77 76 77 77 75 75 78 80 80 77 77 78 79 79 79 77 79 80 80 78 77 77 76 78 79 62 59 59 61 74 82 78 68 61 57 60 60 62 61 72
73 75 74 75 73 75 76 74 75 77 77 79 78 77 77 76 77 77 79 79 77 77 76 75 75 76 76 77 73 70 65 60 64 68 73 71 67 67 70 66 63 69 76
70 71 71 73 72 72 72 74 75 76 75 77 77 77 77 77 77 77 76 77 75 74 77 77 76 75 68 64 54 56 67 69 66 67 73 74 75 74 76 71 72 67 70
67 68 69 70 70 71 72 73 74 75 74 75 77 76 76 76 77 77 69 54 55 55 52 53 61 60 55 48 46 45 46 46 47 63 69 71 74 75 75 75 74 72 68

GFSMW_sfc_temp_036.txt.gz
Temp
81 82 83 84 84 80 81 81 81 78 78 74 72 72 73 73 74 76 78 76 77 77 75 74 73 73 73 73 74 72 71 71 70 70 69 69 72 76 72 74 73 74 74
80 82 82 83 84 80 80 80 80 78 79 79 78 74 72 72 75 75 77 77 77 77 76 74 73 73 72 72 73 72 69 69 70 68 67 65 69 71 73 71 73 72 73
80 81 82 82 84 80 80 80 80 79 80 78 75 72 73 73 73 73 73 77 77 77 76 76 74 74 73 72 73 73 71 68 70 71 69 63 62 64 70 70 70 71 70
84 83 83 82 84 81 82 80 80 79 79 77 77 77 77 75 74 74 73 76 77 77 77 77 75 74 73 73 73 74 72 69 68 70 73 69 67 63 64 68 68 70 72
83 83 85 84 85 84 82 80 79 79 79 78 79 78 77 77 72 73 73 75 76 77 79 76 75 74 73 73 73 73 72 71 69 68 68 68 68 67 64 63 66 68 69
84 86 87 87 84 84 82 81 77 77 79 78 78 78 77 73 73 71 74 73 77 77 77 78 76 75 74 73 72 73 73 72 71 69 68 69 69 67 66 63 64 66 69
84 85 84 85 84 82 81 81 78 76 78 78 78 78 78 75 75 73 74 71 73 73 75 76 75 76 74 74 73 72 73 72 72 70 70 69 69 69 68 66 64 65 67
81 84 85 86 85 82 81 81 79 78 78 79 78 79 79 79 79 74 74 76 77 77 78 78 77 77 76 75 73 73 73 73 72 72 70 69 70 70 70 69 66 63 63
81 85 86 86 86 82 81 80 79 80 79 79 79 78 77 79 78 77 75 74 75 79 78 79 78 77 77 75 74 73 73 74 72 71 72 70 70 70 70 69 69 68 62
84 85 86 86 87 85 83 82 81 81 80 80 81 80 78 78 80 78 74 74 75 77 79 78 79 77 77 77 74 74 73 73 73 72 71 70 70 70 69 69 68 68 67
84 84 86 87 88 87 84 82 81 81 80 80 80 80 79 79 77 78 77 77 75 76 77 78 78 78 77 77 75 74 75 74 74 73 72 71 70 70 69 68 68 67 66
84 86 87 87 87 86 85 82 81 81 81 80 80 79 79 79 79 77 77 78 77 76 77 76 78 78 78 78 77 75 77 75 73 74 73 73 75 69 68 68 68 68 67
86 88 87 86 86 87 85 83 82 81 81 81 80 79 79 78 78 78 79 78 77 77 75 77 77 77 78 78 78 77 77 75 75 75 74 75 73 73 71 67 70 67 68
87 87 86 86 86 87 86 84 83 82 81 80 79 78 78 78 78 79 79 79 77 77 77 76 77 77 78 79 79 78 77 77 76 76 76 76 75 75 73 70 68 68 66
86 87 86 86 86 85 86 84 84 83 82 80 79 78 79 80 79 78 78 79 79 77 79 79 77 78 79 80 79 79 78 77 77 76 76 77 77 75 75 76 74 69 69
86 87 87 87 86 86 86 85 84 84 82 80 79 80 79 79 79 79 78 78 78 78 78 78 78 77 80 74 72 78 79 79 77 76 76 77 74 73 70 70 73 75 73
86 87 87 88 87 87 88 85 85 86 83 81 81 80 80 79 79 79 79 78 77 78 78 79 79 79 80 70 69 71 81 79 79 78 78 78 80 74 76 69 69 70 69
77 76 80 83 83 86 88 88 86 85 84 82 81 81 80 79 79 79 79 79 79 78 78 78 79 79 80 68 66 69 79 80 80 79 79 79 78 79 76 76 72 73 76
73 74 77 76 77 86 88 88 86 85 84 83 82 82 81 80 79 79 79 80 80 80 80 80 79 79 80 65 64 66 76 78 79 81 80 80 79 73 66 75 74 73 73
73 74 76 76 77 74 77 87 86 85 84 84 84 84 82 81 80 80 80 81 81 81 81 81 81 76 79 65 63 66 79 78 79 80 81 70 76 67 64 74 76 74 75
72 73 74 72 73 75 75 75 78 84 87 86 86 83 83 82 83 82 82 82 81 81 81 80 81 81 77 77 61 60 77 79 79 79 80 82 65 62 60 62 78 78 80
71 73 73 73 74 73 74 72 73 75 78 77 76 79 82 84 83 81 81 81 81 80 79 79 79 80 80 66 61 59 62 72 78 79 82 82 64 59 59 60 65 63 64
69 71 71 71 73 73 73 71 71 73 75 75 75 76 76 78 77 78 78 78 79 79 78 77 76 76 76 77 61 59 59 60 72 78 75 66 60 57 59 59 61 60 70
66 68 69 69 69 70 72 71 72 73 73 73 75 73 73 73 74 78 78 79 77 76 76 75 75 76 76 76 70 68 65 60 63 64 69 68 64 61 65 65 64 66 70
64 65 65 66 68 68 70 70 72 72 71 72 74 74 73 73 73 66 65 74 76 75 76 76 76 75 72 66 57 59 68 67 63 64 70 69 70 72 73 74 74 72 69
63 64 64 66 67 68 68 69 71 70 70 70 72 73 73 74 74 66 61 53 50 49 50 52 61 58 53 49 48 46 46 46 48 61 65 66 68 69 70 72 73 73 71

GFSMW_sfc_temp_039.txt.gz
Temp
77 79 80 82 81 79 78 77 77 76 76 71 71 70 70 71 72 73 75 75 75 76 74 72 72 72 71 72 73 71 70 68 68 68 67 68 69 71 70 71 71 72 73
76 78 79 80 81 78 78 78 78 77 76 77 77 73 71 71 73 74 75 75 76 75 75 74 73 73 71 72 71 71 68 68 68 67 64 63 67 69 69 69 71 70 71
74 76 78 79 80 78 77 77 78 77 78 78 73 70 71 71 70 71 72 74 76 76 75 74 73 72 72 71 71 71 69 68 68 68 67 62 61 62 67 68 69 70 69
77 77 78 78 80 80 79 79 79 78 79 77 76 75 75 75 71 70 72 73 75 76 76 75 73 73 72 72 71 72 70 68 68 68 70 67 66 63 63 66 67 68 69
78 78 79 80 82 82 79 79 78 78 79 76 79 77 73 72 69 70 72 72 73 75 77 75 74 72 72 72 72 71 70 69 67 67 67 66 66 64 63 62 65 67 68
80 81 82 82 81 83 80 79 77 77 78 77 77 76 75 69 69 69 70 70 71 74 74 75 73 73 72 72 72 72 71 70 69 67 67 68 67 66 64 62 62 64 67
79 82 80 81 81 81 79 78 77 76 77 76 77 76 76 72 73 71 70 69 70 71 73 73 73 72 73 73 72 71 71 71 70 69 68 67 68 67 66 65 62 63 65
79 81 82 82 81 81 79 79 76 76 77 76 76 77 77 76 76 74 73 73 75 75 76 75 75 74 74 73 72 71 71 71 70 71 68 68 68 67 68 68 65 62 61
80 81 84 84 82 81 79 79 77 77 77 77 77 77 77 77 76 73 75 75 74 76 74 76 76 74 74 73 73 71 71 72 71 70 70 68 68 68 68 67 67 66 62
81 83 84 84 85 83 81 80 79 78 78 78 78 78 78 77 77 75 73 73 73 75 75 75 76 75 74 73 73 72 72 71 71 71 70 69 68 68 67 67 66 65 66
81 82 83 86 86 85 82 81 80 79 78 78 79 78 78 77 78 76 74 75 72 73 74 74 75 76 75 74 73 73 73 71 71 72 71 70 69 68 67 66 65 65 64
82 84 84 85 85 85 82 81 81 80 80 79 79 78 78 77 77 77 75 75 73 73 75 75 75 76 76 75 74 73 75 73 72 72 72 72 72 69 67 66 66 65 64
82 84 84 84 84 85 82 81 80 80 81 80 79 79 78 77 76 76 77 74 73 74 74 75 75 75 75 75 75 75 75 74 75 74 73 74 71 70 69 67 65 65 67
81 82 84 84 85 85 84 82 80 81 81 80 79 77 77 77 77 78 77 76 75 75 75 76 76 76 76 76 76 76 75 75 75 75 75 75 74 73 72 71 69 67 65
81 82 83 83 84 84 84 82 81 80 81 79 78 77 77 78 77 77 76 77 75 76 77 76 76 76 76 78 76 76 76 75 75 74 75 76 76 74 74 75 73 68 68
81 82 84 85 84 84 84 83 81 80 81 79 78 78 77 77 76 76 75 75 76 75 76 76 76 75 78 72 71 76 77 76 75 75 74 75 73 73 70 69 71 75 72
82 83 85 85 86 85 85 82 82 81 80 78 78 78 77 76 76 76 75 75 75 76 75 75 77 76 77 69 68 70 79 77 77 76 77 76 78 73 75 69 68 68 68
84 84 87 86 87 87 86 84 83 81 78 78 77 78 77 76 76 76 75 75 75 75 75 75 76 76 78 68 66 68 76 78 78 78 78 78 78 77 75 75 73 71 74
69 77 86 85 85 85 85 83 82 81 79 78 78 78 78 77 76 75 76 76 76 76 76 77 76 76 77 65 64 66 75 76 77 79 78 78 78 72 66 75 74 74 74
69 70 75 76 79 80 84 82 80 80 78 79 79 79 79 78 77 77 77 78 78 78 78 77 77 73 77 65 62 64 76 75 76 78 79 68 74 66 63 73 75 73 76
70 72 72 70 70 74 85 83 82 81 83 82 81 79 80 79 80 79 79 78 78 78 77 77 78 78 75 76 60 60 76 77 77 77 77 79 65 61 60 61 77 76 78
68 70 70 70 71 72 74 71 71 72 76 78 78 78 79 80 80 79 79 78 77 76 77 76 76 78 78 66 60 60 61 72 77 77 80 80 63 58 58 59 63 62 63
66 68 69 69 69 70 70 70 69 72 73 73 75 76 76 79 80 78 78 77 78 77 76 76 75 75 75 75 61 58 59 60 71 77 73 64 59 55 57 57 59 58 66
64 66 67 67 67 67 69 69 70 71 71 71 72 71 72 72 76 79 79 78 77 76 75 73 73 74 74 75 76 70 65 59 62 64 68 66 63 61 65 65 63 65 67
62 64 64 66 66 66 67 68 69 70 70 70 71 72 71 69 69 59 61 71 73 72 75 75 75 74 75 73 61 63 70 70 63 65 69 69 69 69 69 70 72 71 69
60 61 62 63 65 66 66 67 68 69 68 68 68 69 71 71 67 60 59 50 47 47 49 54 62 57 52 47 47 47 48 48 50 64 66 66 67 66 66 67 64 65 64

GFSMW_sfc_temp_042.txt.gz
Temp
75 77 77 78 77 75 73 73 73 71 71 69 69 70 71 72 73 74 75 75 76 77 75 73 73 73 73 74 75 74 72 71 72 71 72 72 73 74 75 76 77 77 78
73 75 76 78 77 75 74 73 73 71 73 74 72 72 71 72 74 75 75 75 76 76 75 74 73 72 73 74 75 74 71 71 71 69 68 68 72 73 75 75 76 76 77
72 74 75 77 78 75 74 73 73 72 74 73 71 71 71 71 72 73 74 75 76 77 76 76 75 74 73 73 74 74 73 71 72 72 70 67 68 68 72 73 74 75 75
75 75 75 76 78 77 76 75 74 73 75 73 73 72 71 71 71 72 74 74 75 76 77 76 75 75 74 74 75 75 73 71 72 71 73 71 70 69 70 72 73 73 75
75 75 76 77 79 79 77 76 74 73 74 74 74 74 73 72 71 71 73 73 74 75 77 76 75 75 75 74 75 74 74 73 71 71 71 71 71 69 69 69 71 73 74
75 77 78 79 78 80 78 77 73 73 73 74 74 73 73 70 70 70 71 72 73 74 75 77 75 75 75 75 75 75 74 73 72 71 71 72 72 71 70 69 69 70 73
76 77 77 77 78 78 78 76 74 73 73 74 74 74 74 71 72 71 71 70 72 73 74 75 75 75 75 75 75 74 74 74 74 72 72 72 72 72 71 71 70 70 71
77 77 79 78 78 78 78 76 75 74 74 74 73 74 75 74 75 73 72 73 73 74 76 75 76 76 76 76 75 75 75 75 74 74 72 73 72 72 72 72 71 70 69
78 78 80 80 80 79 78 76 75 75 75 75 75 74 75 74 74 73 74 73 73 76 76 76 76 76 76 76 75 75 75 75 75 74 74 73 74 73 73 72 73 72 70
78 79 80 81 81 82 81 78 78 76 76 76 76 76 75 75 75 74 73 72 73 75 75 75 76 76 76 76 75 75 75 74 75 75 73 73 74 74 73 73 72 71 72
78 79 81 83 82 83 82 79 78 76 77 76 76 76 76 76 76 75 74 73 73 75 75 75 75 76 76 76 75 75 75 74 75 75 74 74 74 75 74 72 72 71 70
80 81 82 83 82 81 81 79 79 77 78 77 76 76 76 76 76 75 74 74 73 75 75 75 75 75 76 76 75 75 77 75 75 75 74 75 76 73 73 73 71 71 70
79 81 82 82 83 82 80 79 79 79 80 77 77 77 76 76 75 76 75 74 75 74 76 76 75 75 76 75 76 76 76 76 76 76 75 76 75 74 75 73 73 72 72
75 78 80 81 83 82 79 79 79 80 80 79 78 76 77 76 77 76 76 74 75 75 75 75 75 76 76 76 76 76 76 76 77 77 77 77 76 75 76 74 73 73 72
74 76 79 79 80 80 79 78 79 79 80 78 77 77 77 77 76 76 76 75 75 75 75 75 76 76 77 79 76 77 76 76 76 76 77 78 77 74 74 78 75 74 73
76 77 79 80 79 80 80 78 78 79 79 77 77 77 76 76 75 75 75 75 75 75 75 75 75 75 79 72 70 75 77 77 76 75 76 77 74 73 69 69 71 76 74
72 79 79 81 81 82 82 79 78 79 78 77 77 77 76 75 75 75 74 74 75 75 75 75 75 75 76 68 68 70 79 77 77 77 77 77 79 74 77 70 67 68 67
72 79 82 82 82 85 85 81 80 77 77 76 76 76 75 75 75 75 74 74 75 74 74 75 75 75 76 67 65 68 76 78 78 78 78 77 78 77 76 77 77 77 76
66 75 81 82 81 83 82 79 78 77 77 76 76 76 76 75 75 74 74 75 75 74 74 75 75 75 76 64 64 66 75 77 77 79 79 78 78 71 66 76 76 76 77
68 73 75 77 78 79 82 78 78 76 75 77 77 77 77 76 75 75 75 76 76 76 77 76 76 72 75 64 62 64 77 75 77 77 78 68 74 66 63 74 76 75 77
69 70 73 75 75 78 80 77 77 76 78 78 78 77 77 76 77 76 77 76 76 77 76 76 77 77 75 75 61 59 75 77 77 77 78 80 63 61 60 61 76 75 75
68 70 69 69 71 75 78 75 74 75 75 76 77 76 77 79 79 76 76 77 76 75 75 75 76 78 78 65 62 59 60 70 77 77 79 78 62 58 57 59 62 61 63
65 68 69 69 70 71 74 73 71 74 74 74 74 74 76 77 78 77 76 76 76 76 75 76 76 76 77 77 61 58 58 59 70 78 74 65 61 55 57 57 58 58 65
63 65 67 67 67 69 70 70 72 73 73 73 73 73 74 74 77 78 79 78 77 76 77 75 74 75 75 76 77 70 66 59 63 65 69 65 64 61 65 65 64 65 67
62 64 63 65 65 67 68 70 71 72 72 73 74 73 73 72 70 62 63 74 74 73 77 76 76 75 75 76 69 70 73 71 66 67 70 70 70 71 71 71 71 71 70
60 62 64 64 65 66 67 68 69 70 71 71 72 72 72 71 66 64 61 48 47 46 51 57 66 62 52 47 48 48 49 50 53 68 69 68 68 68 67 66 68 68 66

GFSMW_sfc_temp_045.txt.gz
Temp
80 82 83 84 83 82 81 80 79 80 80 80 81 82 83 84 85 86 84 84 85 85 84 86 84 84 85 85 84 84 81 83 84 85 85 85 87 86 88 90 91 88 89
79 80 82 83 83 81 80 79 79 79 80 82 82 84 83 85 87 87 85 85 85 85 85 83 83 82 84 83 83 82 84 84 84 84 84 81 83 87 89 88 88 88 91
78 79 80 82 83 81 80 79 79 79 80 81 82 81 82 83 83 84 86 85 85 85 85 83 84 82 81 81 82 84 82 83 83 82 85 80 80 83 85 83 87 86 87
81 81 81 81 83 82 82 81 80 80 81 80 81 80 82 82 85 85 87 86 85 85 85 85 83 83 85 81 84 85 84 83 83 83 85 82 82 83 81 85 86 86 86
81 81 82 82 84 84 83 82 80 79 81 80 81 82 81 85 85 85 83 84 83 85 86 85 84 83 83 83 83 82 82 84 85 85 84 82 85 82 84 82 85 86 88
82 82 84 84 84 85 83 83 79 78 80 80 80 80 81 82 82 83 84 86 87 86 84 85 84 84 85 83 84 82 82 83 83 85 84 86 85 85 83 82 83 83 87
82 82 82 82 82 83 83 82 79 78 79 80 81 81 81 81 80 81 84 85 86 86 84 83 83 85 84 85 84 83 83 83 83 81 85 86 86 86 86 84 84 83 87
84 83 83 83 83 83 83 82 80 79 80 80 80 80 81 84 84 83 86 85 87 87 87 85 85 85 85 85 84 85 85 84 84 83 83 86 86 86 85 85 83 82 83
83 83 84 85 84 83 83 82 81 80 80 81 81 80 81 82 83 83 83 86 84 87 86 86 85 85 85 84 84 85 84 83 83 84 83 84 87 86 86 85 85 83 80
84 85 85 86 86 86 86 85 83 80 81 82 82 82 82 82 83 83 82 83 84 84 86 85 85 85 85 84 83 85 85 83 85 86 83 83 86 85 85 85 85 84 82
86 86 87 88 87 88 87 86 84 82 82 82 82 82 82 83 83 82 82 83 84 83 84 84 85 84 84 84 83 83 85 83 83 83 83 82 83 86 87 85 85 84 83
87 88 88 87 88 87 88 86 86 85 84 83 82 82 82 83 82 82 83 83 82 84 84 84 84 84 85 85 83 83 85 83 83 84 83 83 86 82 83 85 82 83 83
87 87 89 87 88 88 87 88 87 87 87 85 83 83 83 82 82 82 83 83 83 83 85 84 83 83 84 84 84 83 84 84 84 85 84 84 84 82 85 84 85 85 83
84 86 86 86 87 87 85 86 87 88 88 87 85 83 83 83 83 83 82 82 83 83 83 83 84 85 85 85 85 84 84 84 85 85 85 85 84 83 83 84 83 83 83
84 84 85 84 84 85 84 85 87 86 87 84 85 83 83 83 83 82 82 82 83 83 83 83 84 84 86 88 85 85 84 83 84 85 85 85 83 77 79 86 84 83 82
82 84 85 85 85 85 83 83 84 85 85 83 83 83 82 82 81 82 81 81 82 82 83 83 83 83 87 76 72 80 85 84 83 83 84 85 78 77 70 69 71 79 82
76 78 83 86 86 87 85 83 83 85 83 82 83 82 81 81 81 82 81 81 81 82 81 82 83 83 84 70 68 70 85 86 85 84 84 86 89 80 84 74 68 68 67
74 77 80 86 87 90 91 87 86 82 82 81 81 82 81 81 81 81 80 80 82 81 81 82 82 82 84 67 66 68 81 84 85 85 85 85 85 85 84 85 85 85 85
72 76 80 85 88 88 88 85 84 83 82 81 81 82 82 81 81 80 80 81 81 81 81 82 82 81 82 65 64 67 82 83 83 85 85 85 84 75 67 82 82 83 84
77 78 82 89 89 87 89 85 83 83 81 82 82 83 82 81 81 81 80 82 82 81 84 82 82 77 82 66 62 66 83 82 84 84 83 70 78 68 63 79 81 80 83
74 81 87 86 86 87 87 83 83 82 84 85 84 83 83 82 82 81 82 81 81 83 81 82 82 82 80 80 60 59 80 84 85 85 86 87 64 61 60 61 82 80 82
71 79 81 83 85 85 84 82 81 84 84 84 83 82 82 84 84 81 81 81 81 80 80 80 82 85 83 67 63 59 61 73 83 84 88 86 63 58 58 61 64 61 63
69 74 78 77 81 83 83 81 79 82 82 82 82 82 82 83 83 81 80 81 81 83 82 83 83 85 87 85 61 58 58 60 76 85 79 66 60 56 60 58 59 58 66
65 72 74 74 74 77 79 78 81 82 81 81 81 82 81 81 83 84 84 84 84 83 84 84 84 86 86 86 87 79 71 60 66 69 78 71 67 64 67 67 65 65 67
63 67 69 71 72 75 75 77 79 82 82 81 81 81 83 81 82 84 81 85 85 82 86 86 86 85 84 85 75 76 82 78 70 71 76 74 73 72 73 72 72 73 71
62 65 67 69 71 73 73 74 74 77 80 82 83 84 85 82 84 76 69 48 49 47 51 56 74 76 57 52 51 51 55 57 54 69 72 71 70 70 70 70 71 73 73

GFSMW_sfc_temp_048.txt.gz
Temp
88 89 90 91 91 90 88 87 86 86 87 87 88 89 89 91 92 94 91 90 91 90 89 89 90 89 90 90 89 90 87 91 92 90 91 92 93 92 96 98 99 93 96
87 87 89 90 91 89 87 86 85 85 85 89 88 91 91 93 93 94 91 92 91 90 91 89 91 90 88 87 87 87 91 91 92 90 91 84 88 93 97 97 96 95 98
87 86 87 89 90 88 87 86 85 85 85 88 89 88 90 90 90 91 92 92 91 91 90 89 90 88 90 90 88 88 87 89 90 89 86 83 77 88 92 90 94 92 94
89 88 88 88 89 89 89 87 85 84 85 86 87 85 87 88 92 92 94 93 91 91 91 89 89 88 88 88 89 91 90 88 88 90 93 88 87 84 81 91 92 93 93
90 89 89 89 91 91 90 88 85 84 86 85 86 87 86 92 93 94 90 90 89 91 92 89 89 89 91 88 88 87 87 91 92 92 90 88 92 89 87 86 89 92 95
91 91 91 91 91 92 91 89 85 83 84 85 84 85 86 88 91 90 91 92 94 92 90 91 89 89 89 89 89 88 87 88 89 92 91 91 89 90 90 89 88 88 93
91 91 90 90 89 89 89 89 86 83 84 85 85 85 85 86 87 87 90 91 93 94 91 89 88 90 88 90 89 86 87 88 88 86 91 93 92 93 91 89 90 89 94
95 92 91 90 89 89 89 88 86 83 85 85 84 85 85 90 90 89 92 92 94 95 93 90 90 90 90 90 89 88 89 89 89 87 87 93 93 93 93 90 88 87 91
94 93 93 92 91 89 89 88 87 85 86 87 86 85 86 86 90 90 89 93 91 95 93 92 90 90 90 90 89 91 89 89 88 89 88 89 94 94 94 93 92 88 84
94 95 94 93 93 93 92 90 89 86 87 88 87 88 87 87 88 89 88 89 92 90 92 90 90 90 90 89 88 90 89 88 91 92 89 88 93 93 93 93 93 91 88
95 95 95 96 95 95 93 91 90 88 87 88 88 88 88 89 88 88 88 88 89 90 88 89 89 90 90 89 88 88 90 88 88 89 88 87 88 92 94 93 93 91 91
97 97 97 96 96 94 94 93 92 91 90 90 88 88 89 89 89 87 88 88 87 89 89 89 88 89 90 90 88 88 90 88 87 88 88 87 91 86 87 92 88 90 91
98 97 98 97 96 95 94 95 94 94 94 91 90 89 89 89 89 88 88 88 87 87 90 89 88 88 90 89 89 89 89 89 89 89 88 88 88 86 90 89 91 92 90
95 97 97 97 96 95 94 94 95 97 96 94 92 89 89 89 89 89 88 88 88 87 88 89 89 89 90 90 90 90 89 89 90 90 90 90 89 88 87 88 87 88 88
93 94 95 95 93 93 94 93 95 96 97 94 92 91 89 90 89 88 88 88 88 88 88 88 89 89 91 94 90 90 90 89 89 90 91 91 88 79 81 91 89 88 88
91 93 94 95 93 92 92 92 93 94 94 92 92 91 88 88 88 87 87 87 87 87 87 88 88 88 93 79 74 83 90 89 88 88 89 90 82 80 72 71 71 77 85
87 89 91 94 95 94 93 92 92 94 91 90 90 89 87 86 86 87 86 86 86 87 86 87 88 88 89 73 70 72 90 91 89 89 89 91 96 84 91 74 69 70 69
82 85 90 92 94 99 99 94 94 90 89 88 88 88 87 86 86 86 86 86 87 86 86 86 87 88 89 70 67 69 87 88 89 90 90 89 89 90 89 91 90 90 90
79 82 86 89 91 94 97 95 92 90 89 88 87 88 88 86 86 85 85 86 86 86 87 87 87 86 87 67 65 69 86 87 87 89 89 90 89 79 68 87 86 86 88
79 80 85 89 90 90 97 96 91 89 87 88 88 88 88 87 86 86 85 86 87 87 90 88 88 82 87 68 62 69 89 88 90 89 88 72 80 70 64 84 85 84 86
73 82 86 86 89 91 96 93 91 89 90 90 89 88 88 87 87 86 86 86 86 88 86 88 89 88 86 85 61 60 85 90 91 92 93 94 67 63 62 61 84 83 83
73 87 89 90 93 93 94 90 87 89 89 90 89 88 87 89 89 86 86 86 86 84 85 85 87 91 89 69 62 59 62 75 89 91 96 93 64 59 58 64 66 62 65
67 79 88 89 91 91 92 87 87 86 88 88 87 87 87 87 89 86 85 86 85 88 86 88 89 91 94 91 63 58 58 61 78 91 82 63 60 57 62 58 59 58 78
63 68 74 76 82 88 89 88 88 87 87 86 86 87 86 85 88 89 89 89 90 88 91 91 91 93 94 95 95 84 75 62 70 73 83 79 69 61 67 75 72 74 71
62 63 66 70 72 75 77 80 86 86 86 86 87 87 89 86 87 89 84 91 93 86 92 94 95 94 93 94 82 83 92 89 79 81 86 84 83 81 79 77 76 73 71
60 61 63 67 71 73 75 78 81 83 84 84 87 90 92 90 89 86 84 50 50 47 48 51 73 86 62 55 57 57 58 57 55 75 78 77 76 74 74 73 72 74 73

GFSMW_sfc_temp_051.txt.gz
Temp
93 94 94 95 95 93 91 89 89 89 89 89 89 91 91 92 93 91 94 92 94 92 91 89 90 91 91 84 91 90 89 91 93 90 91 92 94 93 96 99 98 94 96
91 92 93 94 94 92 90 88 88 88 88 90 89 92 93 95 95 96 93 93 93 92 93 86 85 80 89 88 89 89 89 92 89 81 89 78 85 94 96 97 96 95 98
91 90 90 92 93 91 89 88 87 87 87 89 90 91 93 94 93 92 93 93 93 93 93 91 88 90 86 85 88 88 88 85 92 90 80 74 72 86 93 91 95 92 94
93 91 91 91 93 92 92 89 87 87 87 88 88 86 89 89 93 94 95 94 93 93 93 91 90 88 92 84 87 91 91 86 88 91 93 86 86 76 81 92 93 94 93
94 92 92 92 94 94 92 91 87 86 87 86 87 89 87 92 94 96 90 93 91 93 94 91 90 89 91 90 89 89 87 92 84 85 91 89 92 88 85 80 88 93 95
95 94 94 94 94 95 94 92 87 85 86 86 85 87 85 89 92 92 93 93 94 93 92 92 90 90 91 89 89 89 89 87 90 92 91 82 79 82 90 87 87 89 92
96 94 93 93 92 93 93 92 87 84 85 86 86 86 87 86 89 90 92 91 94 95 91 91 88 91 89 91 89 88 89 88 89 87 91 93 93 94 92 91 90 89 94
98 96 95 93 92 93 93 92 88 85 86 86 85 85 87 91 91 91 94 94 96 97 92 91 91 91 91 90 90 90 90 90 89 88 87 92 94 95 93 91 89 87 91
99 97 96 96 94 93 92 91 89 86 87 87 86 85 86 87 90 89 90 94 93 98 95 93 90 91 91 91 90 91 88 89 89 89 88 89 94 96 95 94 93 89 84
99 100 98 97 96 96 95 94 92 88 88 89 88 88 87 87 89 90 90 90 94 93 94 93 92 91 91 91 90 91 91 89 91 92 90 89 93 95 95 94 94 93 89
100 101 100 99 98 98 96 94 93 91 89 89 89 88 89 89 89 90 91 90 92 93 91 91 91 90 90 90 89 89 92 88 89 90 91 89 89 92 95 95 94 93 92
102 102 102 100 99 97 97 96 94 93 91 91 89 89 89 89 90 89 90 91 89 91 91 90 90 90 91 91 89 88 91 89 88 89 89 89 92 87 88 91 89 91 92
101 102 102 100 99 98 97 97 96 96 95 91 91 91 90 90 90 89 90 90 89 89 91 90 89 89 90 90 90 90 89 90 90 90 89 89 89 87 90 90 91 93 91
100 101 101 100 99 99 97 96 97 98 97 95 93 90 90 91 91 91 89 90 89 89 89 90 90 90 90 91 91 91 90 90 91 91 91 91 90 88 88 88 87 88 88
98 100 101 100 98 98 97 96 98 98 98 95 95 92 90 90 90 89 89 89 89 89 89 89 90 91 91 94 90 91 91 89 89 91 91 91 89 81 83 91 88 87 89
95 98 99 100 99 98 97 96 96 98 97 94 93 92 89 89 89 88 88 88 89 89 89 89 89 89 93 80 75 85 91 90 89 89 90 91 82 81 74 72 72 77 83
94 95 97 99 100 101 98 98 95 97 95 94 93 92 89 88 88 88 88 87 87 88 87 88 89 89 90 73 71 74 92 91 90 89 89 91 96 84 91 75 72 72 69
91 92 96 98 100 104 104 100 99 93 94 92 92 91 90 88 88 88 87 86 88 87 87 88 88 89 90 72 67 71 88 89 90 91 91 89 90 91 90 92 91 88 88
87 89 92 94 96 99 102 100 98 95 93 92 91 91 91 89 88 87 87 88 88 88 88 89 88 87 88 69 66 70 88 88 87 90 90 90 90 80 70 87 86 87 88
86 86 89 91 93 93 99 100 97 95 91 93 92 91 91 89 87 87 87 88 88 89 92 90 90 83 88 68 64 70 91 88 90 88 87 74 82 72 65 84 86 84 86
80 83 85 86 88 92 95 94 97 94 95 94 94 91 90 89 88 87 88 88 88 89 87 89 90 89 87 87 62 60 87 91 92 93 94 96 69 65 64 64 85 83 84
75 79 84 90 91 92 93 91 91 94 94 92 91 90 89 92 92 87 87 87 87 86 86 86 89 92 90 72 62 60 64 77 90 91 98 95 67 61 61 64 67 62 65
70 73 80 90 94 93 92 90 89 93 91 90 88 89 89 89 90 87 86 87 87 89 87 89 89 92 96 92 64 59 60 63 79 91 80 63 61 59 61 58 63 60 82
62 65 71 82 81 89 93 92 93 92 90 88 87 88 88 87 89 91 90 90 90 89 91 91 92 93 96 98 96 84 73 62 71 74 84 80 68 63 71 76 69 83 85
59 62 63 67 70 76 79 89 91 91 89 88 89 87 89 87 88 91 89 92 79 82 93 96 96 96 96 97 86 89 89 87 80 81 86 87 87 87 86 84 83 81 77
59 58 62 63 63 65 66 69 72 85 87 87 86 89 92 88 88 83 80 52 57 49 49 49 65 86 59 56 52 55 55 58 58 81 87 86 84 82 82 79 76 76 72

GFSMW_sfc_temp_057.txt.gz
Temp
85 89 90 87 83 82 81 78 81 79 78 75 74 74 74 75 77 78 83 80 79 78 75 73 75 75 73 73 78 75 76 76 78 72 74 74 78 79 76 79 78 78 79
83 86 87 85 83 81 81 77 79 79 78 76 76 76 76 76 77 77 78 81 80 78 75 73 74 75 75 75 75 75 73 77 74 72 73 72 73 79 79 76 80 79 80
82 84 84 84 83 80 80 78 79 79 79 78 75 76 76 75 75 74 76 78 81 80 80 77 77 75 75 75 75 76 76 71 73 77 72 69 70 69 74 75 77 78 76
84 83 84 83 83 81 82 79 79 78 77 80 75 75 75 74 76 77 78 78 80 81 81 79 78 76 78 75 75 78 75 73 72 73 78 74 75 71 67 73 75 77 79
84 84 85 86 84 83 82 80 78 79 80 78 78 75 74 78 77 80 80 77 78 80 81 79 78 76 74 75 76 77 76 74 73 71 72 72 73 76 72 67 71 73 75
85 85 87 87 84 83 82 81 77 78 79 78 75 75 75 75 79 75 77 81 78 79 79 80 78 77 75 75 76 77 76 75 75 73 74 73 74 74 73 70 69 70 74
84 85 84 85 84 81 81 80 78 76 79 77 77 75 75 75 75 75 81 82 77 76 77 78 77 77 77 76 76 76 76 76 75 75 77 74 73 73 76 72 70 71 73
72 85 85 86 85 82 81 80 79 78 78 78 77 75 75 78 75 76 77 83 82 81 78 79 78 78 78 78 76 76 75 76 75 76 75 74 75 74 74 74 72 69 70
72 73 85 86 86 83 82 81 78 79 79 78 79 77 75 78 75 76 77 78 79 82 79 81 80 79 78 78 76 75 75 76 75 75 75 75 75 75 76 76 75 72 67
72 72 72 80 83 87 84 83 80 79 79 80 79 79 79 77 76 76 76 77 79 79 79 80 80 79 78 78 76 76 76 76 76 77 76 75 75 75 77 76 76 74 72
72 69 72 72 76 87 87 84 81 79 79 80 80 80 79 78 76 76 76 76 78 78 80 82 78 79 78 77 77 76 76 75 75 77 75 76 77 76 75 76 75 74 73
72 72 73 72 73 81 88 86 83 80 80 80 81 79 79 79 79 75 76 77 76 77 78 81 81 79 78 78 77 76 79 77 76 76 76 77 80 76 75 75 75 74 75
71 71 73 75 74 78 85 88 87 82 82 82 80 80 79 79 79 80 74 76 78 78 79 80 80 80 80 77 77 77 77 77 77 77 76 76 76 75 75 75 74 74 76
71 72 73 73 78 77 73 88 88 87 83 82 81 80 80 80 80 80 80 75 80 77 77 78 79 78 79 78 78 78 77 76 77 78 78 78 77 76 76 76 75 75 74
68 70 70 73 70 73 71 80 89 88 87 83 81 81 81 82 81 80 79 80 79 82 80 78 77 79 79 82 77 78 79 78 77 77 78 78 78 76 76 78 75 75 74
74 74 75 79 71 75 78 76 83 88 89 84 82 82 81 81 81 80 79 79 80 80 81 81 79 77 83 75 73 78 77 79 79 78 77 78 77 76 73 72 73 76 75
73 72 70 77 72 72 79 77 76 90 88 86 83 83 82 80 80 80 80 78 79 81 78 80 80 79 80 72 71 73 82 80 78 79 79 79 85 76 78 73 71 71 70
72 70 68 72 74 71 68 69 69 73 86 85 84 83 81 81 80 80 80 80 80 80 81 80 80 80 81 70 69 71 80 81 81 78 79 80 80 78 77 77 78 76 77
68 68 71 73 73 69 67 67 68 68 68 84 84 83 82 81 80 79 80 81 81 80 81 81 80 79 81 68 67 69 74 79 79 79 80 80 79 73 69 75 74 75 75
64 67 72 73 77 72 68 67 66 66 72 76 84 84 84 82 81 81 81 82 82 82 81 81 81 77 81 68 65 67 80 76 78 78 75 69 75 69 67 77 79 75 77
66 71 71 71 74 78 73 70 70 69 80 85 87 83 84 83 82 82 82 82 81 82 81 81 82 81 79 80 63 62 81 81 78 79 80 80 65 62 62 63 79 77 79
66 70 67 68 71 72 71 71 72 77 80 81 82 84 83 85 83 82 81 82 81 80 80 80 80 82 82 70 64 61 63 75 81 81 82 81 68 63 62 63 65 64 64
64 64 64 64 67 68 68 69 70 75 78 79 80 81 83 84 85 81 81 80 81 80 79 79 79 81 83 83 64 60 60 63 77 84 78 67 64 61 61 61 62 61 68
59 61 60 64 65 64 65 68 71 72 73 77 78 82 81 82 86 83 83 82 81 80 80 80 80 81 82 83 84 71 65 62 66 71 70 68 66 65 67 64 60 67 71
59 60 59 60 60 62 63 66 66 68 69 74 79 82 85 80 84 84 82 83 84 81 82 82 82 81 80 82 77 75 75 75 70 71 77 71 70 71 71 72 68 68 71
58 57 58 59 59 59 60 62 63 65 67 70 78 82 85 81 83 82 67 50 53 52 57 63 77 83 64 64 59 54 57 58 57 69 74 74 75 74 73 72 74 72 71

GFSMW_sfc_temp_063.txt.gz
Temp
79 78 80 81 80 79 76 76 75 73 73 70 69 70 70 71 72 73 75 74 74 74 72 72 72 71 71 71 72 71 73 72 71 70 70 71 72 72 72 72 72 73 74
77 78 79 79 78 77 76 75 76 74 74 72 71 72 72 71 72 73 74 75 74 73 73 72 72 71 71 71 72 72 70 70 69 69 67 68 69 70 72 71 73 72 73
77 76 76 77 78 76 75 75 76 74 74 73 72 70 72 71 71 72 73 75 75 75 74 73 72 72 71 71 71 72 72 69 69 69 68 62 63 64 69 70 70 71 70
79 76 77 76 77 77 77 76 76 75 74 73 72 71 71 69 71 72 73 74 75 75 74 75 74 72 71 71 72 74 73 69 69 69 72 68 68 65 65 68 70 70 71
79 77 77 77 78 78 77 77 75 75 76 74 75 72 70 72 72 72 72 72 73 75 76 74 74 72 72 72 72 73 71 70 70 68 68 68 68 67 65 65 68 69 70
77 78 78 79 79 79 78 77 74 74 75 74 72 72 71 71 70 70 71 71 72 73 75 75 74 73 72 72 72 72 72 71 70 69 68 69 71 68 66 64 64 65 70
75 77 76 77 77 77 77 76 74 74 74 74 72 72 72 72 71 71 72 71 71 72 74 74 73 72 73 72 72 72 72 72 71 70 70 70 70 69 68 67 65 66 68
73 77 77 77 77 78 77 76 74 74 74 74 73 71 72 74 72 72 72 74 75 75 75 74 74 74 74 74 72 72 71 73 72 72 72 70 70 70 70 69 68 66 66
74 76 79 78 78 78 77 76 75 75 75 75 75 71 72 72 72 72 72 73 75 77 75 74 74 74 74 73 72 71 72 72 72 72 71 71 70 70 70 69 69 69 64
74 74 79 79 79 79 79 78 77 76 76 76 77 75 73 72 71 72 72 72 74 75 74 74 74 74 74 74 72 71 72 71 71 72 72 71 71 71 71 71 69 68 68
71 72 76 80 79 79 79 78 77 77 76 77 77 77 74 72 71 71 72 73 72 74 74 74 74 73 74 73 72 72 72 72 72 72 72 72 72 71 71 71 71 70 68
71 71 70 69 70 71 72 74 77 77 77 77 77 77 77 75 72 71 71 72 73 73 72 74 74 74 74 73 73 72 74 72 72 72 72 72 75 72 71 71 71 70 70
66 66 66 66 68 70 74 74 75 77 79 78 77 77 77 76 76 74 71 71 72 72 73 73 73 74 75 74 74 73 73 73 73 73 72 73 72 72 72 71 71 71 72
64 63 63 65 68 70 71 72 77 79 78 78 77 76 76 77 77 77 75 71 72 72 72 73 74 74 75 76 75 74 72 72 73 73 73 74 73 72 72 72 72 72 71
62 61 62 64 68 69 68 71 74 79 78 78 77 76 77 77 77 77 77 73 71 73 73 74 74 75 76 77 74 74 74 73 72 72 73 74 74 72 72 74 72 71 70
61 61 63 61 67 68 69 69 71 72 79 76 76 75 77 77 76 76 76 76 73 72 71 73 75 74 78 73 71 75 75 74 73 72 72 73 73 72 69 69 70 73 72
59 59 60 60 59 65 68 68 67 69 74 77 75 75 74 76 75 76 75 75 76 76 74 74 75 75 76 69 69 70 79 76 74 74 74 73 78 72 74 70 68 67 67
56 59 63 61 59 63 66 68 69 68 70 73 77 77 77 75 75 75 74 75 76 75 75 75 75 74 76 68 66 69 76 78 76 75 74 74 75 73 73 73 72 72 72
57 59 63 61 59 64 68 68 67 68 68 69 71 77 78 76 76 75 75 75 76 75 75 76 76 75 76 65 65 66 74 76 76 76 75 75 74 69 66 73 72 72 73
57 59 61 62 65 66 67 66 66 68 68 69 70 70 74 77 76 76 76 77 76 76 76 75 76 74 77 65 63 65 76 75 76 77 74 67 73 65 63 71 73 72 74
56 59 61 63 64 68 65 66 66 65 68 69 68 68 71 69 75 74 73 75 75 75 75 75 76 77 75 76 61 60 76 78 77 76 77 77 63 61 60 60 75 74 76
54 57 58 59 65 65 63 64 64 67 70 71 68 68 69 70 72 72 76 74 73 72 75 75 75 77 78 66 62 59 62 72 78 78 78 77 62 59 58 59 62 61 62
51 54 55 57 63 62 64 62 63 64 66 65 66 69 71 72 70 71 76 77 77 76 75 75 75 76 78 78 61 59 59 61 73 80 75 65 60 57 59 58 60 59 64
50 52 52 55 59 64 65 65 62 63 62 62 64 66 67 70 73 74 74 78 78 77 77 76 75 77 77 77 78 68 63 60 64 70 73 70 66 64 68 65 63 65 66
52 53 51 53 57 62 62 64 62 59 58 60 63 63 65 68 71 73 73 76 81 77 78 79 77 73 76 77 72 73 74 72 68 68 71 73 68 70 69 68 69 65 64
50 50 51 52 56 57 59 60 57 56 56 57 62 63 63 65 69 71 70 52 57 55 56 57 70 77 66 61 56 54 54 56 55 66 72 72 73 72 72 72 70 69 66

GFSMW_sfc_temp_066.txt.gz
Temp
77 78 78 78 77 75 73 73 72 71 72 70 70 70 71 72 73 73 76 75 75 74 73 73 73 73 73 74 75 75 75 75 74 74 74 74 75 76 76 77 78 78 79
73 75 77 78 76 74 73 72 73 71 73 72 71 72 72 72 73 74 75 76 76 74 74 73 73 73 73 74 75 75 74 73 73 72 71 68 72 75 77 76 77 77 78
72 74 75 76 77 74 73 72 73 73 73 72 72 71 72 72 73 73 74 75 76 75 75 75 74 73 72 74 75 75 75 73 72 73 72 69 68 69 75 76 75 75 76
75 75 76 75 75 75 75 74 73 73 73 72 72 71 71 70 72 73 75 75 76 76 76 75 75 74 74 74 75 76 75 73 72 72 75 73 72 71 71 74 75 76 77
76 75 76 75 76 76 75 75 73 73 73 73 73 72 71 72 72 72 74 74 75 76 76 76 76 74 74 74 75 76 75 74 73 73 73 72 72 72 71 71 73 76 77
76 77 77 77 76 77 76 75 72 72 73 73 72 72 71 71 71 72 73 73 74 74 76 77 74 74 74 75 75 76 76 74 74 74 73 73 74 74 72 71 71 72 76
75 76 75 74 75 74 75 75 72 72 73 73 72 72 72 72 72 72 72 72 73 74 75 75 74 73 75 75 75 75 75 75 75 75 75 74 74 74 73 72 72 72 75
75 77 75 76 75 75 75 75 73 72 73 73 72 72 72 73 73 73 73 73 74 76 76 76 76 75 76 75 74 75 75 76 76 76 75 75 76 76 75 74 73 73 73
73 74 77 76 75 75 74 75 73 74 73 74 73 71 71 72 72 73 73 74 75 77 77 75 75 76 76 75 75 75 74 75 76 76 76 76 76 76 76 75 74 74 72
72 73 76 76 77 77 76 76 76 75 75 75 75 74 73 72 73 73 73 73 75 76 76 76 76 75 76 75 75 75 75 75 76 76 75 75 76 76 76 76 75 74 74
70 71 71 75 76 78 77 76 76 75 75 75 75 74 73 72 72 73 74 74 74 75 75 76 76 75 75 76 75 75 75 75 75 75 75 76 76 76 77 76 76 75 74
66 69 70 69 71 72 73 75 77 76 77 76 75 74 74 73 72 72 73 74 74 74 75 75 76 75 75 75 75 75 77 75 75 75 75 76 78 76 76 76 75 76 75
63 64 66 67 68 70 71 72 73 77 78 76 77 75 74 73 73 73 72 73 73 73 75 75 75 75 76 76 76 76 76 76 76 76 76 76 76 76 76 76 76 76 77
60 60 60 63 67 68 69 70 72 75 77 77 76 75 74 74 75 74 73 73 73 73 74 75 75 76 76 76 77 76 76 76 77 77 77 77 77 76 77 77 76 77 76
60 60 59 59 60 64 69 69 71 73 76 76 76 75 75 75 75 74 73 73 73 74 74 74 76 76 77 78 76 77 76 76 76 77 77 77 76 73 74 78 77 75 75
57 59 61 61 60 60 63 68 69 69 75 74 75 75 75 75 74 73 73 73 73 73 72 73 75 75 79 71 70 74 77 76 76 75 76 77 73 73 69 68 69 75 76
54 56 59 58 58 59 61 64 68 69 69 73 74 73 75 74 74 74 73 73 72 73 72 72 73 74 76 68 68 69 78 77 76 76 76 77 80 73 78 71 67 67 67
52 54 57 60 59 59 61 66 69 69 69 70 74 74 72 73 74 74 73 73 74 73 72 73 73 73 75 67 66 68 76 77 77 77 77 77 77 77 77 78 77 78 78
51 54 57 59 61 61 63 66 68 68 69 70 71 74 74 73 73 73 73 74 74 73 74 74 73 73 74 64 64 67 76 76 76 77 77 77 77 70 65 77 76 77 77
51 52 55 57 60 61 63 64 65 67 67 69 70 71 72 75 74 72 73 73 74 75 76 75 74 71 74 64 62 65 77 75 77 77 76 66 75 65 62 74 76 75 77
52 53 53 54 57 61 60 61 63 64 68 70 70 70 70 70 75 74 73 73 73 73 74 74 75 74 73 74 60 60 75 77 77 77 78 78 62 60 59 61 77 75 77
51 53 52 52 55 58 57 59 61 66 68 68 68 69 69 70 72 72 74 73 72 72 72 73 74 75 75 65 61 59 61 71 77 77 79 78 61 58 57 59 62 60 62
52 52 51 51 53 55 57 58 62 66 65 66 65 66 68 70 70 70 70 72 73 74 73 74 74 75 77 76 61 58 58 61 73 80 75 66 59 57 59 58 60 58 69
50 51 51 50 51 55 58 59 64 65 64 62 63 64 65 65 68 71 71 72 75 74 74 74 74 76 76 77 78 71 65 61 65 70 74 71 66 64 69 68 65 69 72
51 52 52 52 52 54 55 58 62 63 61 61 62 63 64 65 66 70 72 74 75 76 77 77 77 75 75 77 69 70 74 73 69 70 73 75 73 74 74 73 74 73 71
49 48 49 49 51 53 54 56 60 61 59 58 61 62 63 63 65 65 68 59 57 52 52 57 70 78 66 57 54 53 52 54 53 66 73 72 73 74 75 75 75 73 69

GFSMW_sfc_temp_069.txt.gz
Temp
82 83 79 85 84 82 81 81 80 80 81 81 81 82 83 84 85 86 84 84 84 83 82 82 84 85 86 86 84 86 84 86 87 87 89 89 88 88 89 91 91 90 90
81 81 82 84 83 82 81 80 80 79 80 82 82 84 83 85 86 85 84 85 84 82 83 83 84 83 86 83 83 84 86 86 86 85 85 83 87 91 92 91 90 89 91
81 81 82 83 84 82 81 80 80 80 81 81 82 81 82 83 83 83 85 86 84 83 83 83 84 83 85 86 84 84 83 85 84 83 85 82 81 84 90 88 91 88 91
82 83 83 82 83 83 83 82 81 80 81 80 81 80 83 82 86 85 86 86 85 84 84 83 83 83 86 84 85 86 85 84 84 85 87 83 83 82 83 89 90 91 92
82 82 83 84 84 85 84 83 80 80 81 80 81 81 82 86 86 86 83 84 83 83 85 84 83 83 85 84 84 84 79 86 87 87 86 84 86 83 84 83 87 91 93
83 83 85 85 84 86 84 83 79 79 80 80 80 80 81 82 84 84 84 85 86 81 84 85 83 83 84 83 85 84 84 85 85 87 86 87 84 86 85 85 84 85 90
82 83 82 84 83 83 83 82 79 78 80 80 81 81 81 82 82 82 85 84 86 86 84 84 83 83 84 83 84 83 84 84 86 84 88 87 86 88 86 86 85 86 89
83 84 83 83 83 83 82 82 80 79 80 80 80 81 81 84 85 84 87 86 87 88 86 85 84 84 84 84 83 85 86 85 86 83 84 88 88 89 88 86 85 86 87
82 82 84 84 84 83 82 82 80 80 80 81 81 80 81 81 84 84 84 87 86 88 86 86 85 84 84 84 83 86 84 84 84 85 84 87 89 89 89 88 87 85 83
80 82 84 84 84 85 85 84 83 81 81 82 82 82 81 81 83 83 82 84 86 85 86 85 86 85 84 84 83 84 84 83 85 87 84 84 88 88 89 89 88 87 86
78 81 82 83 84 86 85 85 84 82 82 82 82 82 82 82 82 83 83 84 85 84 84 84 85 85 84 84 82 83 84 83 84 84 84 83 84 88 88 88 88 87 86
70 73 78 80 81 81 84 85 85 83 82 83 81 82 83 82 82 81 83 84 83 85 84 84 84 85 85 84 83 83 85 83 83 84 83 84 86 83 84 87 84 85 85
64 66 66 65 72 79 82 84 84 86 83 80 80 81 82 82 82 82 83 83 83 84 86 85 83 84 85 84 84 84 84 84 85 85 84 84 84 83 86 85 86 87 86
59 61 62 63 62 65 71 76 78 85 86 84 80 79 78 80 83 83 82 82 82 82 83 84 84 85 85 85 86 85 84 85 85 85 85 85 85 84 84 84 84 85 84
58 58 59 60 60 59 65 71 74 75 81 83 84 82 82 80 78 79 82 82 82 82 83 83 84 85 86 88 85 85 85 84 84 85 85 86 84 77 79 87 85 84 84
59 57 58 59 60 59 59 66 71 72 73 76 81 83 82 82 81 80 79 81 81 81 82 82 82 83 88 76 72 81 86 84 84 84 84 86 77 76 70 69 70 77 82
59 59 59 58 59 60 60 63 68 71 72 72 76 80 81 80 80 81 80 80 80 81 80 81 82 82 84 70 68 70 88 86 85 84 85 86 90 79 86 72 68 68 67
57 59 62 60 59 60 59 62 66 68 70 73 74 79 80 80 80 80 79 79 81 80 80 81 81 81 83 68 66 68 83 86 86 86 85 84 86 86 85 86 86 86 86
58 60 62 62 62 62 61 58 61 65 68 71 74 77 81 79 79 79 79 80 80 80 80 81 81 80 81 65 64 67 83 84 84 86 86 86 85 76 67 83 84 84 85
59 59 61 62 63 63 62 60 59 62 65 67 72 75 76 76 79 79 79 80 80 80 82 81 81 76 81 66 62 66 84 84 85 84 84 69 80 68 63 79 83 82 84
57 59 60 61 62 63 63 58 57 58 63 70 72 72 75 75 77 77 79 79 79 80 80 80 81 81 79 79 61 60 81 85 85 85 87 88 64 62 59 63 84 82 84
56 59 59 60 62 62 62 60 58 59 63 65 70 72 71 75 78 77 77 78 78 77 78 78 80 83 82 67 63 59 61 74 83 84 88 86 63 58 58 61 66 62 65
56 58 59 59 60 61 61 59 61 60 60 64 69 69 71 73 75 76 76 76 72 76 75 78 79 82 85 83 61 58 59 61 77 85 80 68 59 56 60 58 61 59 79
51 54 55 56 57 59 60 60 61 62 59 61 66 68 69 70 73 75 77 78 80 75 74 76 78 82 84 85 85 79 73 61 67 73 79 76 71 68 75 75 68 77 82
49 50 52 54 55 58 58 60 60 61 61 59 64 65 68 67 70 72 74 77 76 77 82 82 83 82 82 84 75 77 84 82 76 76 81 82 81 81 82 83 83 84 83
49 49 50 51 53 56 57 58 60 59 60 59 61 63 64 66 67 72 70 59 56 54 54 55 65 84 68 60 54 53 53 53 54 75 81 79 79 78 77 78 82 83 80

GFSMW_sfc_temp_072.txt.gz
Temp
89 90 89 87 92 90 88 87 86 86 87 88 88 89 89 91 92 94 90 89 91 89 88 91 90 92 92 90 90 91 89 92 93 93 94 95 95 96 99 101 101 97 99
88 89 89 90 92 89 88 86 86 85 86 89 89 91 91 93 94 93 90 91 90 88 89 89 90 90 92 89 89 90 93 93 94 91 92 89 91 96 100 100 100 97 101
87 88 88 89 92 89 87 86 85 85 86 88 89 87 89 88 84 89 91 91 90 89 90 89 92 89 92 92 89 90 88 91 93 89 90 87 86 92 96 94 98 95 100
89 89 90 90 92 91 90 88 86 86 87 86 87 85 88 88 92 92 93 92 90 90 90 89 89 88 93 90 90 92 92 88 90 93 95 90 88 88 87 94 95 97 98
83 90 90 91 93 93 92 90 87 85 87 86 87 88 86 92 92 94 86 89 87 90 91 89 89 88 92 89 90 88 88 92 94 94 94 90 94 89 90 88 92 96 99
86 89 93 93 93 94 93 91 86 84 85 86 85 85 86 88 91 90 84 89 89 90 90 90 88 88 90 89 90 89 88 91 92 94 92 93 89 91 92 91 90 92 95
90 90 90 91 91 91 91 91 87 84 85 86 86 86 86 85 86 85 89 91 92 92 88 87 85 89 87 89 89 87 89 88 91 89 94 95 95 95 94 94 92 93 95
92 91 91 91 91 91 91 90 88 84 85 86 85 86 86 90 90 90 93 93 94 94 92 89 90 90 90 90 89 91 92 91 91 88 89 95 96 97 95 92 91 91 93
90 89 92 92 92 91 90 89 88 86 86 88 86 86 86 86 90 89 90 93 92 95 92 91 90 90 89 89 88 92 88 90 89 90 89 91 96 97 97 96 95 90 89
88 91 89 92 93 94 93 92 91 88 88 89 88 88 88 87 88 89 87 89 92 91 92 90 90 90 89 88 88 90 89 88 91 93 89 88 95 94 95 95 95 94 91
73 74 80 89 92 94 93 92 92 90 89 90 89 89 89 89 88 88 88 88 90 90 90 89 88 89 89 89 87 89 90 87 88 89 89 88 89 93 95 95 95 93 93
67 66 66 64 74 88 92 93 93 93 92 91 89 88 88 89 90 88 88 89 88 90 90 88 89 88 90 90 88 88 91 88 88 88 88 88 92 87 88 93 89 92 92
63 63 63 59 60 68 70 85 92 95 94 89 89 87 86 87 88 89 89 88 88 88 91 90 87 88 88 89 89 89 89 89 89 89 88 88 88 87 91 90 92 93 92
63 63 59 58 59 62 64 70 79 87 92 93 90 87 85 86 89 89 88 88 88 87 88 89 90 89 91 90 89 89 89 90 90 90 90 90 89 88 87 89 88 89 89
61 62 62 60 59 58 59 65 71 75 81 82 89 88 87 87 87 88 88 88 88 88 88 88 89 90 91 94 90 90 89 89 89 90 90 90 88 80 82 91 89 88 89
62 63 65 63 62 62 59 61 65 70 72 77 81 83 88 87 86 85 85 86 87 87 87 87 88 88 93 79 74 83 91 90 89 88 90 90 81 80 72 71 72 78 85
66 67 63 63 64 65 68 64 63 70 70 71 76 81 81 83 85 86 85 84 83 86 85 86 87 87 88 72 69 73 91 91 90 89 89 91 96 84 90 73 69 69 68
65 67 70 68 65 66 65 68 69 68 69 68 71 76 81 82 82 82 82 84 85 84 85 86 86 86 88 71 68 69 87 88 90 91 90 89 91 91 89 90 90 89 89
67 68 70 70 70 71 67 64 62 62 64 65 67 71 72 78 80 82 81 80 82 84 85 86 85 85 86 67 66 70 87 88 87 90 91 91 90 79 69 88 88 88 90
67 67 68 69 71 71 72 70 70 63 61 62 67 69 73 72 75 79 79 80 79 81 85 86 87 80 85 68 63 69 89 87 89 88 88 73 83 71 65 85 86 85 88
65 66 67 67 69 70 70 68 69 70 67 65 65 66 73 73 70 74 79 77 79 80 81 81 86 86 84 83 61 60 84 89 90 91 93 94 68 65 61 64 87 85 88
63 65 64 65 68 69 68 66 65 68 68 66 61 62 66 72 75 74 72 78 79 78 79 79 83 88 87 70 65 59 61 76 88 90 95 92 65 60 61 64 69 63 67
60 62 61 60 63 66 67 64 65 66 66 66 67 62 67 73 74 74 75 71 79 80 76 76 83 86 89 90 63 59 58 60 76 89 84 68 60 56 61 59 64 61 82
59 60 57 57 58 62 63 64 65 66 65 64 66 68 64 68 73 77 81 79 74 84 86 83 77 80 87 88 93 85 77 62 69 72 80 79 72 64 74 78 70 80 85
59 58 56 54 56 59 59 61 63 64 64 65 66 68 72 70 72 75 78 81 76 74 84 83 85 83 84 88 78 80 93 91 80 79 86 86 86 86 87 87 88 88 86
56 54 57 54 54 56 57 60 61 59 59 62 66 69 72 74 76 75 75 65 58 57 55 53 59 80 68 56 56 53 54 55 55 80 83 86 87 88 89 88 89 89 85

GFSMW_sfc_temp_075.txt.gz
Temp
90 92 94 92 90 93 91 89 89 88 89 89 90 92 82 83 84 85 92 91 85 90 89 93 91 90 92 89 92 91 88 92 95 81 93 95 96 96 99 101 101 97 99
87 90 91 92 88 92 90 88 88 87 88 91 91 94 83 87 81 86 92 93 91 90 91 87 91 88 92 90 90 86 86 89 93 87 85 87 92 97 100 99 99 97 100
85 87 87 89 88 91 90 88 87 87 88 91 91 91 93 91 89 87 93 93 90 91 91 90 87 91 90 91 90 91 88 84 93 88 88 82 80 89 96 94 97 95 98
87 88 87 87 86 92 92 89 88 87 88 89 90 88 88 85 91 89 84 92 92 91 92 91 91 90 88 85 91 93 89 88 90 94 95 91 89 79 87 95 95 97 97
88 86 87 89 85 94 93 90 87 87 88 88 86 89 83 86 92 82 84 90 89 92 92 91 91 89 91 92 87 89 89 93 92 92 93 91 95 93 89 88 91 97 99
89 85 88 87 87 94 94 92 87 86 88 87 87 87 87 84 84 78 89 91 93 92 91 91 89 88 86 90 91 90 90 87 90 91 92 88 79 88 93 90 92 92 95
91 88 82 90 86 89 94 93 88 85 87 88 88 87 87 88 87 88 89 85 85 93 89 89 88 89 89 90 90 89 90 89 90 90 86 94 87 93 95 86 93 92 95
91 92 91 86 86 89 93 93 89 86 87 87 87 87 88 91 91 90 90 92 82 80 90 90 89 90 88 90 89 91 91 91 91 90 89 88 90 84 91 92 92 90 93
84 89 91 91 86 87 93 93 91 88 88 89 88 87 88 87 91 92 91 93 88 78 93 91 90 91 91 90 90 90 89 87 90 90 90 90 91 96 97 96 95 90 88
68 67 75 86 89 90 93 95 94 89 90 91 90 90 89 88 89 91 89 92 86 93 80 91 91 91 91 90 89 89 90 89 91 93 89 89 92 96 96 96 96 95 91
69 70 66 68 71 74 89 91 95 92 91 91 91 90 90 91 89 89 90 89 91 91 91 90 91 91 90 90 88 87 91 88 88 89 91 88 89 93 97 97 96 95 94
61 65 65 65 64 67 69 71 91 95 94 93 91 91 91 91 91 89 90 90 89 91 91 91 90 90 90 91 89 88 92 89 88 89 88 89 92 88 88 93 91 91 91
66 61 64 62 58 64 69 71 74 83 96 94 95 93 92 91 91 90 90 90 89 89 91 90 89 89 90 90 90 89 89 91 90 90 89 89 89 87 90 90 91 94 92
62 63 59 61 61 60 61 68 71 80 79 79 95 91 90 90 89 91 91 90 90 89 89 90 91 90 90 91 89 88 87 90 91 91 91 91 90 88 88 88 88 89 89
64 64 64 61 59 61 60 61 68 71 74 75 79 81 91 89 86 89 90 90 90 89 89 89 90 91 92 94 91 91 90 87 89 91 91 92 89 81 82 90 87 88 89
66 66 66 65 65 64 63 63 65 68 70 72 76 81 85 82 86 88 88 89 89 89 89 88 89 89 93 81 74 85 92 90 89 88 90 92 82 81 73 73 73 76 83
68 69 70 70 68 70 68 68 65 67 68 68 71 73 77 82 81 83 82 85 86 88 87 88 88 88 89 75 70 74 92 91 91 89 90 92 97 84 91 74 72 72 69
70 72 74 71 68 71 71 73 74 71 69 67 67 68 70 75 78 80 80 81 82 82 86 87 88 88 89 73 69 70 88 89 89 90 90 89 90 91 89 90 89 86 87
72 73 74 74 74 74 72 70 73 71 70 70 67 65 68 70 73 72 77 82 83 84 84 86 86 86 87 68 68 70 88 88 87 89 89 90 90 80 72 88 88 88 89
72 71 72 74 75 74 76 74 73 70 71 67 69 68 67 69 71 73 72 75 79 85 88 86 87 81 87 71 64 68 89 87 90 87 86 74 82 72 68 86 87 85 87
69 70 70 70 71 73 73 71 71 72 73 73 73 72 71 69 70 75 76 74 75 78 81 83 84 84 84 86 62 61 84 88 91 91 93 93 70 66 63 63 87 84 87
67 68 67 67 68 69 69 68 68 71 71 70 70 70 71 73 73 71 74 76 76 75 78 79 79 82 83 72 66 60 61 77 86 89 95 93 66 62 63 66 72 66 68
66 67 66 64 66 66 66 64 66 68 68 68 68 69 70 72 73 70 73 76 78 77 77 78 78 80 80 85 66 60 60 61 77 88 84 64 60 57 60 59 64 62 82
65 66 64 63 62 64 65 64 65 66 65 64 65 68 69 70 72 76 71 75 81 82 82 79 75 76 78 81 87 85 70 62 68 73 81 78 72 62 70 77 71 79 86
65 63 61 61 61 63 62 64 65 64 63 64 64 66 70 71 73 76 78 77 75 78 80 83 82 78 70 82 63 61 70 77 72 75 85 85 85 85 87 89 89 90 87
63 61 60 59 61 61 61 62 62 61 60 61 64 66 68 71 73 75 78 63 60 58 55 53 62 79 65 57 56 53 54 52 52 70 82 85 87 88 89 89 90 91 85

GFSMW_sfc_temp_078.txt.gz
Temp
89 87 88 92 90 90 88 87 86 84 85 85 84 79 83 83 82 82 83 80 78 87 86 84 87 80 79 79 85 85 82 83 82 82 82 83 87 88 87 88 88 88 90
84 86 90 92 91 87 86 85 85 84 85 85 84 82 85 84 80 80 84 82 83 87 87 81 85 81 81 84 86 83 80 82 83 80 78 74 80 85 89 87 90 89 89
81 85 86 86 88 82 86 85 84 83 84 86 85 82 74 74 72 73 81 87 85 87 85 84 85 82 83 83 85 83 77 80 83 84 80 73 72 78 83 85 85 86 86
82 82 86 85 87 79 88 85 85 83 84 85 85 84 83 77 81 84 82 86 87 85 84 87 86 82 77 75 83 87 82 81 79 82 87 83 81 76 75 81 84 85 89
85 85 88 87 87 86 89 86 84 83 83 84 84 83 83 78 77 80 77 81 84 86 86 85 87 83 76 77 81 85 84 82 80 78 83 82 82 82 79 74 78 82 84
86 88 88 87 86 86 90 86 83 82 84 83 85 83 82 72 70 76 75 78 84 86 84 86 85 83 76 79 81 86 86 83 83 82 82 81 79 78 78 78 79 80 83
82 87 85 86 86 84 87 86 83 81 83 83 84 83 83 83 76 77 78 83 79 85 83 85 84 81 83 81 85 86 84 85 83 83 82 82 81 82 81 80 81 79 82
86 78 88 87 84 84 85 86 83 81 83 83 83 83 84 81 83 75 81 78 75 77 85 85 85 86 85 86 85 84 83 84 84 84 82 83 81 83 83 81 80 78 80
68 72 86 88 79 86 85 86 83 83 84 85 84 83 83 83 86 85 86 81 76 81 82 84 85 85 83 85 83 80 82 83 82 84 83 82 83 84 85 85 83 79 75
65 65 69 76 76 86 89 90 86 84 85 86 86 86 85 85 85 85 85 88 76 75 75 73 81 85 83 83 83 82 80 80 81 84 83 83 82 83 85 84 84 84 80
61 62 63 66 70 74 76 71 87 86 86 87 86 85 86 86 85 85 87 87 89 76 73 72 72 79 85 85 83 81 81 82 82 83 83 82 83 82 83 82 83 83 83
60 61 60 60 61 66 70 68 73 73 88 88 86 86 86 86 86 85 86 87 85 86 78 74 72 80 83 82 83 82 84 81 82 83 82 83 87 83 82 82 81 82 82
59 61 61 60 59 58 62 67 68 68 71 78 89 88 87 85 86 84 86 86 85 85 87 86 85 85 84 84 82 83 83 83 83 84 83 83 83 81 81 81 82 82 83
63 59 60 61 62 58 60 62 67 66 68 71 72 81 87 87 88 85 84 84 85 85 85 85 84 84 85 85 84 82 82 82 84 84 85 84 83 81 81 82 80 82 80
65 66 63 63 63 63 63 59 60 66 68 69 71 70 71 84 88 86 84 85 84 85 85 85 84 84 86 89 85 84 83 80 81 83 84 85 85 80 80 84 81 80 80
67 67 68 68 66 65 65 65 62 61 66 67 68 69 72 75 79 82 83 85 84 84 83 84 84 84 90 80 75 82 85 83 82 81 83 85 81 79 74 73 74 77 79
70 70 69 69 70 71 70 67 65 66 62 63 67 67 69 70 72 78 82 83 82 83 82 83 84 83 84 74 70 72 86 85 83 82 82 85 91 80 84 73 72 72 69
70 71 73 71 72 73 72 72 73 70 68 69 68 66 67 69 71 74 71 74 79 80 80 81 83 83 85 72 70 69 80 83 83 84 82 83 83 84 83 84 81 80 81
72 72 73 74 74 73 74 72 72 72 72 70 70 68 67 67 69 70 71 71 73 77 78 79 81 82 83 69 67 70 81 82 82 84 84 83 83 76 72 81 81 82 83
71 70 72 74 73 72 74 72 72 72 71 70 71 71 71 69 67 66 70 72 74 74 76 78 80 77 81 70 65 67 81 81 83 82 82 73 78 71 65 78 81 79 81
69 69 69 68 68 69 69 67 69 69 70 70 70 70 70 69 70 70 69 70 69 72 74 74 77 79 79 80 63 62 80 83 83 83 84 86 69 65 63 63 81 80 82
68 69 67 66 67 67 66 64 64 67 67 67 67 68 68 70 71 68 69 69 70 70 73 73 75 80 81 70 68 60 61 74 82 82 85 84 66 62 64 66 69 66 68
66 68 66 65 65 65 64 62 63 64 64 64 64 65 66 67 68 68 69 70 70 72 74 76 76 79 82 82 65 62 59 61 70 84 79 70 63 60 59 59 62 60 76
65 65 63 62 62 64 64 63 63 64 63 61 62 64 64 64 66 69 71 72 73 72 75 77 78 79 77 77 77 77 73 63 65 67 76 74 69 66 68 69 67 70 77
64 63 61 61 60 62 61 63 63 62 60 60 61 62 65 65 66 68 71 72 73 74 74 75 74 73 73 73 64 63 68 68 67 63 76 78 79 78 78 80 82 80 77
64 61 61 60 60 60 60 61 61 59 57 56 59 60 61 63 64 65 66 63 58 56 53 52 59 73 62 57 55 52 49 53 53 67 71 72 78 79 81 80 80 82 80

GFSMW_sfc_temp_081.txt.gz
Temp
84 84 86 86 84 81 80 79 82 76 77 75 74 72 72 73 73 73 73 76 76 80 77 76 74 73 74 75 78 77 76 79 76 76 75 78 81 78 78 80 81 81 82
80 83 82 86 83 80 79 77 76 76 76 76 75 76 73 74 74 74 75 78 76 79 79 74 75 79 75 75 77 77 74 75 76 74 72 72 76 78 80 79 82 80 82
79 80 83 83 82 79 78 76 77 76 76 77 76 74 73 71 70 71 73 77 79 80 79 78 76 77 74 74 76 77 75 73 75 78 74 70 71 70 75 78 79 80 79
80 80 82 80 81 79 81 77 78 76 77 77 77 76 72 71 71 72 73 76 79 80 81 79 76 75 74 73 75 80 76 74 72 74 81 76 76 69 70 75 77 79 81
80 80 80 83 81 82 83 79 77 76 76 77 76 74 72 73 72 73 75 75 77 80 81 80 78 75 75 77 75 77 76 75 74 72 77 76 76 75 72 69 73 76 78
77 78 82 82 80 81 82 80 76 76 75 76 77 75 72 69 69 71 71 74 75 79 82 82 76 75 75 76 75 77 77 76 76 75 74 76 72 70 72 70 70 73 77
77 80 80 80 80 79 81 79 75 75 75 75 76 75 72 72 70 72 73 73 73 75 76 77 76 75 76 76 76 76 76 77 75 76 75 75 74 76 75 72 72 72 74
72 75 79 81 81 79 80 80 76 74 75 75 75 75 75 72 72 73 72 72 71 74 77 77 77 77 78 77 76 76 76 76 75 75 76 75 75 78 76 75 76 76 72
67 70 71 71 79 77 81 80 78 77 77 76 75 75 75 74 73 72 72 74 73 77 74 75 77 77 77 78 76 74 75 75 76 74 76 75 76 77 77 77 77 76 69
65 65 66 66 70 73 77 81 79 78 78 78 78 76 76 76 75 74 76 74 73 73 74 75 75 76 77 79 76 75 76 75 79 77 75 76 76 77 76 76 76 76 74
59 61 63 64 65 68 69 70 70 71 74 77 76 76 76 77 76 76 77 74 73 71 72 73 73 73 76 77 76 75 76 75 74 76 76 76 77 77 76 76 75 76 75
58 59 59 60 62 65 66 67 68 68 69 70 72 77 77 78 76 76 77 78 74 72 71 71 70 72 75 76 75 75 78 76 75 76 75 76 81 76 76 75 75 74 74
58 59 58 57 59 61 63 66 66 66 68 68 70 72 74 76 75 76 78 78 74 72 72 72 72 74 75 75 76 76 76 76 76 76 75 76 76 75 74 74 75 75 77
59 58 56 59 59 59 60 61 63 66 67 68 67 68 68 69 72 76 78 77 78 77 76 77 76 76 77 78 77 77 76 76 77 77 77 77 77 76 75 75 74 74 74
61 60 59 59 60 59 60 60 61 62 64 65 66 67 69 68 69 71 74 76 77 78 78 78 77 78 79 82 78 77 77 75 76 76 78 78 78 77 76 78 75 74 72
63 63 63 63 62 61 59 60 60 61 62 61 62 65 67 69 70 71 71 75 75 77 77 76 77 77 83 77 74 77 77 77 76 75 75 78 78 76 73 73 74 76 74
61 60 60 61 61 62 62 60 61 61 62 62 61 62 64 65 67 70 69 68 72 75 76 76 77 75 77 72 70 71 80 78 78 76 77 78 85 77 79 72 71 71 70
62 61 61 61 62 63 64 65 68 66 62 63 63 63 63 63 64 67 67 67 69 70 74 74 75 75 77 70 70 69 73 75 76 78 78 78 79 78 77 77 76 76 77
61 62 63 63 61 62 63 63 64 64 64 65 65 66 66 67 65 63 64 67 67 69 70 73 74 74 75 68 65 66 71 74 75 77 76 77 77 74 69 75 75 75 76
60 60 61 61 60 59 61 60 61 61 61 63 64 65 65 65 64 65 65 66 67 67 68 70 71 71 74 68 63 64 71 69 75 75 76 69 74 68 66 74 77 74 77
60 60 59 57 57 58 58 56 57 56 59 61 62 63 64 62 64 64 64 63 63 64 66 67 69 72 73 74 64 61 70 76 71 77 79 80 66 62 62 62 79 78 81
60 60 56 56 56 57 56 54 53 56 58 58 58 59 60 63 65 61 62 64 65 65 66 66 67 70 74 66 66 61 59 69 72 75 80 81 65 61 60 62 66 63 66
57 56 55 54 55 56 55 52 53 55 55 55 55 55 57 59 60 58 58 61 62 62 65 68 71 73 74 75 63 59 59 57 62 68 69 61 58 59 59 58 60 60 69
54 54 53 52 52 53 54 53 54 54 53 51 52 54 53 55 56 60 61 60 61 65 66 66 68 67 69 69 69 69 68 61 64 63 66 66 65 64 68 67 65 64 68
53 53 51 51 51 52 52 52 52 51 50 50 51 51 53 53 55 57 58 59 61 60 59 61 65 67 68 68 61 62 66 66 64 62 65 69 71 72 75 76 77 77 70
52 52 52 51 50 51 50 51 51 50 47 48 49 50 51 51 53 53 54 55 53 52 51 50 51 62 57 54 53 50 48 49 50 59 63 66 70 73 74 74 74 75 74

GFSMW_sfc_temp_084.txt.gz
Temp
81 82 81 82 80 79 78 76 75 74 73 72 71 70 70 71 72 73 75 74 74 78 73 73 74 73 72 73 72 73 74 75 73 73 73 74 75 76 76 76 76 76 78
79 80 80 80 80 77 78 75 75 74 73 74 72 73 71 72 72 73 74 74 74 76 76 74 74 73 73 74 74 74 72 72 73 71 69 68 73 74 76 76 78 76 77
77 78 79 80 78 76 76 75 75 74 74 73 72 71 71 70 70 71 72 74 76 77 74 76 76 75 73 73 73 73 73 71 72 76 71 67 66 67 72 74 75 76 75
76 76 78 78 77 77 76 77 76 74 74 73 73 72 70 69 70 72 72 74 77 77 77 76 74 74 72 73 74 77 74 72 71 71 77 73 71 68 69 72 74 75 77
75 76 79 78 78 79 77 78 76 74 74 74 73 74 72 72 71 71 72 73 74 76 78 76 74 73 72 73 74 76 73 73 72 71 71 72 73 71 69 67 72 74 75
75 76 78 79 79 81 79 77 75 75 73 74 74 72 71 71 69 70 70 72 73 75 78 77 74 74 74 75 74 74 74 73 73 73 72 72 71 68 70 67 68 69 75
73 76 76 78 77 78 78 76 75 72 73 73 74 72 71 69 70 71 74 71 72 73 74 74 74 73 74 74 74 74 74 74 73 73 73 72 72 72 71 69 68 69 70
72 72 74 77 76 75 77 78 74 73 72 72 73 73 72 70 69 71 71 71 71 73 75 75 75 75 76 75 74 73 74 74 73 73 72 73 74 73 73 72 70 69 69
67 69 69 69 73 74 76 78 74 74 73 72 72 73 73 72 72 71 71 71 72 75 75 76 75 75 75 75 74 72 73 73 73 73 73 73 73 74 74 74 73 72 67
62 65 66 67 69 71 70 73 76 74 75 73 73 73 73 73 73 71 71 71 72 75 73 74 75 75 75 75 74 73 73 72 73 73 72 73 74 75 74 74 73 72 71
60 60 63 67 68 68 69 69 69 70 69 69 70 72 73 74 73 72 73 73 72 72 73 72 73 73 74 75 74 72 73 74 72 72 73 74 74 74 74 73 73 73 72
59 59 60 63 65 66 67 68 68 68 68 69 70 71 71 72 73 73 74 72 72 72 72 72 71 72 73 73 73 73 76 74 73 74 72 73 78 74 74 73 72 72 72
58 58 59 59 61 63 65 66 67 68 68 68 68 69 69 71 71 72 74 73 73 72 72 71 71 70 72 72 74 74 74 74 74 74 73 73 73 72 73 72 72 72 74
58 58 57 58 59 60 61 64 65 67 68 67 68 67 67 67 68 70 71 72 72 72 71 71 71 72 73 74 74 75 74 74 75 75 74 74 74 73 73 73 72 72 71
59 59 58 59 58 59 60 61 62 63 65 66 66 66 68 68 69 69 69 69 71 73 72 72 73 74 75 78 75 75 74 73 74 74 75 75 76 74 74 75 73 71 71
61 61 62 61 60 60 59 61 60 61 62 62 62 64 65 67 67 69 69 69 69 72 73 73 74 75 79 73 71 75 74 73 74 73 74 75 75 74 71 70 71 74 72
63 63 62 62 62 63 63 61 60 62 62 61 61 61 62 62 63 67 68 67 68 69 71 72 72 73 74 70 69 70 74 73 74 74 74 75 81 75 77 72 69 68 68
62 62 64 63 63 62 63 63 63 62 62 63 63 62 62 62 63 64 64 65 67 68 68 70 71 72 73 67 66 67 70 73 74 75 75 75 76 76 75 76 74 74 74
57 57 58 57 57 58 58 60 60 60 61 62 62 63 63 63 64 62 63 63 65 64 66 67 69 69 71 64 62 64 69 69 72 75 75 76 76 72 66 75 75 75 76
57 56 56 57 57 55 57 57 55 55 55 57 60 61 63 62 62 61 60 62 63 64 65 66 67 66 69 65 62 63 69 69 70 71 73 67 74 66 64 71 75 73 76
56 56 55 53 53 54 54 51 51 51 54 56 57 58 59 60 61 61 61 60 60 61 63 64 66 67 67 68 61 60 68 72 71 69 73 77 65 60 60 61 77 76 79
55 55 52 52 52 53 52 50 50 52 53 53 53 54 56 59 61 59 60 60 60 61 62 63 62 66 69 63 62 59 58 63 69 71 74 75 61 56 56 59 62 61 62
52 53 51 50 50 51 51 48 49 50 51 49 49 50 52 55 56 56 57 59 60 60 62 63 63 66 66 69 61 57 58 59 64 67 66 59 56 55 59 60 59 59 65
51 51 50 48 48 49 50 48 49 49 48 46 47 48 47 49 50 55 57 56 56 57 57 57 58 60 62 63 60 61 62 62 62 63 68 65 62 59 63 64 68 66 69
50 50 48 47 47 47 47 48 48 47 45 45 45 44 45 44 45 48 50 53 53 53 53 55 55 55 56 60 53 50 53 58 58 53 60 62 66 67 69 71 72 73 72
48 48 47 47 46 47 46 47 47 46 43 42 43 43 43 43 45 45 48 51 50 49 47 46 47 55 52 49 47 45 46 46 46 52 57 59 63 66 69 70 71 74 72

GFSMW_sfc_temp_087.txt.gz
Temp
78 79 78 79 78 76 73 73 72 71 73 70 70 69 69 69 71 72 74 74 73 74 73 72 72 72 71 72 72 71 72 72 71 71 72 71 73 74 74 74 74 75 76
75 76 77 78 77 75 74 72 73 71 71 72 71 71 69 71 71 72 73 74 74 75 75 73 73 71 72 73 73 72 71 70 71 70 66 66 71 72 73 73 75 74 75
75 75 75 76 78 75 74 74 72 72 71 72 71 70 70 69 70 71 71 73 75 75 75 74 73 72 72 72 72 71 71 70 71 71 70 65 64 65 71 72 72 74 73
76 75 77 75 76 76 77 75 74 71 72 71 71 71 70 68 69 70 71 73 75 75 75 75 74 73 71 71 73 75 72 70 71 70 74 70 69 66 68 71 71 73 75
75 75 77 77 76 78 77 75 74 71 71 71 71 71 69 69 70 72 71 72 73 75 76 75 73 72 71 71 73 73 73 71 71 70 69 70 70 68 67 66 70 71 73
75 77 78 74 73 78 77 75 74 72 71 72 71 71 70 70 69 69 70 71 71 72 74 75 73 72 72 72 73 73 73 72 72 71 71 70 70 68 68 65 66 67 72
71 73 72 73 73 75 75 76 74 71 71 72 71 71 71 70 70 70 70 71 70 71 73 73 72 72 73 74 72 73 73 72 71 72 71 71 71 70 69 67 66 66 69
69 72 72 73 72 74 75 76 73 73 70 71 71 71 70 68 68 70 70 70 71 72 73 73 73 73 74 73 73 72 72 73 72 72 71 71 75 72 71 70 68 68 68
66 68 71 72 72 72 76 76 75 75 72 71 71 71 70 70 69 70 71 71 71 74 73 73 74 73 74 74 73 71 72 72 71 71 71 71 75 76 72 71 70 69 66
62 64 66 68 69 69 72 74 75 74 73 70 70 71 71 71 71 70 70 70 71 71 73 73 74 73 73 73 72 72 71 71 71 71 71 71 73 76 76 72 72 70 69
60 62 63 67 69 70 71 70 70 70 69 71 71 71 71 71 71 71 71 70 70 71 73 72 73 73 73 73 72 72 72 71 71 71 71 72 72 72 75 75 72 71 70
59 60 62 64 66 68 69 69 69 68 68 68 69 70 71 72 71 71 72 71 72 71 70 72 71 71 71 72 72 72 74 72 71 72 70 72 75 72 72 72 74 71 71
58 59 60 61 62 65 67 68 68 68 68 68 68 68 67 69 70 71 72 73 71 70 70 71 70 70 71 71 72 72 72 72 72 72 71 72 71 70 71 71 71 70 72
57 57 58 59 60 61 63 66 68 68 68 68 68 67 67 67 67 68 68 70 71 71 70 70 70 70 71 73 72 73 72 72 73 73 72 71 72 71 71 71 71 70 69
59 58 58 58 58 60 61 62 64 65 67 67 67 66 68 67 68 68 68 68 69 70 72 71 70 71 72 75 72 73 73 71 72 73 73 73 73 72 72 73 72 70 69
59 60 61 60 59 59 60 61 61 61 62 63 64 65 66 66 66 68 68 68 68 68 68 70 71 71 75 71 69 73 73 72 72 72 73 74 73 73 69 68 69 72 71
61 62 62 62 61 62 61 61 60 61 62 61 62 62 62 62 62 63 64 66 66 67 67 68 70 71 71 67 66 69 73 72 72 71 72 73 79 73 75 72 69 68 67
62 62 62 60 60 62 62 61 62 62 62 63 62 62 63 62 62 63 62 63 64 64 64 65 66 68 70 64 62 64 68 70 71 72 73 72 74 73 73 74 73 73 74
58 57 59 59 59 60 60 59 59 60 59 60 60 60 60 62 61 59 60 61 62 62 63 64 65 66 66 62 61 63 68 68 69 70 71 73 73 69 65 69 72 74 75
57 55 55 55 55 53 55 54 53 55 54 55 57 59 60 59 60 59 57 59 60 62 63 64 65 64 65 62 60 61 67 68 68 70 70 65 69 66 62 68 72 72 74
53 53 53 51 50 51 53 50 50 49 52 53 54 54 55 57 58 59 58 58 58 57 58 61 62 64 64 65 57 56 65 67 69 69 70 71 64 57 56 56 70 73 73
52 52 50 49 49 50 50 47 47 48 50 50 50 50 51 54 55 54 57 59 60 59 60 60 57 59 64 60 57 55 55 58 65 68 70 69 59 55 55 56 58 57 59
51 50 49 48 48 48 48 46 46 48 48 47 46 47 48 50 50 50 52 54 55 56 56 56 57 58 58 63 56 56 55 56 57 64 62 58 55 53 57 60 59 58 64
50 49 48 46 45 46 47 46 46 47 46 45 44 45 44 45 45 48 50 49 50 51 53 53 52 53 56 58 59 58 56 57 55 56 58 58 58 57 59 60 64 66 66
48 48 46 45 44 45 45 46 46 45 43 43 43 42 43 41 43 44 45 47 48 48 48 50 50 50 51 55 50 48 51 51 52 48 53 56 59 61 63 65 66 68 68
46 46 45 44 44 44 44 45 45 44 42 41 42 41 41 41 42 41 42 47 48 47 46 45 45 51 49 47 45 44 44 45 45 47 51 55 58 60 62 63 65 67 68

GFSMW_sfc_temp_090.txt.gz
Temp
76 76 77 77 75 73 72 72 71 71 71 70 70 70 70 71 72 73 75 75 75 76 75 75 75 75 75 75 76 75 74 76 75 75 75 75 77 78 78 79 79 80 81
75 74 75 76 75 73 73 71 71 70 71 71 71 72 71 72 73 73 74 75 76 76 76 74 75 75 75 76 76 75 74 74 75 74 71 70 74 77 79 77 79 79 80
71 73 73 74 75 73 72 72 71 71 71 72 71 70 71 71 71 72 73 75 76 76 77 75 75 75 75 75 76 75 74 74 74 74 74 71 70 70 76 78 78 78 79
75 74 74 74 74 74 75 73 71 71 72 71 71 71 71 70 71 72 73 75 77 77 77 76 75 75 74 75 76 77 75 74 74 74 76 74 74 72 71 76 77 77 80
74 74 76 76 76 77 75 74 71 70 71 71 72 72 70 71 72 72 73 74 75 77 77 76 75 75 74 75 77 76 76 75 75 74 74 72 74 73 72 72 74 77 79
73 75 78 77 75 77 77 75 71 70 71 71 71 71 71 71 71 71 71 72 74 75 76 77 75 74 74 75 76 76 77 75 75 75 74 73 75 73 73 72 73 73 77
71 72 74 71 72 75 76 75 72 71 71 71 71 71 71 72 72 72 71 71 72 73 75 76 74 74 75 75 75 76 77 76 76 75 75 74 76 75 74 73 73 73 75
68 71 71 72 72 74 75 75 74 73 71 72 72 71 71 71 71 72 71 72 72 74 76 76 76 75 76 76 75 76 77 76 76 77 76 76 77 77 76 75 74 74 74
68 69 69 72 70 71 75 75 73 73 72 73 72 71 71 71 71 71 73 72 73 75 75 75 75 75 76 76 75 75 75 76 76 76 76 76 77 78 77 77 76 75 73
64 66 67 70 70 71 71 74 74 72 71 72 72 72 72 72 72 72 72 72 73 74 74 75 75 74 75 75 74 74 75 75 75 76 76 75 77 78 78 77 77 76 75
62 63 64 68 69 70 71 71 71 71 70 70 72 72 72 73 73 72 73 72 73 73 72 73 75 74 74 75 74 74 75 74 74 75 75 76 76 77 78 75 77 77 77
60 62 63 65 68 69 70 70 69 69 69 69 70 71 72 73 73 71 73 74 73 73 72 73 74 74 75 75 75 74 75 74 74 75 74 75 78 76 76 77 77 77 77
59 60 62 63 64 67 68 68 69 68 68 68 68 68 68 69 69 71 72 73 74 73 72 72 71 72 73 73 74 75 74 74 74 75 75 75 75 75 76 75 76 76 77
58 58 59 61 62 63 65 67 68 68 68 68 68 68 68 69 69 69 69 70 72 73 73 73 72 72 73 73 74 75 74 74 74 74 75 75 75 75 76 76 75 76 75
58 58 58 59 60 61 63 64 65 66 68 68 68 67 68 68 69 69 70 70 70 70 72 73 73 73 73 76 73 74 74 75 75 75 76 76 75 72 73 77 75 74 74
59 60 60 60 59 60 61 62 63 63 65 64 65 66 66 65 66 68 68 68 68 69 70 70 72 72 74 68 68 72 75 75 75 74 76 77 72 73 69 68 69 73 75
58 60 60 61 60 60 61 60 61 63 63 62 62 63 63 63 63 65 65 66 65 66 67 68 69 69 71 64 63 65 71 74 75 75 75 77 81 74 77 69 67 67 67
59 59 59 60 60 60 59 60 61 61 61 61 60 61 61 61 62 63 62 63 64 65 65 66 67 68 69 62 61 63 69 71 74 75 76 76 77 77 76 77 77 77 78
59 59 59 59 60 59 60 58 57 58 59 58 59 59 60 60 60 59 60 60 61 62 63 65 65 66 66 57 58 60 68 71 72 73 74 75 75 69 64 73 74 75 77
58 57 57 59 58 57 59 57 55 55 54 55 56 57 59 58 57 58 57 59 59 61 63 64 62 62 63 56 56 60 63 65 68 72 73 65 68 63 60 70 73 73 75
54 54 53 52 52 53 54 51 51 51 52 54 54 53 54 56 55 57 58 58 59 58 58 58 59 60 59 57 55 55 57 56 62 66 68 70 59 56 55 56 69 70 72
52 53 51 50 50 51 52 49 49 50 51 51 51 50 51 53 54 53 55 56 56 56 55 57 57 58 59 56 55 54 55 57 57 60 62 62 56 53 54 57 59 58 59
51 51 50 48 49 50 50 48 48 50 49 48 48 48 49 50 50 50 51 52 53 54 54 55 54 55 58 58 55 54 54 56 55 57 58 55 53 54 58 59 59 58 69
50 51 49 48 47 49 49 49 49 49 48 47 47 47 48 48 48 50 51 50 50 50 51 51 50 52 54 56 56 55 55 55 57 57 56 56 55 55 59 60 67 71 71
50 51 49 48 47 48 47 48 48 48 46 46 46 46 47 46 47 48 48 49 50 49 49 50 50 50 50 52 48 47 51 51 52 48 55 58 61 63 64 66 68 69 71
49 48 48 48 47 47 47 47 47 47 46 46 46 46 46 46 47 46 47 47 47 46 44 44 46 51 48 45 43 42 43 43 45 51 53 56 58 59 61 62 63 66 66

GFSMW_sfc_temp_093.txt.gz
Temp
85 85 85 86 86 84 83 82 82 81 81 81 81 82 82 82 83 85 84 84 85 84 85 87 85 87 87 86 86 88 85 89 88 88 91 91 92 92 93 94 95 93 95
82 83 84 85 85 84 83 81 81 80 81 82 82 84 82 84 85 84 83 84 85 84 86 84 85 85 87 84 84 84 88 88 86 85 86 85 89 93 94 93 94 93 96
82 81 82 84 85 83 82 81 81 80 81 82 81 81 81 81 82 82 84 85 85 85 84 85 86 85 86 88 85 85 84 86 86 83 85 84 82 85 92 91 94 91 95
84 83 83 83 84 84 84 83 81 80 81 81 82 79 80 79 84 84 85 85 85 85 85 84 85 84 87 84 86 88 86 86 84 87 87 84 83 84 85 92 93 93 96
84 82 83 84 85 85 84 83 81 80 81 81 81 83 79 85 85 84 82 82 83 85 86 84 84 83 87 85 85 84 84 87 86 86 87 84 87 84 85 85 89 94 95
84 82 78 80 83 85 84 83 80 79 80 80 81 80 80 79 82 82 82 84 86 86 84 85 84 83 84 84 86 84 84 85 85 87 86 86 86 85 86 86 86 86 92
81 81 77 79 80 81 79 75 81 79 80 80 81 81 81 81 81 82 83 82 83 83 84 84 83 85 83 84 84 83 83 85 86 84 87 88 88 88 87 86 87 87 91
80 81 80 76 72 73 80 80 81 80 80 80 80 81 81 84 85 83 84 84 82 82 85 84 85 84 84 84 84 86 88 86 87 84 85 89 89 89 88 87 86 86 88
77 79 81 80 78 72 77 82 79 79 81 82 81 81 81 81 83 81 82 85 83 86 84 85 85 84 84 84 83 86 84 84 85 85 85 88 90 90 90 89 88 86 84
74 73 77 79 79 74 71 74 74 79 79 79 80 82 81 81 82 81 81 82 84 82 82 83 84 83 84 84 82 84 84 83 86 87 84 84 89 89 90 90 90 89 87
66 67 71 73 73 72 71 73 73 79 76 72 74 79 82 83 80 82 82 81 81 81 81 81 82 83 82 83 80 81 83 82 83 83 83 84 84 89 90 89 88 88 88
64 65 67 70 73 73 71 72 73 75 74 77 72 73 79 82 80 80 81 81 81 81 81 81 82 81 84 82 82 82 84 82 82 83 82 83 87 83 84 88 84 86 86
63 63 65 66 70 74 74 70 70 71 70 70 69 69 71 78 79 79 81 81 81 81 81 80 80 81 81 81 82 82 82 83 84 84 83 84 83 82 86 84 86 88 86
62 62 62 63 65 70 70 73 71 72 70 70 69 69 70 73 76 78 78 79 80 81 81 82 81 80 81 82 82 82 82 82 83 84 83 83 84 83 83 84 83 85 84
61 61 61 61 63 64 66 68 69 69 69 69 68 68 69 73 75 76 76 77 78 79 81 81 81 81 81 81 80 81 82 82 82 85 85 85 81 75 77 85 83 83 81
61 61 61 61 61 61 63 64 64 66 69 69 68 69 70 67 67 73 74 75 75 75 77 78 76 77 77 64 65 72 81 82 82 82 82 84 75 76 69 68 69 75 81
62 61 60 59 59 60 61 61 62 64 64 64 65 65 66 67 65 67 69 72 72 74 73 74 76 75 75 61 61 65 80 81 81 81 82 83 90 80 84 72 68 68 66
66 65 65 61 59 60 59 60 62 62 62 62 62 63 63 65 67 68 66 67 69 71 72 73 74 71 68 59 59 62 78 79 80 81 81 81 82 82 81 83 83 84 84
68 68 69 64 61 60 59 58 57 58 60 59 60 62 62 63 64 63 66 67 69 70 71 71 71 66 63 57 58 68 75 76 76 77 79 78 79 62 61 77 81 82 84
64 63 62 62 62 61 61 59 56 56 55 57 58 59 59 59 59 61 64 66 68 69 71 69 67 60 60 56 56 63 73 70 73 73 70 62 62 58 57 69 75 76 81
62 61 63 61 58 60 63 59 60 57 58 58 61 60 61 57 58 62 63 63 64 66 66 65 65 63 62 58 54 55 64 66 69 70 72 72 59 56 55 56 67 69 68
63 65 63 63 64 64 61 58 56 58 58 58 59 59 59 62 59 59 60 60 60 59 62 63 65 65 61 55 54 53 54 56 63 62 64 64 55 52 53 58 60 55 59
63 65 64 61 62 62 63 60 58 59 59 59 58 58 59 59 59 59 59 63 60 60 57 61 63 62 64 63 55 54 54 56 59 61 57 54 52 53 61 61 59 57 78
61 63 62 61 59 60 60 60 59 59 59 57 57 58 58 58 59 62 62 61 61 61 61 59 57 56 60 59 59 59 59 59 62 57 65 61 55 54 59 67 73 77 77
61 62 61 61 59 59 58 59 58 59 58 57 57 58 59 58 58 58 59 60 57 56 59 58 59 58 55 51 47 47 54 54 55 53 66 68 68 69 71 71 72 72 74
59 60 61 60 59 58 58 57 58 58 58 58 59 59 60 60 59 59 57 46 47 45 43 43 49 57 46 44 43 41 42 43 45 59 62 64 65 65 66 67 68 71 70

GFSMW_sfc_temp_096.txt.gz
Temp
92 93 93 93 92 91 90 88 88 86 85 86 89 90 90 91 92 93 90 90 91 90 90 94 92 94 93 91 92 95 91 95 96 95 96 96 98 98 100 102 103 98 102
91 91 92 93 93 90 89 88 87 86 86 89 89 91 91 92 93 93 90 91 90 90 91 90 92 92 92 90 90 89 95 96 94 92 93 90 93 99 101 101 102 99 103
90 90 90 92 93 90 89 88 87 87 87 89 88 85 88 89 87 89 90 91 90 91 90 90 93 90 92 93 92 92 89 93 93 91 92 89 88 94 99 97 100 97 101
91 92 91 91 93 92 92 89 88 87 87 87 88 83 81 81 85 91 93 92 90 91 91 90 90 89 94 91 91 94 92 90 91 95 95 91 89 90 90 97 98 99 100
93 92 92 93 94 94 92 91 88 86 88 86 87 87 85 83 91 92 86 89 88 90 92 90 89 89 93 90 91 90 90 94 93 94 95 91 95 92 92 91 94 99 102
93 93 94 94 94 95 93 92 87 85 86 86 86 85 84 86 81 85 87 91 92 91 90 90 89 89 91 89 91 90 89 90 91 94 94 94 92 92 94 93 92 94 97
92 93 91 91 92 92 91 90 87 84 86 86 86 86 86 85 85 85 84 90 87 89 88 88 87 90 88 90 91 88 89 90 92 88 95 96 95 95 94 95 93 94 98
92 92 83 80 80 90 88 81 82 86 86 86 86 86 86 89 86 89 89 84 89 90 91 89 90 90 90 90 89 91 92 91 91 89 89 95 97 97 95 93 92 92 94
90 91 90 89 87 79 82 79 78 85 87 88 86 86 85 85 89 86 87 86 86 93 90 90 89 90 90 89 89 92 89 90 89 90 89 91 97 98 98 96 95 91 89
87 88 90 87 81 76 74 79 85 78 83 86 88 86 87 87 88 88 85 86 90 88 88 89 90 89 89 88 86 90 89 88 91 93 90 88 95 94 96 96 96 95 92
83 83 85 87 86 78 73 71 72 78 82 82 84 82 86 89 88 87 88 87 88 87 85 86 88 88 87 88 86 86 88 87 88 89 88 87 89 92 96 96 95 94 94
70 73 79 80 77 79 74 72 71 72 74 82 80 81 85 86 88 87 88 87 86 86 86 87 86 86 89 88 87 86 89 86 87 88 88 87 92 88 88 93 90 92 91
68 68 73 76 78 77 73 72 72 77 76 73 75 77 75 81 84 85 87 88 87 86 89 88 85 87 88 87 86 87 87 88 88 88 88 87 88 86 90 90 91 93 93
66 65 65 70 72 76 78 77 74 73 72 71 71 70 71 74 77 83 85 87 87 86 88 88 88 88 88 88 88 88 87 87 88 89 89 88 88 87 86 88 87 89 88
70 65 63 64 65 69 76 77 76 75 76 72 70 72 73 73 75 78 81 85 86 87 86 87 88 88 89 91 86 87 87 86 86 88 89 90 86 78 79 89 88 86 87
70 67 64 64 63 63 66 71 73 74 77 73 73 72 75 74 73 75 78 80 81 82 84 84 85 86 90 63 65 74 87 87 86 86 87 88 81 79 71 70 70 75 80
71 67 64 63 63 62 63 63 64 66 67 68 68 68 70 72 70 67 68 75 78 80 80 82 82 75 75 60 61 65 84 87 86 86 86 88 94 83 88 74 69 68 67
67 68 64 62 60 59 59 62 62 62 63 64 64 65 66 68 69 69 68 70 74 79 80 80 78 74 69 58 59 63 81 86 86 86 85 85 84 68 74 86 88 89 89
75 71 69 64 61 59 58 58 60 62 59 62 64 64 65 66 69 71 73 76 77 77 78 79 73 71 67 56 57 67 84 83 83 79 72 75 74 59 60 79 83 85 87
76 74 69 63 61 61 61 59 55 57 58 60 62 64 65 65 65 67 66 70 72 75 79 75 72 63 68 54 55 62 83 79 84 79 73 61 65 56 56 73 77 78 81
73 72 70 66 65 63 60 58 58 55 57 58 60 62 61 62 64 65 65 68 73 73 72 72 71 69 65 61 54 54 62 63 76 82 82 81 58 54 53 53 74 74 72
69 68 65 62 61 64 66 60 56 59 59 59 59 60 63 68 68 65 64 68 67 67 69 69 70 72 69 55 55 54 55 57 60 62 68 69 55 52 53 58 60 58 59
67 70 69 68 68 66 63 59 59 62 63 61 60 61 64 69 68 67 63 65 67 70 67 71 72 73 71 70 56 55 56 58 66 67 63 54 53 53 59 56 59 57 82
70 73 71 69 67 68 69 68 65 66 65 63 62 63 66 66 69 74 74 74 71 71 72 71 69 69 70 65 62 61 66 62 67 64 71 68 61 58 64 67 71 74 78
71 71 70 69 68 68 67 68 67 66 66 64 66 66 68 67 66 67 66 69 62 58 68 70 71 69 69 59 48 48 56 59 57 54 74 75 75 75 76 77 76 77 78
70 69 70 69 68 67 66 66 66 66 66 66 68 69 70 69 70 67 63 47 47 45 44 43 50 60 47 44 43 41 41 42 45 64 67 69 68 70 71 73 74 75 73

GFSMW_sfc_temp_099.txt.gz
Temp
92 94 96 97 95 93 91 91 84 88 88 88 89 82 81 84 87 84 92 92 92 92 91 89 92 94 91 89 93 93 91 95 96 94 96 96 98 99 100 102 103 99 102
89 90 93 96 95 93 91 90 88 86 86 90 81 85 81 85 85 83 92 92 93 92 92 91 90 89 93 91 91 90 92 96 96 92 94 89 94 99 102 101 102 101 103
91 91 91 95 96 92 91 90 90 86 89 82 85 90 89 84 91 86 90 92 93 92 92 91 83 92 89 90 91 93 91 90 94 92 87 87 85 93 98 97 100 97 101
86 93 93 95 96 93 93 91 90 88 89 90 85 85 81 80 87 76 80 88 92 93 93 92 91 90 92 88 89 95 91 90 92 96 97 91 91 85 86 97 98 99 100
90 83 94 95 98 96 94 93 90 89 90 89 86 88 87 85 91 78 85 80 90 92 93 92 91 90 92 92 89 90 90 94 90 94 95 92 96 94 91 86 93 99 101
86 89 96 96 95 97 92 93 89 87 89 88 88 87 85 87 82 82 84 88 88 92 91 92 91 91 92 90 91 92 91 89 90 93 92 84 82 86 90 91 91 94 97
92 88 92 87 90 90 91 90 89 86 88 88 88 88 87 86 85 86 89 75 76 76 88 90 88 91 90 91 91 89 89 90 90 89 92 97 95 96 94 93 90 93 97
82 90 92 85 92 90 94 91 89 86 88 88 88 89 88 90 90 90 86 92 78 93 88 90 90 90 91 91 91 92 92 92 92 90 89 93 97 97 96 93 92 84 93
85 89 92 93 86 90 91 91 87 85 89 90 88 86 86 88 85 87 89 90 90 82 92 90 90 91 91 91 91 91 91 83 90 91 90 91 95 98 97 97 96 92 80
92 88 88 90 84 79 83 82 83 81 85 90 90 88 88 88 89 89 87 88 80 82 87 90 90 90 90 90 89 90 91 89 90 93 90 90 93 95 96 97 97 95 92
90 90 88 90 90 86 83 74 78 80 81 86 87 85 89 86 89 89 89 89 90 88 88 88 89 90 89 90 88 87 88 88 88 89 88 89 89 91 94 94 96 95 94
88 89 91 83 82 79 74 76 72 73 75 77 82 84 87 89 84 88 89 90 88 89 88 88 87 88 88 89 87 87 89 88 87 88 88 88 92 89 88 92 88 90 90
78 80 82 83 81 77 81 81 77 73 73 74 77 77 84 84 82 82 88 90 89 87 89 89 86 86 87 88 88 86 87 89 89 89 89 89 88 87 89 88 89 92 93
72 73 75 77 78 80 79 79 77 76 74 74 71 72 73 74 75 77 77 80 87 87 88 89 89 89 89 84 89 88 88 88 90 90 90 89 88 87 88 88 87 89 88
71 66 68 68 74 77 79 80 80 77 77 78 79 77 72 73 75 75 77 78 81 86 88 88 88 90 91 79 75 89 89 87 87 89 89 90 87 77 79 88 86 83 86
72 70 65 66 65 68 77 79 79 79 80 79 78 78 78 78 77 79 76 76 78 80 85 85 85 84 75 63 65 71 82 87 88 86 88 89 81 80 74 72 72 75 81
73 71 68 67 65 63 66 69 72 77 77 75 74 75 76 77 77 78 76 72 75 79 82 82 77 73 71 60 61 65 81 84 84 84 84 87 85 80 86 74 69 70 68
73 73 70 65 62 60 61 63 63 66 69 69 68 69 70 71 72 74 75 70 74 77 79 79 77 75 69 58 59 63 78 84 85 84 83 82 78 67 70 77 83 87 88
77 75 72 66 61 58 57 59 60 59 60 64 65 67 69 71 72 72 75 75 74 77 79 76 76 73 67 56 57 65 85 83 81 75 75 80 78 59 59 76 81 82 83
75 73 69 65 62 59 59 57 56 58 56 56 60 68 67 67 69 72 73 75 77 77 77 73 75 64 69 55 56 61 78 81 79 81 72 60 65 56 56 69 77 78 81
74 71 69 63 62 63 62 58 58 55 58 60 61 60 64 65 67 67 68 68 72 75 74 74 72 67 62 60 55 55 71 68 67 67 70 74 58 55 54 53 71 73 68
74 75 72 71 66 65 62 57 57 62 59 59 60 60 63 69 68 67 67 68 68 69 71 72 73 74 71 56 56 56 57 59 66 69 70 64 56 53 53 58 59 57 61
74 75 72 69 68 69 72 59 59 60 61 60 58 62 62 64 66 66 67 71 69 67 73 73 72 73 76 74 57 56 57 59 66 73 66 57 54 54 57 59 58 58 72
74 75 73 70 68 66 65 65 68 68 64 62 63 61 60 61 65 66 72 76 75 73 72 73 73 74 73 67 64 66 69 64 67 65 70 69 64 57 61 63 75 79 79
75 75 72 72 71 72 71 70 66 65 64 65 66 65 67 65 68 68 61 66 61 57 61 74 73 72 73 58 49 49 56 58 60 54 71 76 76 76 77 77 78 79 78
75 74 74 73 72 71 70 71 71 70 70 70 71 72 75 72 73 70 66 47 48 46 44 44 50 60 48 45 44 42 42 43 44 62 69 70 70 68 70 71 72 74 72

GFSMW_sfc_temp_102.txt.gz
Temp
92 93 92 93 91 90 87 84 81 81 82 83 79 80 82 81 82 81 86 87 89 90 86 84 87 76 79 86 87 85 83 84 87 84 84 85 89 89 89 90 91 90 91
90 89 88 92 91 89 85 81 84 84 84 85 81 79 79 83 82 86 87 88 85 88 88 83 82 77 81 86 86 86 83 85 86 80 79 77 81 87 92 90 92 91 91
85 88 88 89 91 88 87 82 79 83 84 85 78 79 74 80 75 81 86 86 86 89 85 83 78 80 76 78 84 86 83 80 84 86 81 74 73 79 85 88 88 89 88
85 89 89 89 91 89 90 86 82 82 83 78 78 80 77 73 78 78 73 75 87 86 88 86 81 81 74 74 81 88 84 82 80 84 88 85 82 77 77 83 86 88 91
87 84 89 88 92 91 90 88 85 83 85 83 83 82 81 81 77 76 74 75 81 86 87 87 87 84 79 78 77 80 83 84 80 80 83 82 82 83 79 77 80 84 87
87 82 86 86 91 91 90 88 85 83 85 85 84 81 85 80 76 71 75 77 79 84 88 86 88 86 75 77 83 86 86 84 82 82 80 70 67 65 70 73 78 81 85
82 88 83 86 88 87 89 87 84 83 84 85 85 85 82 82 82 79 77 79 73 72 76 86 84 84 83 82 84 83 84 84 82 82 82 70 68 72 71 80 69 76 81
78 83 79 74 86 84 87 81 83 82 84 85 84 84 85 85 83 82 77 73 72 72 79 83 84 86 86 87 86 85 84 84 83 83 82 82 82 82 84 81 70 71 69
73 75 77 84 74 73 77 80 82 82 84 86 85 86 86 86 84 84 87 82 73 73 72 71 84 85 83 86 83 84 83 76 75 79 83 82 83 84 85 84 82 77 65
73 79 75 74 74 73 72 80 85 84 83 83 86 85 84 84 87 87 84 82 71 70 71 73 80 85 85 85 86 84 82 80 78 83 82 81 83 83 84 83 82 82 77
77 72 74 76 73 76 80 79 82 81 81 82 79 83 83 85 85 86 87 86 74 72 71 75 83 82 85 86 82 83 83 81 80 82 82 81 83 82 82 82 82 80 80
79 73 74 73 80 78 81 77 75 75 76 76 78 83 75 76 82 78 74 85 84 82 82 84 81 82 83 83 82 82 84 82 81 83 83 83 87 82 82 81 80 81 81
81 79 78 77 79 80 80 79 77 76 75 77 76 76 79 79 80 79 73 73 82 84 86 84 80 80 81 81 80 81 81 81 82 83 82 83 81 81 81 80 80 81 82
75 79 78 78 77 79 79 79 80 79 76 73 75 75 74 76 75 78 79 79 79 79 80 82 80 80 83 82 81 81 80 81 84 84 85 84 84 81 81 81 80 81 79
72 74 70 71 75 77 79 81 80 79 77 74 75 76 76 73 73 74 74 75 75 76 78 79 81 72 71 68 69 72 77 79 82 83 82 84 77 76 74 81 79 78 76
72 70 70 72 68 72 75 77 77 77 79 76 75 76 76 76 76 75 74 74 74 75 76 76 77 71 67 63 64 67 77 80 80 80 81 82 76 77 72 72 72 74 76
69 68 67 67 65 65 69 70 76 78 77 77 77 75 75 77 77 77 75 75 73 73 73 72 70 65 63 60 61 65 75 80 79 79 79 80 75 69 71 73 68 69 68
69 69 67 64 61 62 62 63 65 69 69 69 73 73 75 74 75 75 75 74 74 71 72 71 70 68 63 58 59 63 73 78 79 78 77 76 67 62 64 70 77 79 80
72 71 69 65 61 59 60 60 60 60 63 64 65 68 70 71 71 72 73 75 72 70 72 74 70 67 61 56 57 64 74 78 76 71 66 71 65 59 59 71 72 75 77
70 68 65 62 60 59 59 58 58 58 56 57 60 64 67 68 69 70 70 72 75 75 74 72 70 65 62 56 56 58 72 71 72 69 65 60 60 57 56 64 67 70 71
70 68 65 62 60 61 60 56 56 55 58 59 59 60 63 65 67 68 69 70 70 73 72 71 67 64 62 59 56 56 65 65 68 69 68 68 58 55 54 54 63 67 62
70 70 65 62 63 63 62 59 57 59 60 59 60 61 62 63 64 66 67 69 68 68 69 70 70 69 65 58 56 56 56 59 64 67 68 65 56 53 53 56 60 57 60
73 74 70 66 65 64 63 60 58 61 62 62 60 59 62 63 64 66 64 65 65 65 66 67 70 70 66 61 57 57 58 61 63 67 61 57 55 55 57 58 58 59 67
73 73 70 68 66 69 69 64 62 61 61 60 60 62 61 60 63 62 60 61 67 67 69 69 68 70 69 66 62 60 58 59 62 58 61 62 59 57 61 63 69 70 70
73 73 71 70 67 67 66 68 68 68 67 66 65 65 65 64 62 54 52 57 49 50 55 58 64 62 60 54 48 49 55 55 53 48 58 64 65 66 65 66 66 68 66
71 70 72 71 70 70 69 68 68 67 66 65 65 65 68 65 68 63 57 47 48 46 45 44 50 55 49 46 45 43 43 43 44 57 64 64 66 64 64 62 62 62 62

GFSMW_sfc_temp_105.txt.gz
Temp
84 85 85 85 84 81 82 79 76 76 76 76 73 74 73 77 78 78 82 82 81 82 80 75 75 70 73 75 79 79 78 78 79 77 77 77 80 81 78 83 83 83 84
84 83 83 84 83 78 81 79 76 76 77 76 75 73 73 75 76 78 80 81 81 82 82 75 73 74 73 74 78 78 78 76 78 74 72 71 76 79 82 81 85 83 84
81 81 81 82 83 78 78 76 76 76 76 75 74 73 75 74 71 73 74 77 82 82 80 74 73 74 72 72 72 75 76 72 76 78 75 69 71 72 77 80 81 83 81
79 81 82 82 82 80 80 78 79 75 76 76 73 73 71 70 72 72 72 73 78 81 81 77 76 74 69 69 71 79 76 76 73 76 82 78 75 71 72 76 79 81 83
80 82 83 83 83 83 81 78 76 75 76 75 75 72 72 73 72 72 74 73 74 80 82 79 78 73 71 73 73 74 77 75 74 72 72 73 69 67 68 68 72 72 76
78 78 85 84 83 84 81 79 76 75 76 75 76 74 74 72 70 70 72 72 73 74 75 82 78 73 71 72 74 76 77 77 75 72 70 69 66 64 67 65 65 67 70
72 78 80 77 84 82 81 79 77 74 76 76 76 76 75 74 72 71 72 73 71 70 72 73 77 76 74 74 75 76 77 77 76 76 72 69 67 69 67 69 68 63 67
74 75 79 72 73 81 82 78 76 74 76 76 76 76 76 75 73 74 71 71 70 72 73 74 75 77 77 78 76 77 77 75 74 74 74 72 72 69 69 68 65 63 67
72 74 77 71 72 70 78 77 75 75 76 77 76 76 75 75 75 75 72 72 72 73 73 73 72 74 78 80 77 76 75 75 75 74 74 74 74 79 76 71 67 68 64
74 73 73 71 71 70 71 75 75 75 77 78 77 77 76 76 76 74 70 70 71 71 73 72 72 73 78 78 77 76 75 74 74 74 75 75 75 77 77 76 73 74 67
73 71 71 70 70 70 70 74 73 75 75 76 75 75 75 75 76 75 75 72 70 70 70 72 72 76 78 78 77 76 76 76 74 75 75 75 78 78 76 76 75 75 76
75 71 70 69 68 69 70 70 71 74 75 75 73 74 73 72 73 72 73 73 72 72 72 74 75 76 77 76 76 76 78 75 74 76 73 75 81 75 75 74 73 73 74
69 68 68 69 69 71 71 72 73 72 72 72 72 71 70 72 73 73 72 74 75 75 75 76 75 76 75 75 76 76 76 76 76 76 75 76 76 74 75 74 73 73 75
70 67 67 68 69 71 73 72 71 70 70 71 72 71 70 70 72 73 73 73 73 74 76 76 76 75 71 70 70 72 73 74 77 76 76 76 76 75 74 75 73 73 72
68 68 68 69 69 70 70 70 72 70 70 70 70 70 71 70 71 71 71 72 72 73 75 75 70 69 67 65 65 67 70 75 74 74 77 74 74 72 72 74 73 72 71
66 66 66 66 66 67 70 73 72 71 70 70 70 71 71 71 71 71 70 71 72 71 73 70 68 65 63 61 63 64 66 72 75 73 74 72 69 69 68 68 68 69 70
64 65 64 63 63 64 65 65 70 72 71 70 71 71 71 70 71 71 71 69 69 70 70 65 61 60 60 60 61 64 66 70 72 72 72 71 67 63 65 68 69 69 67
65 63 61 61 61 62 62 63 67 69 69 70 69 70 70 70 69 69 69 69 69 69 67 65 63 60 61 59 59 63 69 69 69 67 69 64 60 59 62 67 70 71 68
66 64 62 60 59 60 61 61 61 62 62 62 65 67 69 66 67 66 67 68 68 68 67 67 62 59 59 57 58 63 67 68 64 60 64 61 58 59 60 65 65 67 67
63 60 61 60 59 58 59 59 58 58 57 58 61 63 65 65 63 64 65 65 67 68 68 67 64 60 58 56 57 60 63 63 65 62 60 61 59 56 56 61 61 62 63
61 61 61 59 59 60 59 56 57 56 58 58 59 60 63 63 63 62 64 64 65 66 65 63 60 59 58 57 56 56 58 57 60 62 62 62 58 55 54 55 60 61 59
61 61 60 59 60 60 59 56 55 57 58 59 60 60 60 63 64 64 64 63 63 64 64 63 60 59 58 58 56 55 56 59 58 58 59 58 55 53 54 56 58 56 58
62 61 59 59 60 60 59 58 55 56 57 56 58 59 60 61 63 63 60 62 63 63 62 65 65 59 58 56 56 56 56 57 56 55 55 55 54 55 58 59 59 58 61
63 62 59 56 55 57 57 55 55 59 56 54 54 55 55 56 58 56 54 54 56 59 60 57 61 62 59 56 54 55 53 55 53 51 51 55 56 58 58 60 61 61 60
66 62 60 58 57 58 55 55 55 55 54 57 56 55 57 57 54 48 52 52 50 48 55 51 52 55 53 48 46 47 49 48 46 45 51 57 57 57 56 57 56 57 56
66 65 61 59 58 57 57 58 58 58 56 55 55 55 55 54 51 47 45 47 47 46 45 45 52 51 48 47 44 42 42 43 45 47 50 53 54 54 54 53 53 54 55

GFSMW_sfc_temp_108.txt.gz
Temp
81 80 80 81 79 78 77 76 74 73 74 73 72 71 71 74 74 77 79 79 79 77 75 74 72 71 72 72 75 77 77 77 75 74 74 74 75 76 72 78 79 79 81
78 78 79 80 79 77 77 75 74 74 74 73 72 72 71 74 74 73 77 79 79 78 76 74 73 73 72 72 73 74 75 75 74 71 70 67 68 71 75 73 80 80 81
75 76 78 79 78 76 76 76 74 73 74 73 72 71 72 72 72 72 73 75 77 78 75 74 74 72 70 70 70 73 74 72 74 74 72 65 67 68 74 76 73 75 73
77 77 78 77 78 77 77 76 75 73 74 73 72 72 70 69 70 71 72 73 76 76 77 75 75 72 68 70 72 74 73 73 72 73 76 70 70 68 69 70 72 75 74
77 77 78 79 79 79 78 77 75 73 73 73 73 71 70 72 71 71 72 72 73 77 78 75 75 72 71 72 73 74 73 74 72 70 68 69 67 68 66 66 66 70 72
74 76 79 80 79 79 77 75 73 73 73 73 73 72 71 71 70 70 70 71 72 73 74 78 75 74 73 73 72 74 76 74 73 71 68 67 66 67 67 64 64 65 69
72 73 76 76 77 77 76 75 72 71 72 74 74 73 72 71 71 70 71 71 71 70 72 74 73 72 73 71 73 74 74 74 73 73 70 66 67 66 67 67 66 64 66
72 73 75 74 75 77 77 76 73 71 72 73 73 74 73 72 71 71 71 71 70 70 73 73 74 75 75 75 75 73 74 73 72 73 71 71 68 68 69 67 66 63 64
72 72 72 71 70 72 75 75 73 73 72 74 74 73 73 73 72 73 71 71 72 73 72 74 73 74 75 75 75 73 74 73 72 71 72 72 72 73 72 69 67 68 64
70 71 70 71 70 69 68 71 74 74 74 73 75 74 72 74 73 71 71 72 72 72 72 72 72 74 74 75 74 73 74 74 72 72 72 72 72 73 73 72 69 71 67
70 68 68 70 70 72 72 69 70 74 74 74 73 73 73 73 73 71 71 71 70 70 71 71 72 73 74 75 74 73 74 74 73 73 72 73 73 73 74 73 72 71 70
72 69 68 68 69 70 70 70 69 70 73 72 72 73 73 73 73 72 72 70 69 69 69 70 72 73 75 74 74 74 75 74 73 74 73 73 77 72 72 71 71 71 71
68 68 68 67 67 69 70 71 69 69 72 71 72 72 71 71 72 71 71 71 72 72 71 72 73 74 74 73 73 73 73 73 74 73 72 73 73 72 72 72 71 71 73
67 67 66 67 67 68 70 69 71 72 71 70 71 70 70 70 71 71 70 71 72 71 71 72 73 70 68 68 69 70 71 73 74 74 74 73 73 72 72 73 71 71 70
66 66 66 66 66 67 70 70 70 70 70 69 69 69 69 70 70 70 70 71 71 71 71 69 68 66 65 65 64 67 68 71 74 74 74 70 70 69 68 69 70 71 68
67 66 66 67 67 68 68 70 69 69 69 68 68 69 69 69 69 70 71 70 71 70 70 67 65 63 63 62 63 65 66 68 71 72 72 68 68 68 67 67 67 68 70
65 65 65 66 67 66 69 68 70 69 69 68 69 70 69 69 69 70 70 68 69 69 65 60 59 60 61 61 62 65 67 68 70 69 69 68 67 63 64 66 68 67 66
63 63 61 61 61 63 63 66 69 69 68 68 69 69 69 68 68 68 67 67 67 66 62 60 59 62 61 59 60 66 69 68 64 65 63 60 59 58 62 66 66 67 66
61 61 61 60 61 62 62 63 64 65 66 67 68 69 69 68 66 66 66 66 66 65 63 62 60 61 58 57 59 65 67 63 59 60 61 60 59 59 59 64 64 64 65
59 58 60 60 60 59 61 61 59 61 60 61 62 65 66 65 64 64 63 64 66 66 64 61 60 60 58 57 57 60 62 61 63 59 60 60 59 56 56 62 60 61 61
58 59 61 58 58 60 60 58 58 57 58 60 60 61 63 63 63 62 62 63 64 64 62 62 58 58 57 56 55 56 59 58 59 59 60 60 57 54 54 54 58 58 57
59 61 59 58 59 59 59 57 56 58 59 59 59 59 60 63 64 64 62 61 63 62 61 58 56 58 57 56 54 54 55 58 59 57 57 57 54 52 54 56 55 56 59
58 61 60 59 59 59 59 57 56 58 58 59 58 59 60 61 61 60 59 60 61 64 63 62 59 58 59 58 54 54 55 56 57 56 54 53 52 55 57 57 57 58 56
57 56 56 55 53 54 55 53 54 55 54 53 53 54 55 54 54 57 54 54 57 57 59 57 57 56 54 56 55 52 50 53 52 52 53 56 57 57 56 58 57 57 55
60 57 56 54 54 54 52 53 53 53 52 52 53 52 53 51 48 46 47 51 50 50 54 53 53 55 54 54 48 48 50 47 48 50 57 58 54 54 54 53 53 53 52
59 57 57 56 55 54 53 53 53 53 52 51 51 52 51 49 48 47 47 47 47 46 45 46 49 50 48 46 45 43 43 43 45 50 50 50 50 51 50 49 49 49 51

GFSMW_sfc_temp_111.txt.gz
Temp
76 78 79 79 77 75 73 72 72 71 73 71 70 69 70 71 72 75 74 75 75 75 73 71 69 70 71 72 74 73 73 73 72 72 72 72 74 75 71 75 76 77 78
73 76 76 78 76 75 74 72 73 71 73 72 70 71 71 72 72 72 74 76 75 76 74 73 71 72 71 71 73 72 72 72 71 70 68 66 68 69 70 71 75 77 78
72 73 75 75 76 75 73 73 72 71 72 72 71 70 71 70 71 71 72 73 76 77 75 73 71 71 69 70 70 72 72 70 72 71 70 65 66 66 69 71 70 71 71
74 75 75 74 76 76 75 73 71 71 72 72 71 71 69 69 69 69 70 72 75 75 76 74 73 70 67 70 71 74 73 71 69 71 72 68 69 67 66 69 69 71 72
75 75 76 76 76 77 76 74 72 71 71 71 71 70 69 70 70 70 71 71 72 75 76 74 73 71 70 71 72 73 73 72 70 68 67 68 66 67 66 65 66 68 70
76 76 78 77 76 77 76 74 71 71 71 71 71 71 70 70 69 69 70 70 71 72 74 76 73 72 71 71 72 73 74 72 71 69 67 66 66 65 66 64 62 64 67
75 75 73 74 73 74 74 73 71 70 71 71 72 72 71 70 70 70 70 70 70 70 71 73 72 71 71 71 71 72 72 73 72 71 69 66 66 66 66 66 65 63 64
74 74 74 73 73 75 74 74 71 69 70 71 71 71 72 70 70 70 69 70 70 70 72 73 73 73 73 72 72 72 72 72 71 71 71 69 68 67 68 67 65 64 64
69 74 74 73 71 72 73 74 71 70 71 71 71 71 71 71 71 71 71 70 71 71 72 73 73 74 74 74 73 72 72 71 71 71 71 71 70 69 70 68 66 66 62
70 71 72 72 72 72 72 72 72 71 71 71 71 71 71 71 72 71 71 70 71 72 71 71 72 73 73 74 73 72 72 71 71 71 70 70 71 71 71 71 68 68 66
70 70 69 71 71 72 71 71 71 71 71 71 71 71 71 71 71 71 71 71 71 70 70 70 70 71 72 73 73 72 72 72 71 71 71 71 71 71 71 71 70 69 67
72 70 69 68 69 70 70 70 69 71 72 72 71 71 71 71 71 71 71 71 69 69 69 69 69 71 72 73 73 73 74 73 72 72 71 71 75 71 70 70 70 69 69
67 67 67 67 68 69 68 68 68 68 70 71 70 71 71 71 70 69 70 71 70 70 70 70 71 71 72 72 72 72 73 73 73 73 72 73 72 71 71 70 70 70 71
68 67 67 66 66 67 67 68 69 69 70 71 72 71 71 71 71 71 70 69 70 69 71 71 71 71 69 69 69 70 71 71 73 73 73 73 72 71 71 71 70 70 69
67 67 66 66 66 66 67 68 69 71 70 71 70 71 71 72 71 70 70 70 70 71 71 69 68 66 66 65 64 66 67 69 71 73 73 71 70 69 68 70 70 69 67
68 68 69 68 66 67 69 69 69 69 69 69 70 71 70 70 70 69 69 70 70 70 70 67 65 64 64 63 63 65 65 68 71 71 70 69 69 68 67 67 66 67 67
65 64 64 66 66 67 68 68 68 69 68 68 69 69 68 68 68 69 69 69 69 69 64 62 61 61 61 61 62 64 67 68 69 71 69 67 66 63 65 66 66 65 65
62 62 62 62 62 64 65 67 68 68 68 67 67 68 68 68 68 68 67 67 67 64 59 58 60 62 62 60 62 66 68 66 66 65 65 62 61 59 63 65 66 64 63
61 61 61 60 62 63 63 66 66 67 67 67 68 68 68 67 67 66 65 66 64 61 58 59 58 59 60 57 59 64 62 61 60 60 61 62 60 59 60 64 63 63 62
58 60 60 60 60 61 62 62 64 66 66 67 67 67 67 66 65 65 65 65 64 62 61 59 59 59 58 56 57 61 63 60 60 60 60 60 58 56 56 60 60 60 59
57 60 59 57 59 61 61 59 60 59 61 63 63 64 64 64 64 63 64 65 63 61 59 59 57 57 57 55 55 57 58 58 59 59 59 58 55 53 54 56 59 58 57
59 60 58 57 58 58 58 57 57 59 60 62 62 61 61 62 63 64 63 63 62 62 61 59 55 56 55 55 54 54 55 59 57 56 56 56 52 52 54 55 55 55 57
59 60 58 58 58 59 59 56 56 58 58 58 58 58 58 59 59 59 61 62 63 63 60 58 56 54 57 54 53 53 54 56 55 54 54 53 52 53 55 56 56 56 54
57 58 59 57 56 56 55 56 55 56 56 56 57 58 57 56 58 58 58 60 61 61 61 60 58 56 55 57 56 56 52 54 53 53 55 55 55 55 54 54 54 53 52
56 56 55 53 52 51 52 53 53 53 52 51 51 50 51 50 48 46 50 53 46 49 53 52 53 53 55 56 51 49 49 49 49 51 54 54 52 52 51 51 51 50 50
56 55 54 53 53 51 51 51 52 52 51 50 50 50 50 48 47 47 46 47 47 45 44 45 48 49 48 46 45 43 43 43 45 53 51 49 50 49 49 47 47 46 49

GFSMW_sfc_temp_114.txt.gz
Temp
75 76 77 77 74 73 72 71 71 71 72 70 70 70 71 72 73 74 75 74 75 76 74 74 74 74 74 74 77 76 76 76 75 76 76 76 76 76 75 78 78 80 83
71 74 76 77 74 73 71 71 72 70 72 72 70 71 71 73 74 74 75 75 75 76 75 74 74 75 74 75 76 76 75 75 74 74 72 70 73 73 74 74 78 79 80
70 72 73 74 74 73 71 71 71 71 72 72 71 71 72 72 72 73 73 75 77 76 76 75 74 74 72 74 75 76 75 74 74 74 74 69 71 71 74 75 74 75 76
73 73 73 73 73 74 73 72 71 70 72 72 72 72 70 70 70 72 72 74 77 76 76 76 74 73 71 74 75 76 76 75 75 75 75 72 73 72 72 75 75 76 78
73 73 74 75 75 75 74 72 71 71 72 71 72 71 70 71 72 72 73 73 74 77 78 75 75 73 73 74 76 76 75 75 74 72 71 72 71 71 71 72 72 75 77
73 74 77 75 75 75 74 73 71 71 71 72 72 71 71 70 70 71 71 72 72 74 76 77 75 75 75 75 75 76 76 75 73 72 71 72 71 71 70 70 68 70 72
72 73 75 73 73 72 73 72 71 70 71 71 72 72 72 71 72 71 72 71 71 72 73 75 74 74 75 74 74 75 76 76 75 74 73 71 71 70 71 71 69 68 70
74 73 75 72 73 73 73 73 71 71 71 72 71 72 72 72 71 72 71 71 72 72 74 74 75 75 75 74 74 75 76 75 75 75 74 74 72 72 72 72 72 71 70
71 73 74 73 71 72 73 73 71 71 71 72 71 71 72 72 72 72 72 71 72 73 74 75 75 75 76 76 75 75 75 75 74 75 75 75 74 74 75 72 72 72 70
70 72 73 72 71 72 72 73 72 71 72 72 72 72 72 73 72 73 72 72 72 72 73 73 74 74 75 75 75 75 76 74 75 75 74 74 75 76 75 75 72 74 72
70 71 72 72 71 71 71 71 70 70 70 72 71 71 72 72 73 72 72 72 73 73 73 72 73 73 74 75 74 74 75 74 74 75 74 75 75 76 76 76 75 74 73
72 71 71 70 69 70 71 70 70 71 71 72 72 72 72 72 72 72 73 72 71 72 72 73 72 72 72 75 74 74 75 74 74 75 74 75 77 74 75 75 74 75 74
70 68 68 69 68 69 71 71 71 71 72 72 72 71 71 71 71 72 72 72 71 72 72 71 71 72 74 75 75 74 74 75 75 76 74 75 75 74 74 74 75 75 75
66 67 67 68 68 68 69 69 69 71 71 71 71 70 70 71 72 72 71 71 71 71 72 72 73 74 73 73 73 72 72 73 74 75 75 76 75 74 74 74 74 74 73
66 65 66 66 67 67 67 68 68 69 70 70 71 70 71 72 71 70 70 71 71 71 70 71 71 70 70 69 68 70 71 71 73 74 75 74 71 69 69 73 73 73 72
67 68 67 67 66 67 67 68 68 69 70 70 69 70 71 70 70 70 70 70 70 70 70 69 68 68 67 63 64 66 68 70 71 73 73 70 69 69 67 66 66 68 71
64 64 65 66 66 67 67 67 68 69 69 69 69 68 69 69 69 69 68 68 68 69 68 66 64 64 64 61 62 65 68 70 70 71 69 68 67 65 68 66 65 65 64
63 63 63 64 63 65 67 68 68 68 67 67 68 68 69 68 68 69 69 69 69 67 64 61 61 63 64 59 61 65 70 68 65 65 65 63 62 62 63 70 69 67 67
61 61 61 61 62 63 65 66 67 67 68 67 67 68 68 68 68 68 68 67 66 63 61 62 61 61 60 57 59 65 64 62 61 61 64 62 61 59 60 67 67 67 66
60 59 60 61 60 61 64 66 66 66 66 66 66 68 68 68 66 66 66 67 65 62 62 61 60 59 59 56 56 63 65 62 63 62 61 59 58 57 57 64 65 65 64
59 59 58 57 58 61 61 61 60 60 62 63 63 64 65 65 65 65 66 66 63 62 61 60 59 58 57 57 54 56 63 64 64 63 63 62 55 53 54 57 65 63 64
60 60 58 57 58 60 59 57 57 59 61 62 61 60 61 62 63 63 64 65 63 60 60 59 59 58 58 54 54 54 55 59 62 61 61 59 52 52 53 57 54 55 59
58 60 59 57 58 59 58 56 56 57 58 58 58 59 58 59 59 60 62 63 63 62 60 60 59 58 59 58 54 53 55 56 59 59 57 54 52 53 56 56 56 56 59
57 59 59 57 56 56 57 57 57 58 58 56 57 57 57 55 56 56 58 58 61 61 61 59 59 58 57 58 58 57 57 56 57 57 59 57 56 55 56 57 57 58 58
57 57 56 55 54 54 54 56 55 56 54 54 55 55 55 54 52 49 50 54 51 53 59 58 59 58 58 58 52 52 54 53 50 54 57 58 56 56 56 56 56 56 55
56 55 55 55 54 55 54 54 55 55 54 53 54 53 53 52 52 52 51 48 47 45 44 45 51 54 49 47 45 43 43 43 45 56 57 54 56 56 55 55 53 53 52

GFSMW_sfc_temp_117.txt.gz
Temp
84 85 85 86 85 84 82 82 81 81 82 81 81 82 79 83 84 85 83 83 84 84 84 87 86 87 87 85 87 88 86 89 88 89 89 90 91 91 90 92 94 94 95
82 82 84 85 84 83 82 81 81 80 81 83 82 84 83 85 86 85 84 85 84 84 85 84 86 85 88 86 86 86 89 88 87 87 86 84 88 90 93 91 91 92 94
81 81 82 84 84 82 81 81 81 80 81 82 82 81 82 79 83 83 84 84 84 85 84 84 85 85 85 88 85 87 85 88 86 83 87 84 85 87 91 89 91 88 91
82 83 83 83 84 83 83 82 81 80 81 81 82 80 82 82 81 80 82 85 85 84 85 84 84 83 85 84 86 88 87 86 86 87 88 85 85 86 86 90 91 90 92
83 82 83 84 85 84 83 83 81 80 82 81 82 84 80 85 84 83 81 83 83 85 86 84 83 82 85 84 84 85 85 88 88 87 86 84 86 84 85 85 89 91 92
83 83 85 85 84 85 84 83 80 79 80 81 81 81 80 80 82 79 82 82 85 86 84 85 83 83 84 83 86 85 84 85 85 87 86 87 86 86 85 84 85 84 90
82 82 82 82 83 82 82 82 80 79 80 81 81 81 82 81 80 81 79 79 79 81 82 82 82 84 83 84 83 83 84 85 86 84 88 86 87 87 86 86 85 84 88
83 82 82 82 81 82 82 81 80 79 80 81 80 81 81 84 84 83 82 84 84 84 84 84 83 84 84 84 83 86 87 84 86 83 84 87 87 87 87 87 85 84 86
80 81 83 78 81 81 82 82 81 80 81 82 81 80 81 81 83 82 82 84 82 84 82 83 83 84 84 84 83 86 84 84 84 84 83 86 88 87 88 86 86 84 81
75 80 81 82 82 82 82 83 83 81 82 83 82 83 83 82 82 82 81 81 81 81 81 81 82 83 83 84 82 82 84 83 85 86 82 83 87 87 87 87 86 85 84
72 74 74 75 77 82 81 80 81 81 81 81 81 81 81 82 81 81 82 81 80 80 79 81 82 82 82 83 82 81 83 82 83 84 82 82 84 86 87 86 86 85 84
72 74 73 72 77 79 81 80 79 80 81 82 80 80 80 80 81 81 81 80 80 81 81 81 80 81 81 82 82 82 84 82 82 83 82 83 86 82 81 85 83 83 83
70 71 70 68 72 78 79 79 79 79 80 80 80 79 79 79 79 80 79 80 80 80 81 80 79 80 81 81 82 82 82 83 83 83 83 82 83 80 84 80 79 83 85
74 70 72 68 70 75 77 76 76 74 78 79 80 79 79 80 80 80 79 79 79 79 79 80 80 81 82 82 81 80 80 80 81 80 83 83 82 81 82 81 80 83 78
74 73 73 74 70 68 73 78 73 72 78 76 79 79 78 77 79 79 79 78 78 79 79 79 78 79 79 78 77 79 80 80 80 81 80 81 72 69 69 74 79 78 78
71 72 71 69 68 69 70 71 75 73 72 77 77 78 74 73 76 73 76 76 75 74 77 77 70 70 73 64 65 67 77 78 79 79 81 76 72 71 67 66 67 70 76
72 72 71 67 67 66 68 68 70 73 73 74 74 73 72 74 72 71 72 73 71 70 73 70 68 68 67 62 62 65 76 77 76 76 79 75 72 70 71 67 66 66 65
64 66 69 67 68 70 70 68 69 69 70 68 69 70 69 69 71 70 70 70 70 69 68 66 65 64 62 59 60 64 74 76 73 69 71 71 65 63 67 70 69 69 72
62 62 64 64 66 68 72 71 70 69 70 68 70 69 70 69 68 68 69 69 70 68 64 63 64 64 63 57 59 66 70 69 65 64 65 68 66 60 60 68 68 69 70
62 61 61 62 62 63 65 68 68 68 68 67 67 68 68 69 69 69 68 67 67 64 62 62 65 62 65 56 57 67 77 73 73 70 68 59 64 57 58 73 74 72 72
62 61 61 59 60 62 63 63 64 63 65 65 66 65 64 66 67 67 67 65 63 62 61 62 63 63 63 62 55 57 74 75 74 74 73 74 56 54 56 58 73 71 72
62 63 61 59 59 60 60 59 59 61 63 63 64 64 63 62 63 64 66 63 61 60 59 59 60 59 60 56 54 54 56 62 72 73 73 70 53 53 55 63 55 57 65
64 64 62 60 60 58 59 56 56 59 60 60 59 59 61 60 59 61 63 63 63 61 61 64 61 59 61 61 55 54 56 57 70 71 62 55 52 52 58 56 56 60 68
65 66 65 60 59 60 59 58 58 58 58 56 56 58 55 56 57 55 58 60 61 61 60 60 61 60 61 62 63 64 66 60 67 62 64 60 60 56 62 64 67 67 66
66 66 65 63 62 62 62 63 62 63 62 61 60 58 57 54 52 51 52 54 51 50 57 58 62 63 61 59 52 55 60 59 53 63 68 68 66 62 59 59 65 62 65
66 65 64 63 62 63 62 62 63 65 64 63 64 64 62 59 58 57 56 48 48 47 45 46 54 57 50 46 45 43 44 45 47 62 67 66 67 66 65 65 62 61 62

GFSMW_sfc_temp_120.txt.gz
Temp
92 93 93 93 92 91 89 88 87 86 88 88 89 90 88 91 92 93 90 89 91 90 90 95 93 95 95 92 94 94 92 96 96 95 96 96 97 97 98 101 102 101 101
91 91 91 93 92 90 89 87 87 85 86 89 87 91 91 92 93 93 90 91 91 90 91 90 93 91 96 92 92 91 96 97 97 95 95 90 93 98 100 100 100 99 102
90 90 90 91 92 89 88 87 86 86 86 88 89 88 86 88 87 90 91 91 91 91 90 90 92 91 91 95 91 92 90 95 95 91 92 90 90 94 98 96 99 97 100
91 92 91 91 92 91 90 89 87 86 86 87 87 83 85 88 89 88 90 90 91 91 91 90 90 89 93 90 93 95 91 89 93 96 98 91 90 91 91 97 99 98 99
91 92 92 92 94 93 91 90 87 86 87 86 87 88 87 90 91 92 87 87 88 91 92 90 89 89 92 90 89 90 89 95 92 94 95 92 95 93 91 90 96 99 100
92 93 94 94 93 94 92 90 86 85 86 85 86 85 86 87 88 86 88 89 90 92 90 91 89 89 90 89 91 90 89 89 90 93 93 93 92 93 92 91 91 92 97
91 92 92 92 92 91 90 89 86 84 86 86 86 86 86 86 86 86 88 85 89 91 90 88 87 90 88 89 89 88 89 89 90 88 93 95 94 94 93 91 93 90 96
92 92 92 91 90 91 90 89 87 84 86 86 86 86 86 85 88 88 86 88 88 89 89 89 89 89 89 89 89 91 91 91 91 88 88 93 95 95 94 92 90 89 93
89 92 93 92 90 90 89 89 87 86 86 88 86 86 86 85 89 89 85 88 85 86 87 88 88 89 89 89 88 91 89 89 89 90 89 90 95 95 95 94 93 89 85
87 90 92 92 91 91 90 90 89 87 87 89 88 88 88 87 88 88 85 88 89 86 87 87 88 88 88 88 86 90 90 88 91 92 89 87 93 94 94 94 94 93 89
79 87 90 91 91 91 91 89 89 88 87 88 88 88 89 89 88 88 88 86 86 87 86 86 87 87 87 88 86 87 88 87 87 88 87 86 88 91 94 94 93 92 92
79 78 88 89 89 89 90 89 88 88 88 88 87 87 87 87 88 86 88 87 86 86 86 87 86 86 87 88 86 85 89 87 86 87 87 87 91 87 86 90 88 89 89
79 74 74 83 82 78 87 89 88 87 89 87 87 86 86 85 86 86 87 87 87 86 88 87 85 86 86 86 86 84 86 86 88 88 87 87 87 85 87 85 85 86 88
73 71 69 75 75 77 77 87 88 89 88 87 86 85 85 86 86 86 86 86 86 86 86 86 86 86 87 87 86 85 85 86 88 87 87 86 85 85 85 85 83 76 77
78 76 70 69 70 70 74 83 86 86 85 84 86 85 86 86 84 84 84 85 85 86 86 85 85 85 86 88 84 85 85 85 85 86 85 86 81 70 73 80 79 76 83
79 80 74 73 69 71 72 74 82 82 82 80 76 85 83 83 83 84 82 83 83 84 84 84 84 82 85 64 66 69 82 83 83 83 84 82 72 72 68 68 68 72 78
78 77 77 75 71 69 70 70 76 82 79 72 74 80 80 82 82 81 80 78 74 77 77 81 80 76 78 62 62 65 76 83 83 82 83 80 86 77 81 67 66 67 67
72 75 76 75 68 69 72 71 71 74 79 73 71 77 72 74 79 73 73 72 73 73 73 74 74 74 72 59 60 63 72 78 82 79 79 78 78 69 70 73 74 76 68
64 64 65 68 70 69 68 68 68 68 69 70 72 74 71 73 70 69 70 70 70 70 68 65 64 63 63 58 59 65 74 74 70 68 73 70 69 60 61 73 77 73 70
63 63 64 66 66 66 71 70 68 68 69 69 72 73 73 72 69 69 68 69 69 66 63 61 61 60 63 58 57 64 77 75 79 76 72 61 69 59 59 77 77 75 77
63 63 61 61 63 65 69 69 71 70 70 70 68 67 67 67 68 69 68 66 62 60 59 59 58 59 62 64 56 57 75 78 77 80 79 80 58 56 57 59 78 75 79
65 65 61 60 60 62 62 60 61 64 67 66 66 66 65 66 66 66 63 62 61 59 58 56 55 56 58 55 55 55 57 61 74 75 78 74 54 55 56 62 58 59 65
65 64 61 59 58 59 59 58 58 61 62 61 60 61 62 63 63 65 64 62 62 60 58 57 57 58 60 62 56 56 57 59 73 75 61 55 52 53 59 57 58 58 79
68 68 67 63 60 61 59 57 58 59 58 57 57 57 59 62 62 61 61 62 62 61 60 59 58 57 61 64 65 68 72 62 67 60 71 64 59 54 64 66 68 73 72
71 70 68 68 66 66 66 67 65 64 62 60 60 61 62 57 53 51 53 53 50 53 60 59 61 59 61 63 55 55 66 64 60 64 72 71 70 74 74 73 71 64 68
71 70 70 69 68 68 68 69 70 71 70 71 72 68 62 63 60 57 54 49 50 49 48 48 53 58 51 46 45 45 45 48 49 66 74 75 75 75 74 73 70 71 66

GFSMW_sfc_temp_123.txt.gz
Temp
96 94 96 97 95 93 91 90 90 88 89 90 90 86 89 85 85 90 92 91 93 92 91 94 93 84 92 84 94 94 92 95 97 96 97 97 98 99 99 101 102 101 102
94 94 95 96 95 92 90 89 89 87 88 92 88 83 85 84 84 91 92 93 93 92 93 91 93 86 95 92 93 86 85 97 98 86 95 90 93 98 101 101 101 102 104
89 94 94 95 95 92 90 89 88 87 87 83 91 88 86 90 92 92 92 92 93 93 92 92 91 92 92 92 93 92 91 74 95 92 90 88 81 90 99 98 100 100 100
94 95 95 95 96 93 93 90 89 87 88 88 85 88 86 86 90 90 91 92 93 93 93 92 92 91 93 89 93 96 91 90 83 96 99 93 91 87 68 68 72 96 99
92 94 96 96 97 96 93 92 89 87 88 87 84 88 86 83 89 84 84 90 90 92 94 92 91 90 92 91 90 91 91 93 92 95 83 93 94 95 90 84 70 72 77
92 95 96 97 94 97 93 93 88 86 86 86 86 85 83 82 79 89 86 90 93 92 92 93 91 91 91 90 91 91 90 90 90 92 92 94 90 86 87 90 92 75 94
92 92 93 94 93 94 93 93 88 86 86 86 87 87 88 88 87 86 89 90 86 82 88 90 90 91 89 90 90 90 89 90 90 88 92 96 95 95 94 92 92 92 96
90 91 92 94 92 91 94 92 89 86 87 87 86 87 88 90 90 89 92 91 92 93 90 91 91 90 91 91 90 91 91 92 92 89 89 92 95 97 95 93 90 88 91
87 87 92 97 93 92 92 92 89 87 88 89 88 86 87 87 89 88 88 91 90 92 90 90 90 90 90 90 90 90 90 90 90 90 90 90 93 97 98 96 95 90 84
87 87 90 93 96 95 94 93 92 88 89 90 90 89 89 88 88 86 87 88 87 88 89 88 89 89 89 90 88 90 91 89 91 92 90 90 92 93 95 95 95 93 89
88 91 78 90 95 95 95 92 91 89 88 89 90 89 90 90 90 89 88 87 87 87 87 87 86 87 88 88 85 84 86 87 88 89 88 88 88 90 93 93 93 92 93
86 83 89 86 88 93 94 92 91 91 90 90 89 89 89 90 91 89 90 87 86 86 86 87 87 88 87 86 84 84 88 84 86 87 88 88 92 87 88 90 87 88 88
81 80 81 78 85 92 92 92 91 90 91 90 89 89 89 88 88 89 89 89 85 87 90 86 85 85 86 86 87 86 86 87 88 89 88 88 88 86 88 83 87 89 85
74 71 72 73 83 89 90 91 91 91 90 90 89 88 88 89 89 88 88 89 89 87 88 88 86 86 88 89 87 85 85 86 86 85 86 86 83 80 79 83 83 81 77
69 68 70 69 74 83 84 85 87 90 90 89 88 87 88 89 88 87 87 87 87 88 88 88 88 87 87 88 87 86 85 86 86 86 85 86 81 72 72 78 79 78 78
80 77 76 73 70 75 82 81 76 82 85 86 86 86 86 85 84 84 84 84 84 84 85 84 85 83 86 66 68 70 84 85 85 84 86 86 75 74 69 69 69 71 77
82 83 76 69 70 70 74 79 75 76 79 80 84 83 84 83 84 84 83 81 80 81 81 81 77 76 70 63 63 65 80 83 83 83 82 82 85 78 82 67 68 69 68
72 67 72 74 72 70 71 72 72 72 75 79 80 81 81 81 81 77 80 78 78 77 75 73 71 72 61 60 61 64 78 81 77 73 74 77 77 69 74 80 79 78 76
63 64 67 71 68 68 69 68 68 69 69 73 76 79 78 74 74 77 73 73 74 77 71 68 66 65 61 56 59 63 77 78 72 68 66 72 72 61 62 68 73 71 73
62 63 64 66 68 70 69 67 66 67 67 68 70 74 77 74 74 75 75 74 72 70 63 61 60 61 61 55 57 59 68 70 70 67 67 62 66 61 61 66 75 75 77
62 62 61 61 62 65 71 69 69 68 69 69 68 68 68 68 68 68 68 65 62 60 59 58 57 56 56 56 55 56 61 64 69 74 75 70 59 57 58 59 74 74 71
64 63 59 58 59 62 63 62 63 65 68 67 67 67 67 67 67 64 62 61 61 59 57 56 54 54 53 52 53 55 57 60 72 75 75 66 56 56 58 61 60 60 65
64 65 61 58 58 59 60 57 59 61 62 62 61 62 62 63 64 66 63 62 61 60 58 57 57 56 56 56 55 56 58 61 66 69 61 59 55 54 57 58 60 59 68
67 67 64 62 59 59 58 58 59 60 59 58 59 58 59 63 67 66 62 64 63 61 60 59 58 57 56 58 63 65 68 63 66 63 63 62 59 57 65 67 67 75 75
69 70 69 66 66 65 63 63 61 62 60 59 61 60 58 57 58 61 63 60 54 59 62 62 61 59 59 61 57 57 65 63 55 60 73 72 72 72 73 74 74 74 72
72 71 70 69 69 70 69 69 72 72 70 70 71 67 65 67 64 57 55 49 49 49 49 50 54 60 51 48 47 46 47 48 48 64 68 72 75 76 76 74 73 73 66